[[{"header":{"parameterUnit":"m.s-1","parameterCategory":1,"la1":30.6,"la2":29.2853,"lo1":-89.7004,"lo2":-87.6739,"dy":0.0162,"dx":0.0183,"nx":112,"ny":82,"refTime":"2026-03-25T00:00:00:Z","depth":0,"parameterNumber":2,"parameterNumberName":"U-component_of_WINDS"},"data":[0.0,0.0,0.0,0.0,0.0,0.0,0.0,0.0,0.0,0.0,0.0,0.0,0.0,0.0,0.0,0.0,0.0,0.0,0.0,0.0,0.0,0.0,0.0,0.0,0.0,0.0,0.0,0.0,0.0,0.0,0.0,0.0,0.0,0.0,0.0,0.0,0.0,0.0,0.0,0.0,0.0,0.0,0.0,0.0,0.0,0.0,0.0,0.0,0.0,0.0,0.0,0.0,0.0,0.0,0.0,0.0,0.0,0.0,0.0,0.0,0.0,0.0,0.0,0.0,0.0,0.0,0.0,0.0,0.0,0.0,0.0,0.0,0.0,0.0,0.0,0.0,0.0,0.0,0.0,0.0,0.0,0.0,0.0,0.0,0.0,0.0,0.0,0.0,0.0,0.0,0.0,5.8406,6.1111,6.2793,6.2793,6.2071,6.0572,5.8143,0.0,0.0,0.0,0.0,0.0,0.0,0.0,0.0,0.0,0.0,0.0,0.0,0.0,0.0,0.0,0.0,0.0,0.0,0.0,0.0,0.0,0.0,0.0,0.0,0.0,0.0,0.0,0.0,0.0,0.0,0.0,0.0,0.0,0.0,0.0,0.0,0.0,0.0,0.0,0.0,0.0,0.0,0.0,0.0,0.0,0.0,0.0,0.0,0.0,0.0,0.0,0.0,0.0,0.0,0.0,0.0,0.0,0.0,0.0,0.0,0.0,0.0,0.0,0.0,0.0,0.0,0.0,0.0,0.0,0.0,0.0,0.0,0.0,0.0,0.0,0.0,0.0,0.0,0.0,0.0,0.0,0.0,0.0,0.0,0.0,0.0,0.0,0.0,0.0,0.0,0.0,0.0,0.0,0.0,0.0,0.0,0.0,0.0,0.0,0.0,0.0,0.0,0.0,0.0,5.7127,6.0682,6.2101,6.2793,6.2793,6.2071,6.0572,5.8143,0.0,0.0,0.0,0.0,0.0,0.0,0.0,0.0,0.0,0.0,0.0,0.0,0.0,0.0,0.0,0.0,0.0,0.0,0.0,0.0,0.0,0.0,0.0,0.0,0.0,0.0,0.0,0.0,0.0,0.0,0.0,0.0,0.0,0.0,0.0,0.0,0.0,0.0,0.0,0.0,0.0,0.0,0.0,0.0,0.0,0.0,0.0,0.0,0.0,0.0,0.0,0.0,0.0,0.0,0.0,0.0,0.0,0.0,0.0,0.0,0.0,0.0,0.0,0.0,0.0,0.0,0.0,0.0,0.0,0.0,0.0,0.0,0.0,0.0,0.0,0.0,0.0,0.0,0.0,0.0,0.0,0.0,0.0,0.0,0.0,0.0,0.0,0.0,0.0,0.0,0.0,0.0,0.0,0.0,0.0,0.0,0.0,0.0,0.0,0.0,0.0,0.0,0.0,5.6271,5.7629,6.1233,6.2322,6.2793,6.2793,6.2071,6.0572,5.8143,5.7257,0.0,0.0,0.0,0.0,0.0,0.0,0.0,0.0,0.0,0.0,0.0,0.0,0.0,0.0,0.0,0.0,0.0,0.0,0.0,0.0,0.0,0.0,0.0,0.0,0.0,0.0,0.0,0.0,0.0,0.0,0.0,0.0,0.0,0.0,0.0,0.0,0.0,0.0,0.0,0.0,0.0,0.0,0.0,0.0,0.0,0.0,0.0,0.0,0.0,0.0,0.0,0.0,0.0,0.0,0.0,0.0,0.0,0.0,0.0,0.0,0.0,0.0,0.0,0.0,0.0,0.0,0.0,0.0,0.0,0.0,0.0,0.0,0.0,0.0,0.0,0.0,0.0,0.0,0.0,0.0,0.0,0.0,0.0,0.0,0.0,0.0,0.0,0.0,0.0,0.0,0.0,0.0,0.0,0.0,0.0,0.0,0.0,0.0,0.0,0.0,0.0,0.0,5.755,5.8725,6.1594,6.2432,6.2793,6.2793,6.1887,6.0388,5.8149,5.7079,0.0,0.0,0.0,0.0,0.0,0.0,0.0,0.0,0.0,0.0,0.0,0.0,0.0,0.0,0.0,0.0,0.0,0.0,0.0,0.0,0.0,0.0,0.0,0.0,0.0,0.0,0.0,0.0,0.0,0.0,0.0,0.0,0.0,0.0,0.0,0.0,0.0,0.0,0.0,0.0,0.0,0.0,0.0,0.0,0.0,0.0,0.0,0.0,0.0,0.0,0.0,0.0,0.0,0.0,0.0,0.0,0.0,0.0,0.0,0.0,0.0,0.0,0.0,0.0,0.0,0.0,0.0,0.0,0.0,0.0,0.0,0.0,0.0,0.0,0.0,0.0,0.0,0.0,0.0,0.0,0.0,0.0,0.0,0.0,0.0,0.0,0.0,0.0,0.0,0.0,0.0,0.0,0.0,0.0,0.0,0.0,0.0,0.0,0.0,0.0,0.0,0.0,5.8327,6.0817,6.2536,6.2756,6.2793,6.2793,6.1367,5.9758,5.8112,5.6534,0.0,0.0,0.0,0.0,0.0,0.0,0.0,0.0,0.0,0.0,0.0,0.0,0.0,0.0,0.0,0.0,0.0,0.0,0.0,0.0,0.0,0.0,0.0,0.0,0.0,0.0,0.0,0.0,0.0,0.0,0.0,0.0,0.0,0.0,0.0,0.0,0.0,0.0,0.0,0.0,0.0,0.0,0.0,0.0,0.0,0.0,0.0,0.0,0.0,0.0,0.0,0.0,0.0,0.0,0.0,0.0,0.0,0.0,0.0,0.0,0.0,0.0,0.0,0.0,0.0,0.0,0.0,0.0,0.0,0.0,0.0,0.0,0.0,0.0,0.0,0.0,0.0,0.0,0.0,0.0,0.0,0.0,0.0,0.0,0.0,0.0,0.0,0.0,0.0,0.0,0.0,0.0,0.0,0.0,0.0,0.0,0.0,0.0,0.0,0.0,0.0,0.0,5.785,5.9905,0.0,6.2793,6.2793,6.2793,6.1771,6.0015,5.7404,0.0,0.0,0.0,0.0,0.0,0.0,0.0,0.0,0.0,0.0,0.0,0.0,0.0,0.0,0.0,0.0,0.0,0.0,0.0,0.0,0.0,0.0,0.0,0.0,0.0,0.0,0.0,0.0,0.0,0.0,0.0,0.0,0.0,0.0,0.0,0.0,0.0,0.0,0.0,0.0,0.0,0.0,0.0,0.0,0.0,0.0,0.0,0.0,0.0,0.0,0.0,0.0,0.0,0.0,0.0,0.0,0.0,0.0,0.0,0.0,0.0,0.0,0.0,0.0,0.0,0.0,0.0,0.0,0.0,0.0,0.0,0.0,0.0,0.0,0.0,0.0,0.0,0.0,0.0,0.0,0.0,0.0,0.0,0.0,0.0,0.0,0.0,0.0,0.0,0.0,0.0,0.0,0.0,0.0,0.0,0.0,0.0,0.0,0.0,0.0,0.0,0.0,5.6088,5.7776,6.0009,0.0,6.36,6.379,6.4304,6.3135,6.1006,5.7765,0.0,0.0,0.0,0.0,0.0,0.0,0.0,0.0,0.0,0.0,0.0,0.0,0.0,0.0,0.0,0.0,0.0,0.0,0.0,0.0,0.0,0.0,0.0,0.0,0.0,0.0,0.0,0.0,0.0,0.0,0.0,0.0,0.0,0.0,0.0,0.0,0.0,0.0,0.0,0.0,0.0,0.0,0.0,0.0,0.0,0.0,0.0,0.0,0.0,0.0,0.0,0.0,0.0,0.0,0.0,0.0,0.0,0.0,0.0,0.0,0.0,0.0,0.0,0.0,0.0,0.0,0.0,0.0,0.0,0.0,0.0,0.0,0.0,0.0,0.0,0.0,0.0,0.0,0.0,0.0,0.0,0.0,0.0,0.0,0.0,0.0,0.0,0.0,0.0,0.0,0.0,0.0,0.0,0.0,0.0,0.0,0.0,0.0,0.0,0.0,0.0,0.0,5.5511,5.8437,6.1698,6.5001,6.5325,6.5962,6.7554,6.5498,6.2695,0.0,0.0,0.0,0.0,0.0,0.0,0.0,0.0,0.0,0.0,0.0,0.0,0.0,0.0,0.0,0.0,0.0,0.0,0.0,0.0,0.0,0.0,0.0,0.0,0.0,0.0,0.0,0.0,0.0,0.0,0.0,0.0,0.0,0.0,0.0,0.0,0.0,0.0,0.0,0.0,0.0,0.0,0.0,0.0,0.0,0.0,0.0,0.0,0.0,0.0,0.0,0.0,0.0,0.0,0.0,0.0,0.0,0.0,0.0,0.0,0.0,0.0,0.0,0.0,0.0,0.0,0.0,0.0,0.0,0.0,0.0,0.0,0.0,0.0,0.0,0.0,0.0,0.0,0.0,0.0,0.0,0.0,0.0,0.0,0.0,0.0,0.0,0.0,0.0,0.0,0.0,0.0,0.0,0.0,0.0,0.0,0.0,0.0,0.0,0.0,0.0,0.0,0.0,0.0,6.1111,6.4671,6.6776,6.6996,6.718,6.7664,6.5498,6.2444,5.8584,0.0,0.0,0.0,0.0,0.0,0.0,0.0,0.0,0.0,0.0,0.0,0.0,0.0,0.0,0.0,0.0,0.0,0.0,0.0,0.0,0.0,0.0,0.0,0.0,0.0,0.0,0.0,0.0,0.0,0.0,0.0,0.0,0.0,0.0,0.0,0.0,0.0,0.0,0.0,0.0,0.0,0.0,0.0,0.0,0.0,0.0,0.0,0.0,0.0,0.0,0.0,0.0,0.0,0.0,0.0,0.0,0.0,0.0,0.0,0.0,0.0,0.0,0.0,0.0,0.0,0.0,0.0,0.0,0.0,0.0,0.0,0.0,0.0,0.0,0.0,0.0,0.0,0.0,0.0,0.0,0.0,0.0,0.0,0.0,0.0,0.0,0.0,0.0,0.0,0.0,0.0,0.0,0.0,0.0,0.0,0.0,0.0,0.0,0.0,0.0,0.0,0.0,5.7745,6.2285,6.6176,6.8428,6.8648,6.8905,6.9566,6.7694,6.4463,5.9728,0.0,0.0,0.0,0.0,0.0,0.0,0.0,0.0,0.0,0.0,0.0,0.0,0.0,0.0,0.0,0.0,0.0,0.0,0.0,0.0,0.0,0.0,0.0,0.0,0.0,0.0,0.0,0.0,0.0,0.0,0.0,0.0,0.0,0.0,0.0,0.0,0.0,0.0,0.0,0.0,0.0,0.0,0.0,0.0,0.0,0.0,0.0,0.0,0.0,0.0,0.0,0.0,0.0,0.0,0.0,0.0,0.0,0.0,0.0,0.0,0.0,0.0,0.0,0.0,0.0,0.0,0.0,0.0,0.0,0.0,0.0,0.0,0.0,0.0,0.0,0.0,0.0,0.0,0.0,0.0,0.0,0.0,0.0,0.0,0.0,0.0,0.0,0.0,0.0,0.0,0.0,0.0,0.0,0.0,0.0,0.0,0.0,0.0,0.0,0.0,0.0,0.0,5.8002,6.2615,6.691,7.0,7.0337,7.0917,7.2386,7.0954,6.762,6.2077,0.0,0.0,0.0,0.0,0.0,0.0,0.0,0.0,0.0,0.0,0.0,0.0,0.0,0.0,0.0,0.0,0.0,0.0,0.0,0.0,0.0,0.0,0.0,0.0,0.0,0.0,0.0,0.0,0.0,0.0,0.0,0.0,0.0,0.0,0.0,0.0,0.0,0.0,0.0,0.0,0.0,0.0,0.0,0.0,0.0,0.0,0.0,0.0,0.0,0.0,0.0,0.0,0.0,0.0,0.0,0.0,0.0,0.0,0.0,0.0,5.3728,0.0,0.0,0.0,0.0,0.0,0.0,0.0,0.0,0.0,0.0,0.0,0.0,0.0,0.0,0.0,0.0,0.0,0.0,0.0,0.0,0.0,0.0,0.0,0.0,0.0,0.0,0.0,0.0,0.0,0.0,0.0,0.0,0.0,0.0,0.0,0.0,0.0,0.0,0.0,0.0,0.0,5.9612,6.5264,6.9816,7.1798,7.1982,7.2129,7.2452,7.0433,6.7277,6.2836,0.0,0.0,0.0,0.0,0.0,0.0,0.0,0.0,0.0,0.0,0.0,0.0,0.0,0.0,0.0,0.0,0.0,0.0,0.0,0.0,0.0,0.0,0.0,0.0,0.0,0.0,0.0,0.0,0.0,0.0,0.0,0.0,0.0,0.0,0.0,0.0,0.0,0.0,0.0,0.0,0.0,0.0,0.0,0.0,0.0,0.0,0.0,0.0,0.0,0.0,0.0,0.0,0.0,0.0,0.0,0.0,0.0,0.0,0.0,0.0,0.0,5.5038,0.0,0.0,0.0,0.0,0.0,0.0,0.0,0.0,0.0,0.0,0.0,0.0,0.0,0.0,0.0,0.0,0.0,0.0,0.0,0.0,0.0,0.0,0.0,0.0,0.0,0.0,0.0,0.0,0.0,0.0,0.0,0.0,0.0,0.0,0.0,0.0,0.0,0.0,0.0,0.0,6.1178,6.6873,7.1277,7.2899,7.3083,7.2936,7.2525,7.0984,6.8488,6.4818,6.1147,0.0,0.0,0.0,0.0,0.0,0.0,0.0,0.0,0.0,0.0,0.0,0.0,0.0,0.0,0.0,0.0,0.0,0.0,0.0,0.0,0.0,0.0,0.0,0.0,0.0,0.0,0.0,0.0,0.0,0.0,0.0,0.0,0.0,0.0,0.0,0.0,0.0,0.0,0.0,0.0,0.0,0.0,0.0,0.0,0.0,0.0,0.0,0.0,0.0,0.0,0.0,0.0,0.0,6.185,6.2427,6.2944,6.4324,6.4644,6.3919,6.153,5.915,5.7004,0.0,0.0,0.0,0.0,0.0,0.0,0.0,0.0,0.0,0.0,0.0,0.0,0.0,0.0,0.0,0.0,0.0,0.0,0.0,0.0,0.0,0.0,0.0,0.0,0.0,6.2082,6.2237,0.0,0.0,0.0,0.0,0.0,0.0,0.0,0.0,0.0,0.0,0.0,0.0,6.2609,6.7857,7.1857,7.334,7.3604,7.3384,7.2569,7.1754,6.9993,6.688,6.3282,5.9422,0.0,0.0,0.0,0.0,0.0,0.0,0.0,0.0,0.0,0.0,0.0,0.0,0.0,0.0,0.0,0.0,0.0,0.0,0.0,0.0,0.0,0.0,0.0,0.0,0.0,0.0,0.0,0.0,0.0,0.0,0.0,0.0,5.3417,5.2065,0.0,0.0,0.0,0.0,0.0,0.0,0.0,0.0,0.0,0.0,0.0,0.0,0.0,5.9702,5.9875,6.3298,6.5067,6.5196,6.8438,6.9715,6.9232,7.0059,7.0404,7.0335,7.0622,0.0,6.253,6.253,0.0,0.0,0.0,0.0,0.0,0.0,0.0,0.0,0.0,0.0,0.0,0.0,0.0,0.0,0.0,0.0,0.0,0.0,0.0,0.0,0.0,0.0,6.6127,6.6738,6.7152,6.6821,0.0,5.9831,5.5512,5.4789,0.0,0.0,0.0,0.0,0.0,0.0,0.0,0.0,6.3509,6.8231,7.1637,7.2569,7.3274,7.3384,7.2569,7.1754,7.0213,6.7694,6.5705,6.2829,5.8756,5.6161,0.0,0.0,0.0,0.0,0.0,0.0,0.0,0.0,0.0,0.0,0.0,0.0,0.0,0.0,0.0,0.0,0.0,0.0,0.0,0.0,0.0,0.0,0.0,0.0,0.0,0.0,0.0,0.0,0.0,5.321,5.4375,5.2444,5.4348,5.4555,0.0,0.0,0.0,0.0,0.0,0.0,0.0,0.0,0.0,6.1668,6.3229,6.4644,6.592,6.8438,6.9932,7.038,7.2002,7.2843,7.2936,7.3281,7.366,7.4119,7.4464,7.3084,7.0384,6.7359,6.454,6.1919,0.0,0.0,0.0,0.0,5.9185,5.984,6.2393,6.2737,0.0,6.2678,0.0,0.0,0.0,0.0,0.0,0.0,0.0,0.0,0.0,0.0,0.0,6.9749,7.068,7.0887,6.937,6.6024,6.2218,0.0,5.7246,5.5973,5.3313,0.0,0.0,0.0,0.0,0.0,6.5718,6.9559,7.2268,7.3083,7.3494,7.3384,7.2569,7.2195,7.1314,6.9816,6.7797,6.5448,6.2756,5.9826,5.6785,0.0,0.0,0.0,0.0,0.0,0.0,0.0,0.0,0.0,0.0,0.0,0.0,0.0,0.0,0.0,0.0,0.0,0.0,0.0,0.0,0.0,0.0,0.0,0.0,0.0,0.0,0.0,0.0,5.4486,5.5927,5.3651,5.6073,5.6598,0.0,0.0,0.0,0.0,0.0,0.0,6.0383,6.1944,6.385,6.6083,6.7852,6.9542,7.1232,7.2612,7.3543,7.4085,7.4302,7.4671,7.519,7.5397,7.5822,7.6384,7.6384,7.6384,7.604,7.1429,6.8128,6.5782,6.423,6.3738,6.391,6.3919,6.4195,6.4989,6.8207,6.8552,6.7576,6.762,0.0,6.3091,6.0056,0.0,0.0,0.0,0.0,6.1608,6.4979,6.7852,7.0301,7.1981,7.3257,7.3602,7.1888,7.0473,6.8014,0.0,6.1177,5.9719,5.645,0.0,0.0,0.0,0.0,6.4561,6.762,7.0624,7.2716,7.334,7.3567,7.3384,7.2569,7.2488,7.2158,7.1344,6.9596,6.7907,6.6279,6.3496,6.0529,0.0,0.0,0.0,0.0,0.0,0.0,0.0,0.0,0.0,0.0,0.0,0.0,0.0,0.0,0.0,0.0,0.0,0.0,0.0,0.0,0.0,0.0,0.0,0.0,0.0,0.0,0.0,0.0,0.0,0.0,5.684,5.9219,0.0,0.0,0.0,0.0,5.8556,6.153,6.3609,6.4358,6.7886,6.9956,7.0094,7.2302,7.3509,7.3623,7.4419,7.4822,7.4845,7.5615,7.5994,7.6074,7.6753,7.7097,7.7132,7.7132,7.7132,7.6971,7.4499,7.3002,7.2105,7.0542,7.037,7.0749,6.8611,6.8749,6.9932,6.9449,6.9242,6.9552,7.1657,6.9828,6.661,6.5713,6.3894,0.0,0.0,6.3825,6.6102,6.8448,7.0232,7.1946,7.4201,7.4776,7.4236,7.1981,7.0887,6.9621,0.0,6.4888,6.3257,6.2687,0.0,6.1063,6.2263,6.4004,6.6065,6.8525,7.0984,7.2525,7.2569,7.323,7.3384,7.2569,7.2488,7.2158,7.1344,7.1197,7.0389,6.8781,6.7093,6.5007,6.2499,5.8609,0.0,0.0,0.0,0.0,0.0,0.0,0.0,0.0,0.0,0.0,0.0,0.0,0.0,0.0,0.0,0.0,0.0,0.0,0.0,0.0,0.0,0.0,0.0,0.0,0.0,0.0,0.0,0.0,5.8307,6.2561,0.0,6.116,6.122,6.1797,6.2599,6.5541,6.7783,6.9025,7.1301,7.2819,7.3281,7.4591,7.5292,7.5292,7.5994,7.6373,7.6373,7.6684,7.6822,7.6822,7.7063,7.7201,7.7201,7.7201,7.7201,7.7132,7.6315,7.5557,7.4774,7.3695,7.3443,7.358,7.2787,7.3143,7.405,7.3774,7.3671,7.3567,7.2888,7.145,6.9577,6.7852,6.7093,6.6965,6.7438,6.8507,6.9921,7.1726,7.3337,7.4522,7.4822,7.5673,7.5891,7.4063,7.3119,7.206,7.0266,6.73,6.4689,6.3441,6.405,6.4667,6.4516,6.6727,6.8898,7.0279,7.1644,7.2488,7.2488,7.2753,7.2826,7.2525,7.2488,7.2378,7.2085,7.16,7.105,7.0463,6.8892,6.713,6.5221,6.2212,5.8321,0.0,0.0,0.0,0.0,0.0,0.0,0.0,0.0,0.0,0.0,0.0,0.0,0.0,0.0,0.0,0.0,0.0,0.0,0.0,0.0,0.0,0.0,0.0,0.0,0.0,0.0,6.2073,6.1426,6.5575,6.7581,6.5254,6.5769,6.6575,6.7334,6.9508,7.1336,7.2567,7.3878,7.4809,7.5304,7.6063,7.6477,7.6477,7.7247,7.7488,7.7201,7.7477,7.7442,7.7201,7.7201,7.7201,7.7235,7.7488,7.7442,7.7235,7.7477,7.7166,7.6408,7.5891,7.5856,7.6063,7.5787,7.6201,7.6833,7.6557,7.6315,7.5867,7.4326,7.3291,7.236,7.0832,7.0774,7.1291,7.1774,7.2281,7.2936,7.4233,7.5315,7.6029,7.5742,7.6477,7.6787,7.5225,7.4729,7.3888,7.1577,6.8921,6.6743,6.5794,6.67,6.7247,6.6301,6.8664,7.0506,7.0499,7.1681,7.2488,7.2488,7.2488,7.2488,7.2488,7.1754,7.1534,7.2048,7.0837,7.0213,7.0463,6.8965,6.746,6.6109,6.2572,5.8459,5.3672,0.0,0.0,0.0,0.0,0.0,0.0,0.0,0.0,0.0,0.0,0.0,0.0,0.0,0.0,0.0,0.0,0.0,0.0,0.0,0.0,0.0,0.0,0.0,5.8326,6.1953,6.4981,6.624,6.8227,6.9658,7.0113,6.9735,7.036,7.2567,7.3429,7.4177,7.488,7.5673,7.6132,7.6177,7.6822,7.7201,7.7235,7.7971,7.7971,7.7201,7.8005,7.7936,7.7201,7.7201,7.7201,7.7235,7.804,7.7936,7.727,7.8074,7.7936,7.7201,7.7201,7.7695,7.8292,7.7488,7.7684,7.8247,7.7477,7.6718,7.6132,7.6132,7.5615,7.4983,7.4983,7.4983,7.4983,7.4983,7.4983,7.5156,7.5925,7.6132,7.6304,7.7028,7.7201,7.6787,7.5294,7.558,7.5005,7.1232,6.9897,6.9553,7.0044,6.96,6.8818,6.7931,6.9825,0.0,6.9222,7.1057,7.2496,7.2422,7.2422,7.2422,7.2422,7.025,6.9589,7.1197,6.9045,6.8098,6.8892,6.7357,6.6109,6.5325,5.9771,5.5456,5.2488,0.0,0.0,0.0,0.0,0.0,0.0,0.0,0.0,0.0,0.0,0.0,0.0,0.0,0.0,0.0,0.0,0.0,0.0,0.0,0.0,0.0,0.0,5.9929,5.915,6.3579,6.7295,6.8405,7.1406,7.3499,7.3793,7.3409,7.3314,7.3745,7.4487,7.5045,7.5464,7.6197,7.6963,7.7729,7.7419,7.7477,7.8074,7.7718,7.7408,7.7201,7.7408,7.7408,7.7201,7.7201,7.7201,7.7235,7.804,7.7936,7.727,7.8074,7.7936,7.7201,7.7201,7.7339,7.7511,7.727,7.7339,7.7511,7.727,7.7063,7.6891,7.6891,7.6753,7.658,7.658,7.658,7.658,7.658,7.658,7.6615,7.6856,7.6891,7.6959,7.7132,7.7201,7.7097,7.6649,7.6304,7.5453,7.3302,7.2278,7.111,6.904,6.9414,6.9883,6.9625,7.1058,0.0,7.1578,7.2085,7.2055,7.0881,7.077,7.077,7.077,6.9633,6.9589,0.0,6.9589,6.8935,6.9743,6.765,6.6109,6.5325,6.1043,5.8125,0.0,0.0,0.0,0.0,0.0,0.0,0.0,0.0,0.0,0.0,0.0,0.0,0.0,0.0,0.0,0.0,0.0,0.0,0.0,0.0,0.0,0.0,6.1231,6.4011,6.3884,6.678,6.959,7.1365,7.3658,7.5228,7.5605,7.5493,7.5344,7.5197,7.5561,7.5903,7.6164,7.6553,7.7102,7.772,7.7397,7.7363,7.772,7.8017,7.7994,7.7718,7.8339,7.8442,7.8166,7.8166,7.8166,0.0,7.8971,7.8867,7.8212,7.866,7.8385,0.0,0.0,0.0,0.0,0.0,7.7201,7.7201,7.7201,7.7201,7.7201,7.7201,7.7201,7.7201,7.7201,7.7201,7.7201,7.7201,7.7201,7.7201,7.7201,7.7201,7.7201,7.7201,7.7201,7.7201,7.7201,7.6856,7.6109,7.4557,7.3912,0.0,6.998,7.0234,7.0564,6.9854,7.1332,7.2275,7.1578,7.2092,7.2275,7.1659,7.1328,7.1248,7.1585,6.9926,0.0,0.0,0.0,6.7944,6.8084,6.6065,0.0,0.0,0.0,0.0,0.0,0.0,0.0,0.0,5.3349,5.321,0.0,0.0,0.0,0.0,0.0,0.0,0.0,0.0,0.0,0.0,0.0,0.0,0.0,0.0,0.0,0.0,6.485,6.8741,7.0477,7.0846,7.1908,7.4436,7.5148,7.5651,7.6155,7.6434,7.6574,7.655,7.6619,7.6757,7.6965,0.0,0.0,0.0,0.0,7.7307,7.7171,7.8684,7.9155,7.8522,7.9867,8.0132,7.9488,7.9488,7.9488,7.9557,8.027,8.0178,7.9523,7.9592,7.9178,7.843,7.7557,7.7201,7.7201,7.7304,7.727,7.7201,7.7304,0.0,0.0,7.7201,7.7201,7.7201,7.7201,7.7201,7.7201,7.7201,7.7201,7.7201,7.7201,7.7201,7.7201,7.7201,7.7201,7.7201,7.7201,7.7201,7.6787,7.5328,7.4949,7.4236,7.2119,7.1682,7.1122,6.9652,7.1266,7.2165,7.0807,7.1908,7.2973,7.3494,0.0,0.0,7.3494,7.077,6.9405,7.0293,6.8201,6.6512,6.5625,6.4224,6.3092,6.2297,6.1468,6.0825,6.0371,5.9519,5.9674,6.0565,5.49,5.4486,0.0,0.0,0.0,0.0,0.0,0.0,0.0,0.0,0.0,0.0,0.0,0.0,0.0,0.0,0.0,6.3226,6.7117,7.068,7.3364,7.3771,7.4234,7.5337,7.5954,7.6377,7.6697,7.6923,7.6982,7.6825,7.7355,7.7803,7.7988,7.8,7.839,7.9196,7.8696,7.8768,7.955,7.9288,7.9211,7.9281,0.0,0.0,7.9488,7.9488,7.9488,7.9557,8.027,8.0178,7.9557,8.0143,7.9971,7.9143,7.7764,7.7201,7.727,7.7936,7.7764,7.7304,7.7936,7.7729,7.7201,7.7201,7.7201,7.7201,7.7201,7.7201,0.0,7.7201,7.7201,7.7201,7.7201,7.7201,7.7201,7.7201,7.7201,7.7201,7.7201,7.7201,7.6925,7.6029,7.5339,7.458,7.3543,7.2823,7.2298,7.2035,7.2839,7.3597,7.392,7.425,7.3993,7.2863,7.2606,7.2569,7.2716,7.0954,7.0477,7.1945,7.0367,6.8758,6.729,6.754,6.7357,6.6526,6.4708,6.3972,6.444,6.2662,6.2484,6.3772,6.0737,6.0151,0.0,0.0,0.0,0.0,0.0,0.0,0.0,0.0,0.0,0.0,0.0,5.4025,5.5911,0.0,6.2492,6.6237,6.9045,7.165,7.4243,7.5258,7.59,7.6251,7.6546,7.6911,7.7391,7.7556,7.7547,7.7447,7.7785,7.8098,7.8286,7.8298,7.8589,7.925,7.8897,7.8922,7.9441,7.9594,7.9724,7.9853,8.0395,8.0661,8.0661,8.0661,8.0661,8.0661,8.104,8.1005,8.0661,8.0626,8.0178,7.9419,7.866,7.835,7.8419,7.8798,7.8695,7.8419,7.8798,7.8695,7.835,7.835,7.835,7.8281,7.7902,7.8074,7.8201,7.7408,7.7488,7.7695,7.7304,7.7201,7.7201,7.7201,7.7201,7.7201,7.7201,7.7201,7.6994,7.6235,7.5787,7.5143,7.3992,7.3772,7.3654,7.3298,7.3861,7.4294,7.4294,7.4654,7.4581,7.3773,7.37,7.3846,7.4258,7.2459,7.1468,7.1865,7.0403,6.9302,6.8905,6.8898,6.8747,6.8363,6.6968,6.624,6.6248,6.4867,6.4575,6.5265,6.4496,6.4161,0.0,0.0,0.0,0.0,0.0,0.0,0.0,0.0,5.2528,5.3408,5.4938,5.6822,5.9169,6.1857,6.4867,6.8445,7.0783,7.2822,7.4784,7.6251,7.7164,7.7299,7.7198,7.7345,7.7954,7.8124,7.8225,7.8225,7.836,7.8514,7.8655,7.8667,7.8764,7.897,7.8992,7.9016,7.9054,7.9861,8.0289,8.0383,8.1251,8.1621,8.1668,8.1715,8.1727,8.1739,8.1787,8.181,8.1741,8.1109,8.0488,7.9936,7.9936,7.9936,7.9936,7.9764,7.9626,7.9523,7.966,7.9626,7.9488,7.9488,7.9488,7.9385,7.8798,7.904,7.9247,7.7994,7.8109,7.8454,7.7821,7.7649,7.7649,7.7649,7.7649,7.7615,7.7442,7.7442,7.7178,7.6281,7.596,7.5488,7.4223,7.452,7.4733,7.4109,7.4651,7.4948,7.4441,7.4984,7.538,7.538,7.538,7.5572,7.6056,7.4177,7.2635,7.1828,7.0396,6.9883,7.055,6.9772,6.9404,6.9479,6.8637,6.7923,6.7347,6.6655,6.6344,6.6334,6.6955,6.6817,4.8462,4.8259,4.8875,4.8875,5.0431,5.23,0.0,0.0,5.6562,5.7974,6.0013,6.1571,6.1646,6.5319,6.8446,6.8689,7.238,7.554,7.6521,7.7367,7.8111,7.8775,7.828,7.7921,7.7988,7.8585,7.8978,7.8978,7.9566,7.9951,7.9988,7.9988,8.0001,8.0026,8.0026,8.0139,8.0387,8.0514,8.0672,8.0905,8.1044,8.109,8.1102,8.1333,8.143,8.1442,8.1715,8.181,8.181,8.1707,8.1638,8.1523,8.1523,8.1523,8.1466,8.073,8.0074,7.9592,8.0247,8.004,7.9488,7.9488,7.9488,7.9488,7.9385,7.9419,7.9454,7.9281,7.9316,7.935,7.9281,7.9247,7.9247,7.9247,7.9247,7.9074,7.8419,7.8292,7.7833,7.6384,7.5511,7.4983,7.4822,7.4891,7.4966,7.4894,7.551,7.6195,7.6812,7.6988,7.7024,7.7024,7.7024,7.6775,7.6166,7.5204,7.4287,7.3494,7.2606,7.2121,7.2239,7.1461,7.1048,7.1124,6.9705,6.8971,6.8936,6.8216,6.7842,6.7842,6.7955,6.7576,5.0668,0.0,0.0,0.0,5.4168,5.6327,5.6884,5.8584,6.0208,6.0635,6.1858,6.3033,6.3779,6.5913,6.8249,0.0,7.2873,7.5011,7.6657,7.7536,7.8259,7.9012,7.8809,7.8822,7.924,7.9566,7.9735,7.9735,8.004,8.0209,8.0209,8.0209,8.0284,8.0435,8.0297,8.0347,8.061,8.061,8.0672,8.0783,8.0931,8.1005,8.1005,8.1115,8.1248,8.1405,8.1669,8.181,8.181,8.181,8.181,8.181,8.181,8.181,8.1776,8.1419,8.1109,8.0867,8.1178,8.1109,8.0833,8.0833,8.0833,8.073,8.0281,8.0454,8.0661,7.9764,7.9798,8.004,7.9626,7.9488,7.9488,7.9488,7.9488,7.9419,7.9109,7.904,7.8454,7.6488,7.5822,7.5177,7.3843,7.4012,7.4473,7.4937,7.6018,7.6746,7.6636,7.6995,7.7281,7.7281,7.7281,7.6959,7.6166,7.5792,7.5241,7.4434,7.4067,7.3883,7.3883,7.3144,7.258,7.2173,7.1055,7.0309,6.991,7.0014,7.0084,7.0094,7.0542,7.0611,5.1852,0.0,0.0,5.4868,5.7453,5.9553,5.962,6.1159,6.2533,6.2253,6.3012,6.4002,6.5012,6.6774,6.8917,7.1554,7.3528,7.5315,7.6961,7.8022,7.8653,7.8775,7.8809,7.9025,7.9532,7.9972,8.0209,8.0209,8.0209,8.0209,8.0209,8.0209,8.0297,8.0498,8.0309,8.0297,8.0498,8.0498,8.0498,8.0498,8.0697,8.0783,8.0783,8.1074,8.1349,8.1605,8.1787,8.1871,8.1871,8.1665,8.1596,8.1608,8.1874,8.1876,8.175,8.2223,8.2155,8.181,8.181,8.181,8.181,8.181,8.181,8.1695,8.1109,8.135,8.1569,8.0465,8.0523,8.0798,8.0281,8.0143,8.0143,8.0143,8.0143,8.0074,7.9867,7.9798,7.9178,7.7143,7.6729,7.6143,7.4268,7.4585,7.5295,7.5881,7.7107,7.7627,7.6562,7.6922,7.7281,7.7281,7.7281,7.7069,7.6489,7.624,7.5828,7.5278,7.5014,7.4903,7.4903,7.4193,7.3557,7.3003,7.2202,7.1562,7.1036,7.1577,7.1819,7.1853,7.2209,7.2485,0.0,0.0,5.4813,5.719,5.9379,6.1107,6.1762,6.2511,6.3012,6.2729,6.4027,6.5178,6.4953,6.8915,7.1938,7.1082,7.4841,7.7887,7.7954,7.924,7.96,7.8191,7.8022,7.8056,0.0,7.9375,8.0209,8.0209,8.0209,8.0209,8.0209,8.0209,8.0209,8.0221,8.0209,8.0209,8.0221,8.0221,8.0221,8.0221,8.0234,8.0234,8.028,8.1223,8.1839,8.2076,8.2089,8.2089,8.202,8.1337,8.1029,8.1122,8.2098,8.2058,8.1601,8.33,8.304,8.181,8.181,8.181,8.181,8.181,8.181,8.181,8.1776,8.1776,8.1776,8.1741,8.1741,8.1776,8.1741,8.1741,8.1741,8.1741,8.1741,8.1523,8.073,8.0592,8.0109,7.8626,7.8327,7.8074,7.7201,7.7789,7.8353,7.8382,7.9147,7.9147,7.7472,7.7281,7.7281,7.7281,7.7281,7.7281,7.7281,7.6562,7.6093,7.6056,7.5315,7.4903,7.4903,7.4193,7.3801,7.3761,7.2994,7.2599,7.2623,7.2657,7.2657,7.2657,7.1888,7.1957,0.0,0.0,5.6512,5.7731,6.0108,6.2028,6.1616,6.2943,6.3896,6.2676,6.2548,6.2948,6.3988,6.5648,6.7789,7.0687,7.4156,7.6838,7.7853,7.8855,7.9092,7.8124,7.8416,0.0,0.0,0.0,0.0,8.0141,8.0209,8.0209,8.0209,8.0209,8.0412,8.0898,8.0932,8.1156,8.165,8.1663,8.1663,8.1663,8.1663,8.1663,8.1663,8.2203,8.2484,8.2551,8.2228,8.2098,8.2064,8.1825,8.1722,8.1803,8.2651,8.2825,8.2667,8.3267,8.3155,8.269,8.2575,8.2523,8.243,8.1746,8.1978,8.2395,8.1746,8.1989,8.2523,8.2523,8.2523,8.2523,8.2523,8.219,8.181,8.181,8.181,8.1741,8.1454,8.1385,8.0936,7.9419,7.9143,7.8729,7.7408,7.7444,7.7845,7.8397,7.9248,7.9404,7.8295,7.8177,7.7957,7.7355,7.7281,7.7281,7.7281,7.7069,7.6885,7.6885,7.6628,7.6474,7.6474,7.5278,7.461,7.4609,7.3346,7.2697,7.2692,7.3209,7.3416,7.3451,7.366,7.3901,0.0,5.6187,5.7509,5.9288,6.0985,6.2164,6.2043,6.2993,6.3579,6.2355,6.1965,6.2021,6.2814,6.3848,6.5879,6.9815,7.2965,7.5654,7.7718,7.8619,7.8708,7.7751,7.8044,0.0,0.0,0.0,0.0,8.0073,8.0445,8.0593,8.0593,8.0851,8.119,8.1676,8.1697,8.19,8.2395,8.2395,8.2395,8.2395,8.2395,8.2395,8.2408,8.2847,8.3039,8.3039,8.2722,8.2594,8.2594,8.2322,8.2219,8.2287,8.3126,8.3287,8.3129,8.3777,8.3678,8.3195,8.3161,8.3148,8.3067,8.2513,8.2769,8.3188,8.2537,8.2769,8.3281,8.3281,8.3281,8.3281,8.3281,8.2937,8.2592,8.2592,8.2385,8.219,8.219,8.1983,8.15,8.0523,8.0316,8.0005,7.9005,7.9131,7.9533,8.013,8.0955,8.0909,7.9258,7.9037,7.8699,7.7847,7.7766,7.7656,7.7318,7.7582,7.7619,7.7318,7.7328,7.7193,7.6937,7.5406,7.4728,7.5002,7.3729,7.3233,7.3498,7.3947,7.4188,7.4188,7.4419,7.4522,5.6458,5.7129,5.7935,6.1632,6.1902,6.1614,6.289,6.2713,6.2186,6.1834,6.2093,6.2169,0.0,0.0,6.6151,6.8456,7.1483,7.4592,7.7582,7.8686,7.8606,0.0,0.0,0.0,0.0,0.0,0.0,8.0209,0.0,8.1304,8.1304,8.2002,8.2428,8.2462,8.2462,8.2462,8.2496,8.2496,8.2496,8.2496,8.2496,8.2496,8.253,8.3253,8.3558,8.3558,8.3524,8.349,8.3456,8.2733,8.2462,8.2556,8.3561,8.3495,8.3113,8.4826,8.4541,8.329,8.3591,8.3656,8.3671,8.3871,8.3979,8.3991,8.3945,8.4003,8.405,8.405,8.4062,8.4075,8.4075,8.404,8.4006,8.4006,8.3454,8.2971,8.2971,8.2397,8.1845,8.1845,8.1845,8.181,8.181,8.257,8.3204,8.3279,8.404,8.3466,8.0322,7.9926,7.9588,7.8744,7.8662,7.8332,7.7509,7.8185,7.8295,7.7472,7.7437,7.7117,7.6339,7.4776,7.4291,7.5053,7.425,7.4154,7.4845,7.4845,7.4845,7.4822,7.4154,7.3854,5.6346,5.8013,5.9297,6.0291,6.0739,6.102,6.1361,6.1689,6.1766,6.1184,5.9582,5.8772,0.0,0.0,0.0,6.7236,7.1361,0.0,7.762,7.9092,0.0,0.0,0.0,7.9735,7.864,7.9714,0.0,0.0,8.1494,8.1304,8.1304,8.2002,8.2631,8.3186,8.3219,8.349,8.4039,8.4039,8.4039,8.4039,8.4039,8.4039,8.4052,8.4221,8.4323,8.4289,8.3727,8.349,8.349,8.3287,8.3219,8.3287,8.4097,8.4314,8.4192,8.4677,8.4589,8.4289,8.4603,8.4447,8.4006,8.332,8.3614,8.4082,8.3346,8.3812,8.4595,8.4595,8.4732,8.488,8.488,8.4454,8.4006,8.4006,8.3868,8.373,8.373,8.3143,8.2626,8.2626,8.219,8.181,8.181,8.2528,8.3164,8.321,8.3982,8.3816,8.1827,8.1607,8.1056,7.9625,7.9478,7.9404,7.9184,7.9368,7.9404,7.9184,7.8557,7.8141,7.7915,7.6391,7.5605,7.5805,7.4483,7.3888,7.4085,7.4085,7.4085,7.4095,7.4453,7.4615,5.784,5.9294,6.0415,6.0275,6.0517,6.064,6.0068,6.0006,5.9747,5.878,5.6986,0.0,0.0,0.0,0.0,0.0,0.0,0.0,7.8004,7.9464,8.0006,0.0,8.0526,0.0,8.0141,8.1122,8.1968,0.0,8.2035,8.1913,8.2251,8.297,8.3545,8.395,8.3984,8.4187,8.4614,8.4614,8.4614,8.4614,8.4614,8.4614,8.4614,8.4614,8.4614,8.458,0.0,8.3984,8.3984,8.3984,8.3984,8.4018,8.4444,8.4614,8.4647,8.4999,8.5148,8.5161,8.5348,8.5413,8.5273,8.4309,8.4438,8.4903,8.434,8.4702,8.5285,8.5285,8.531,8.5348,8.5474,8.5155,8.487,8.4981,8.4764,8.4535,8.4535,8.3937,8.3385,8.3385,8.2799,8.2293,8.2293,8.2742,8.3245,8.3646,8.4469,8.4737,8.3893,8.3177,8.226,8.0983,8.0542,8.0175,7.9816,8.0102,8.0003,7.9291,7.8804,7.8224,7.7497,7.6238,7.5579,7.5579,7.4711,7.4281,7.4281,7.4636,7.4809,7.4843,7.5591,7.5914,5.9989,6.0677,6.1301,6.1008,6.0948,6.0547,5.9113,5.8294,5.7371,5.5864,0.0,0.0,5.4838,0.0,6.0025,6.4857,0.0,7.3792,7.8569,7.9803,8.0513,8.1338,8.1541,8.1575,8.1575,8.2171,8.2598,8.2665,8.2598,8.2847,8.3456,8.4187,8.4647,8.4762,8.4647,8.4715,8.4884,8.4715,8.4647,8.4762,8.4647,8.4614,8.4614,8.4715,8.4681,8.4614,0.0,0.0,8.4614,8.4614,8.4614,8.4614,8.4715,8.4762,8.4864,8.5655,8.5939,8.5939,8.5939,8.6366,8.6738,8.5855,8.5771,8.6046,8.6046,8.6071,8.611,8.611,8.5943,8.584,8.6136,8.6178,8.6242,8.6542,8.6122,8.5604,8.5535,8.4799,8.4144,8.4006,8.3488,8.304,8.304,8.3149,8.3525,8.4409,8.5173,8.5752,8.5937,8.4646,8.3353,8.2443,8.1819,8.1122,8.022,8.0849,8.0639,7.9073,7.8919,7.8237,7.6784,7.593,7.5466,7.5373,7.5259,7.5156,7.5052,7.5856,7.6246,7.6281,7.7097,7.7511,6.0883,6.1376,6.1706,6.1633,6.1625,6.1132,5.9236,5.8294,0.0,0.0,0.0,5.2992,5.5897,5.6349,0.0,6.6566,0.0,0.0,0.0,0.0,8.0682,0.0,0.0,0.0,0.0,0.0,0.0,0.0,0.0,8.3355,8.349,8.4187,8.4898,8.5554,8.4931,8.5222,8.6487,8.5222,8.4931,8.5601,8.4931,8.4614,8.4614,8.5283,8.5215,8.4647,8.5317,0.0,8.4614,8.4614,8.4614,8.4661,8.5317,8.5587,8.5702,8.6433,8.669,8.669,8.669,8.6792,8.6785,8.6013,8.6169,8.6718,8.6718,8.688,8.7046,8.7046,8.7166,8.7399,8.7653,8.7731,8.7796,8.8127,8.8088,8.7846,8.7144,8.5949,8.4811,8.4144,8.3902,8.3799,8.3799,8.3841,8.4193,8.5173,8.5452,8.5831,8.6693,8.5967,8.4829,8.3353,8.3646,8.3398,8.1901,8.2464,8.2477,8.1527,8.0768,8.0201,7.9901,7.9122,7.8419,7.7798,7.7132,7.6511,7.5891,7.6649,7.6994,7.7028,7.8454,7.9109,6.2223,6.299,6.3684,6.258,6.2472,6.1662,5.8017,0.0,0.0,0.0,0.0,5.082,5.3182,0.0,0.0,0.0,0.0,0.0,0.0,0.0,0.0,0.0,0.0,0.0,0.0,0.0,0.0,0.0,0.0,8.4505,8.4086,8.4796,8.5384,8.577,8.5418,8.5587,8.6332,8.5168,8.4783,8.5168,8.4796,8.483,8.5249,8.5635,8.579,8.5811,8.6196,0.0,8.5811,8.5811,8.5811,8.5845,8.623,8.6366,8.6467,8.7211,8.7482,8.7482,8.7482,8.7719,8.7922,8.7177,8.7016,8.7091,8.7091,8.7199,8.7307,8.7307,8.728,8.7334,8.7629,8.778,8.7965,8.8273,8.8468,8.8501,8.8122,8.7156,8.6213,8.5833,8.5144,8.4626,8.4626,8.4281,8.4339,8.5248,8.5386,8.5907,8.7327,8.7176,8.6354,8.4824,8.4609,8.3944,8.2297,8.2467,8.1974,8.0318,8.0173,7.9767,7.8904,7.8899,7.8764,7.843,7.8005,7.7833,7.7867,7.8615,7.8959,7.8994,8.0557,8.1281,6.402,6.4786,6.5409,6.3789,6.3418,6.2154,5.7083,5.5548,0.0,0.0,0.0,4.9553,5.1101,0.0,0.0,0.0,0.0,0.0,0.0,0.0,0.0,0.0,0.0,0.0,0.0,0.0,0.0,0.0,0.0,0.0,8.5121,8.5689,8.6108,8.6278,8.6108,8.6108,8.6278,8.5473,8.5087,8.5087,8.5087,8.5405,8.6041,8.621,8.6501,8.6893,8.7062,0.0,0.0,8.6893,8.6893,8.6927,8.7062,8.713,8.7231,8.7955,8.8226,8.8226,8.8226,8.8612,8.8984,8.8409,8.7986,8.7688,8.7688,8.7688,8.7688,8.7688,8.7525,8.7435,8.7702,8.7945,8.8166,8.8497,8.8656,8.8782,8.8834,8.8226,8.7661,8.7661,8.6708,8.5915,8.5915,8.5397,8.5175,8.5717,8.5796,8.6352,8.7818,8.7841,8.7435,8.6634,8.5674,8.4356,8.2505,8.231,8.1412,7.935,7.9764,7.9504,7.8235,7.8798,7.9109,7.9109,7.9109,7.9419,8.0005,8.073,8.1097,8.1143,8.2488,8.3143,6.6607,6.6367,6.5495,6.5288,6.4483,6.2514,5.7765,0.0,0.0,0.0,5.0264,5.1305,5.3258,0.0,0.0,0.0,0.0,0.0,0.0,0.0,0.0,0.0,0.0,0.0,0.0,0.0,0.0,0.0,0.0,0.0,8.669,8.6758,8.711,8.7786,8.7144,8.711,8.7786,8.7062,8.669,8.669,8.669,8.6724,8.6825,8.7482,8.7482,8.6927,8.7617,0.0,0.0,8.6893,8.6893,8.6961,8.7651,8.7888,8.7989,8.8748,8.8984,8.8984,8.8984,8.9052,8.9086,8.9018,8.8965,8.8925,8.8925,8.8925,8.8925,8.8925,8.8911,8.8953,8.9217,8.9313,8.9478,9.0034,8.9714,8.9291,8.9553,8.9019,8.8501,8.8501,8.8364,8.8295,8.8295,8.8226,8.798,8.7456,8.7387,8.7521,8.7952,8.731,8.739,8.8909,8.765,8.5731,8.3401,8.3081,8.2611,8.1655,8.1585,8.1514,8.1397,8.1466,8.15,8.15,8.15,8.1535,8.1603,8.2328,8.2695,8.2695,8.3523,8.3902,6.8409,6.9283,6.9145,6.8246,6.7713,6.5776,5.9543,0.0,0.0,5.1602,5.1079,5.1806,5.2597,5.3753,0.0,0.0,0.0,0.0,0.0,0.0,0.0,0.0,0.0,0.0,0.0,0.0,0.0,0.0,0.0,0.0,8.8192,8.7786,8.7685,8.7989,8.7719,8.7719,8.7989,8.7279,8.6893,8.6893,8.6893,8.713,8.7583,8.7854,8.8091,8.8226,8.8545,0.0,0.0,8.8226,8.8226,8.826,8.8545,8.8646,8.8714,8.8984,8.939,8.9748,8.9748,9.0053,9.0439,9.0439,9.0439,9.027,8.9357,8.9424,8.9748,8.9748,9.0087,9.0366,9.0025,8.9877,8.9908,9.0315,9.0301,9.0219,9.0338,8.9778,8.926,8.926,8.8915,8.8605,8.8605,8.8605,8.8504,8.8249,8.8207,8.8267,8.8473,8.8175,8.8097,8.8462,8.7488,8.6208,8.4802,8.4134,8.3197,8.1933,8.2219,8.2259,8.181,8.2224,8.2454,8.2454,8.2454,8.2661,8.3109,8.3419,8.3557,8.3592,8.435,8.4742,7.012,7.1313,7.1277,7.0794,6.9373,6.6663,0.0,0.0,5.7878,5.2662,5.2151,5.2639,5.2639,5.352,5.4622,0.0,0.0,6.1468,0.0,0.0,0.0,0.0,0.0,0.0,0.0,0.0,0.0,0.0,0.0,0.0,8.9052,8.8612,8.8342,8.8342,8.8342,8.8226,8.7989,8.7719,8.7434,8.7231,8.7448,8.782,8.8342,8.8342,8.8612,8.9086,0.0,0.0,0.0,8.9086,8.9086,8.912,8.9357,8.9424,8.9458,8.9661,9.0101,9.0527,9.0527,9.0865,9.1305,9.1305,9.1305,9.1102,9.0067,9.0121,9.0527,9.0527,9.0899,9.1169,9.0662,9.0465,9.044,9.057,9.0744,9.0876,9.0807,9.0385,9.0019,9.0019,8.9605,8.926,8.926,8.926,8.9191,8.895,8.8915,8.8987,8.915,8.8913,8.8697,8.8587,8.7588,8.6517,8.5589,8.4666,8.3659,8.2502,8.2937,8.2971,8.2454,8.2937,8.335,8.3569,8.3569,8.3937,8.4661,8.4661,8.4661,8.4695,8.5501,8.5984,7.1816,7.1877,7.0674,7.2497,6.8527,6.3741,0.0,6.0074,5.75,5.3918,5.3708,5.4164,5.4164,5.4079,5.4792,5.7285,5.9577,0.0,0.0,0.0,0.0,0.0,0.0,0.0,0.0,0.0,0.0,0.0,0.0,0.0,8.9086,8.9086,8.9086,8.9086,8.9086,8.8748,8.7989,8.8714,8.8714,8.7989,8.8748,8.9086,8.9086,8.9086,8.9086,0.0,0.0,0.0,0.0,8.9086,8.9086,8.9154,8.9918,9.0174,9.0275,9.1,9.1271,9.1271,9.1271,9.1271,9.1305,9.1305,9.1305,9.1305,9.1271,9.1271,9.1271,9.1271,9.1271,9.1305,9.1271,9.1285,9.1239,9.1116,9.1083,9.1043,9.0853,9.0799,9.0799,9.0799,9.0765,9.0765,9.0765,9.0765,9.0536,8.9812,8.9674,8.9749,8.9956,8.9172,8.9008,9.0065,8.8505,8.682,8.5423,8.4491,8.3983,8.3971,8.3971,8.4006,8.3971,8.3971,8.435,8.5156,8.519,8.5535,8.6294,8.6294,8.6294,8.6282,8.704,8.7799,6.7719,6.8337,6.7836,6.8243,6.6321,6.3593,6.0923,5.9892,5.8449,5.4643,5.3964,5.4072,5.4072,5.4513,5.5979,5.9294,6.1461,0.0,0.0,0.0,0.0,0.0,0.0,0.0,0.0,0.0,0.0,0.0,0.0,0.0,8.9086,8.9086,8.9086,8.9086,8.9086,8.8984,8.8748,8.8984,8.8984,8.8748,8.8984,8.9086,8.9086,8.9086,8.9086,0.0,0.0,0.0,0.0,8.985,9.0154,9.0642,9.0865,9.0966,9.0966,9.1203,9.1609,9.2034,9.2034,9.2421,9.2875,9.2875,9.2875,9.2875,9.2875,9.2489,9.217,9.274,9.2489,9.2034,9.2034,9.1869,9.1642,9.1602,9.1716,9.1884,9.2055,9.2102,9.217,9.2324,9.2364,9.2364,9.2364,9.195,9.1537,9.1295,9.0812,9.0309,8.9848,8.9536,8.9276,8.9107,8.8562,8.7882,8.7001,8.6089,8.5557,8.5557,8.604,8.6316,8.6316,8.6846,8.726,8.7501,8.7501,8.7639,8.7881,8.7881,8.7881,8.7881,8.8122,8.8053,0.0,6.6429,6.6234,6.7079,6.5138,6.2588,6.0938,5.9621,5.7939,5.5182,5.4302,5.42,5.4871,5.4902,5.5977,5.9549,6.2224,0.0,0.0,0.0,0.0,0.0,0.0,0.0,0.0,0.0,0.0,0.0,0.0,0.0,8.9086,8.9086,8.9086,8.9086,8.9086,8.9086,8.9086,8.9086,8.9086,8.9086,8.9086,8.9086,8.912,8.939,8.9526,0.0,0.0,0.0,0.0,9.0628,9.0899,9.1338,9.1609,9.1711,9.1744,9.2063,9.2455,9.2846,9.2846,9.3165,9.3586,9.3586,9.3789,9.4026,9.4026,9.347,9.2962,9.3451,9.3233,9.2846,9.2846,9.2668,9.2448,9.2243,9.2331,9.2474,9.2508,9.2509,9.2605,9.2906,9.2961,9.2967,9.3075,9.2709,9.2399,9.2399,9.1985,9.1399,9.0674,9.0571,9.0157,8.9122,8.9019,8.8735,8.8109,8.7498,8.7156,8.7156,8.7605,8.7833,8.7833,8.8329,8.8605,8.8605,8.8605,8.8605,8.8605,8.8605,8.8605,8.8605,8.8881,8.8605,0.0,6.5341,6.5183,6.7671,6.4294,6.0625,6.1731,5.9138,0.0,5.5539,5.4643,5.4496,5.6103,5.5159,5.5201,5.8605,0.0,0.0,0.0,0.0,0.0,0.0,0.0,0.0,0.0,0.0,0.0,0.0,0.0,0.0,8.9086,8.9086,8.9086,8.9086,8.9086,8.9086,8.9086,8.9086,8.9086,8.9086,8.9154,8.9187,8.9187,8.9951,0.0,0.0,0.0,0.0,0.0,9.1372,9.1406,9.1541,9.2203,9.2508,9.2575,9.3315,9.3586,9.3586,9.3586,9.3586,9.362,9.3654,9.418,9.4774,9.4774,9.4282,9.3755,9.3755,9.3721,9.3687,9.3687,9.3654,9.349,9.304,9.2942,9.2844,9.2426,9.2312,9.2423,9.2804,9.2873,9.2921,9.3221,9.3227,9.3192,9.3192,9.3123,9.2847,9.2171,9.2102,9.1502,9.0019,8.9881,8.9571,8.8881,8.8674,8.8605,8.8605,8.8639,8.8674,8.8674,8.8743,8.8743,8.8743,8.8743,8.8743,8.8743,8.8743,8.8743,8.8777,8.9536,8.9433,5.8651,0.0,5.9621,6.0353,5.8541,5.7137,0.0,5.7588,5.5718,0.0,0.0,0.0,0.0,0.0,0.0,0.0,0.0,0.0,0.0,0.0,0.0,0.0,0.0,0.0,0.0,0.0,0.0,0.0,0.0,8.9681,8.912,8.9086,8.9086,8.9086,8.9086,8.9086,8.9086,8.9086,8.9086,8.912,8.9681,8.9951,8.9985,9.0696,0.0,0.0,0.0,0.0,9.2136,9.2136,9.2522,9.3078,9.3248,9.3315,9.3349,9.3518,9.3586,9.3586,9.3586,9.3586,9.3687,9.4248,9.4958,9.5533,9.5533,9.5432,9.5278,9.5278,9.489,9.4451,9.4451,9.4011,9.3567,9.3471,9.3452,9.3472,9.3558,9.3581,9.3754,9.4272,9.4384,9.4467,9.4806,9.4378,9.4034,9.4034,9.3503,9.3054,9.2847,9.2847,9.2502,9.1571,9.1468,9.1399,9.1226,8.9605,8.8605,8.8605,8.9122,8.9433,8.9433,8.9985,9.0282,9.0282,9.0282,9.0282,9.0282,9.0282,9.0282,9.0282,9.1088,9.0743,5.662,5.7415,5.8289,5.827,5.7614,5.7208,5.8064,0.0,0.0,0.0,0.0,0.0,0.0,0.0,0.0,0.0,0.0,0.0,0.0,0.0,0.0,0.0,0.0,0.0,0.0,0.0,0.0,0.0,0.0,8.9512,8.912,8.9086,8.9086,8.9086,8.9086,8.8951,8.8612,8.8917,8.8917,8.8612,8.9681,9.0208,9.0242,9.129,9.1798,0.0,0.0,0.0,9.2962,9.2962,9.3402,9.4079,9.3721,9.3992,9.4567,9.4214,9.4315,9.4601,9.4601,9.4601,9.4669,9.506,9.5702,9.6293,9.6293,9.6548,9.6683,9.5973,9.5499,9.5195,9.5195,9.489,9.4601,9.4601,9.4349,9.4224,9.4726,9.4295,9.4136,9.5282,9.5053,9.4909,9.5548,9.5213,9.4792,9.4792,9.4447,9.4034,9.3675,9.3641,9.3378,9.2571,9.2502,9.2502,9.2502,9.1364,9.0674,9.0674,9.1054,9.1261,9.1261,9.164,9.1847,9.1847,9.1847,9.1847,9.1847,9.1847,9.1675,9.1364,9.2123,9.1675,5.6343,5.7523,5.8705,5.8558,5.8533,5.8352,5.7569,0.0,0.0,0.0,0.0,0.0,0.0,0.0,0.0,0.0,0.0,0.0,0.0,0.0,0.0,0.0,0.0,0.0,0.0,0.0,0.0,0.0,0.0,8.9221,8.912,8.9086,8.9086,8.9086,8.9086,8.8748,8.7989,8.8748,8.8781,8.8158,8.9545,9.0242,9.0411,9.1798,9.2474,9.2609,0.0,0.0,9.3586,9.3586,9.4011,9.4639,9.4011,9.4601,9.5702,9.5093,9.5263,9.5804,9.5804,9.5872,9.5988,9.5988,9.6462,9.7071,9.7071,9.7495,9.7717,9.648,9.6041,9.5988,9.5988,9.5872,9.5804,9.5804,9.533,9.506,9.5669,9.4838,9.4385,9.5922,9.5463,9.5132,9.6035,9.5948,9.5758,9.5758,9.5758,9.5482,9.4723,9.462,9.4309,9.3365,9.3261,9.3261,9.3261,9.3261,9.333,9.3434,9.3227,9.3089,9.3089,9.3089,9.3089,9.3089,9.3089,9.3089,9.3089,9.3089,9.2778,9.2205,9.2916,9.2502,5.5283,5.6422,5.7666,5.7754,5.7118,5.6637,0.0,0.0,0.0,0.0,0.0,0.0,0.0,0.0,0.0,0.0,0.0,0.0,0.0,0.0,0.0,0.0,0.0,0.0,0.0,0.0,0.0,0.0,0.0,8.9748,8.912,8.9086,8.9086,8.9086,8.9086,8.8748,8.7989,8.8748,8.9052,8.8951,8.9782,9.0527,9.1169,9.2,9.2778,9.3417,0.0,9.3586,9.3586,9.3586,9.4011,9.4673,9.4586,9.506,9.577,9.5669,9.5702,9.5804,9.5804,9.6225,9.6732,9.6732,9.7225,9.7834,9.7834,9.7901,9.7953,9.7732,9.7191,9.6732,9.6732,9.6259,9.5804,9.5804,9.5702,9.5669,9.577,9.5601,9.5589,9.6092,9.6281,9.65,9.6941,9.7202,9.7345,9.7345,9.7345,9.7069,9.6262,9.6158,9.5655,9.4275,9.4103,9.4103,9.4103,9.4103,9.4378,9.4999,9.3813,9.3089,9.3089,9.3089,9.3089,9.3089,9.3089,9.3089,9.3089,9.3089,9.3054,9.2951,9.3758,9.362,5.4474,5.5545,5.7021,5.8557,5.8126,5.7266,0.0,0.0,0.0,0.0,0.0,0.0,0.0,0.0,0.0,0.0,0.0,0.0,0.0,0.0,0.0,0.0,0.0,0.0,0.0,0.0,0.0,0.0,0.0,0.0,8.9681,8.9323,8.9289,8.9681,8.9323,8.8951,8.8612,8.8917,8.8883,8.8511,8.9647,9.0594,9.1338,9.2522,9.3233,9.362,0.0,9.418,9.418,9.418,9.4857,9.5838,9.5466,9.5973,9.6988,9.6988,9.6988,9.6988,9.6988,9.7225,9.7495,9.7495,9.7732,9.7987,9.7987,9.8273,9.851,9.8104,9.7766,9.7495,9.7495,9.7225,9.6988,9.6988,9.6683,9.6496,9.6886,9.6345,9.6086,9.7001,9.6438,9.6184,9.7345,9.6773,9.6369,9.6972,9.6724,9.631,9.5965,9.5917,9.5655,9.4965,9.4551,9.4447,9.4861,9.4137,9.4172,9.5344,9.4723,9.433,9.433,9.433,9.433,9.433,9.433,9.433,9.433,9.433,9.433,9.4344,9.4723,9.4482,5.4125,5.492,5.6267,5.8711,0.0,0.0,0.0,0.0,0.0,0.0,0.0,0.0,0.0,0.0,0.0,0.0,0.0,0.0,0.0,0.0,0.0,0.0,0.0,0.0,0.0,0.0,0.0,0.0,0.0,0.0,8.9918,8.9424,8.9357,8.9918,8.939,8.9086,8.9086,8.9086,8.8815,8.826,8.941,9.0324,9.1102,9.2435,9.3078,9.3112,9.4045,9.4349,9.4165,9.4368,9.5296,9.6597,9.6007,9.6683,9.7987,9.7987,9.7987,9.7987,9.7987,9.7987,9.7987,9.7987,9.7987,9.8021,9.8206,9.8645,9.9018,9.8645,9.8528,9.8461,9.8307,9.8273,9.8273,9.8273,9.7698,9.7308,9.7867,9.7123,9.665,9.78,9.6873,9.6289,9.7499,9.6582,9.5965,9.6811,9.6358,9.5931,9.5931,9.5758,9.5586,9.5413,9.4896,9.4792,9.5344,9.433,9.4123,9.5344,9.5068,9.4965,9.5137,9.5137,9.5206,9.5413,9.5413,9.5413,9.5413,9.5413,9.5413,9.5413,9.5413,9.5103,5.4461,5.4707,5.515,5.6666,0.0,0.0,0.0,0.0,0.0,0.0,0.0,0.0,0.0,0.0,0.0,0.0,0.0,0.0,0.0,0.0,0.0,0.0,0.0,0.0,0.0,0.0,0.0,0.0,0.0,0.0,8.9187,8.912,8.912,8.9187,8.912,8.9086,8.9086,8.9086,8.9052,8.9018,8.912,8.956,9.0309,9.1102,9.1488,9.1541,9.3045,9.3267,9.2609,9.3368,9.4567,9.5872,9.5804,9.6683,9.7987,9.7987,9.7987,9.7987,9.7987,9.7987,9.7987,9.7987,9.7987,9.8138,9.8815,9.9051,9.9221,9.9848,10.0001,9.9881,9.9187,9.9018,9.9018,9.9018,9.8476,9.7935,9.8003,9.7935,9.7867,9.7987,9.8128,9.8066,9.7503,9.777,9.8077,9.816,9.7815,9.7518,9.7518,9.6897,9.6172,9.5482,9.5344,9.5344,9.5413,9.531,9.5275,9.5379,9.4054,9.362,9.4344,9.4378,9.4689,9.5379,9.5413,9.5413,9.5413,9.5413,9.5413,9.5413,9.5413,9.5379,5.3906,5.4387,5.5537,5.9039,0.0,0.0,0.0,0.0,0.0,0.0,0.0,0.0,0.0,0.0,0.0,0.0,0.0,0.0,0.0,0.0,0.0,0.0,0.0,0.0,0.0,0.0,0.0,0.0,0.0,0.0,8.9748,8.9357,8.9323,8.9782,8.9357,8.9086,8.9086,8.9545,8.9782,8.9782,8.9782,9.0425,9.1595,9.2353,9.274,9.2774,9.3842,9.4112,9.3861,9.4146,9.5127,9.6529,9.6988,9.7529,9.7987,9.7987,9.7987,9.7987,9.7987,9.8307,9.8612,9.8172,9.863,9.934,9.9153,9.9778,10.0488,10.0303,10.0896,10.1302,10.0084,9.978,9.978,9.978,9.9221,9.8679,9.8679,9.8341,9.8138,9.8612,9.8415,9.8317,9.8685,9.8213,9.7863,9.8245,9.7801,9.7463,9.7662,9.7,9.64,9.6089,9.5689,9.4999,9.4054,9.4447,9.4516,9.3985,9.433,9.4689,9.4965,9.4965,9.5103,9.5379,9.5413,9.5413,9.5413,9.5413,9.5413,9.5413,9.5413,9.5137,5.3568,5.4029,5.526,0.0,0.0,0.0,0.0,0.0,0.0,0.0,0.0,0.0,0.0,0.0,0.0,0.0,0.0,0.0,0.0,0.0,0.0,0.0,0.0,0.0,0.0,0.0,0.0,0.0,0.0,0.0,0.0,8.9357,8.9323,8.985,8.9579,8.9458,8.9458,9.0188,9.0648,9.0884,9.0884,9.129,9.2068,9.2861,9.3098,9.2943,9.3909,9.4199,9.3996,9.4248,9.5229,9.6665,9.7631,9.7987,9.7987,9.7987,9.7987,9.7987,9.7987,9.8341,9.8679,9.8172,9.8664,9.9509,9.9457,10.0202,10.1014,10.088,10.1708,10.2299,10.1201,10.0811,10.0608,10.0608,9.9999,9.9457,9.9457,9.9051,9.8833,9.9356,9.9036,9.8843,9.938,9.8485,9.788,9.8293,9.7706,9.7316,9.7686,9.6926,9.6274,9.6018,9.562,9.4951,9.3916,9.4344,9.4413,9.3847,9.4827,9.531,9.5068,9.5068,9.5172,9.5413,9.5413,9.5413,9.5413,9.5413,9.5413,9.5413,9.5413,9.5137,5.3691,5.3722,0.0,0.0,0.0,0.0,0.0,0.0,0.0,0.0,0.0,0.0,0.0,0.0,0.0,0.0,0.0,0.0,0.0,0.0,0.0,0.0,0.0,0.0,0.0,0.0,0.0,0.0,0.0,0.0,0.0,8.912,8.912,8.912,8.9816,9.0208,9.0208,9.0932,9.1677,9.2392,9.2406,9.2034,9.1338,9.2068,9.2,9.1406,9.2943,9.3131,9.2459,9.3267,9.4499,9.5939,9.7428,9.8003,9.8003,9.8003,9.7987,9.8003,9.8003,9.8021,9.8021,9.7987,9.8021,9.8292,9.9746,10.022,10.0508,10.2096,10.2486,10.2486,10.2486,10.2011,10.1402,10.1402,10.0811,10.0204,10.0204,10.022,10.022,10.022,10.0204,9.9983,9.9254,9.8807,9.853,9.8542,9.7804,9.7349,9.7745,9.6826,9.5805,9.5002,9.5199,9.54,9.5413,9.5413,9.5413,9.5413,9.5413,9.5068,9.4344,9.4309,9.4654,9.5379,9.5413,9.5413,9.5413,9.5413,9.5413,9.5413,9.5413,9.5413,5.3691,0.0,0.0,0.0,0.0,0.0,0.0,0.0,0.0,0.0,0.0,0.0,0.0,0.0,0.0,0.0,0.0,0.0,0.0,0.0,0.0,0.0,0.0,0.0,0.0,0.0,0.0,0.0,0.0,0.0,0.0,9.0154,9.0121,9.0628,9.0357,9.0445,9.0966,9.1696,9.217,9.2406,9.2962,9.3146,9.2943,9.3131,9.3098,9.2943,9.3383,9.3451,9.33,9.4079,9.4924,9.592,9.6853,9.724,9.7341,9.8375,9.812,9.736,9.8409,9.8781,9.8679,9.8172,9.8698,9.9543,9.9457,10.0202,10.1115,10.1605,10.2096,10.2486,10.2486,10.2283,10.2198,10.2198,10.1589,10.1014,10.1014,10.0592,10.0405,10.0912,10.1014,10.0996,10.0808,10.0601,10.0388,10.0094,9.9836,9.9424,9.874,9.7409,9.6288,9.5735,9.5312,9.5143,9.54,9.5413,9.5413,9.5413,9.5185,9.5054,9.5055,9.5068,9.5172,9.5413,9.5413,9.5413,9.5413,9.5413,9.5413,9.5413,9.5413,9.5268,5.5191,0.0,0.0,0.0,0.0,0.0,0.0,0.0,0.0,0.0,0.0,0.0,0.0,0.0,0.0,0.0,0.0,0.0,0.0,0.0,0.0,0.0,0.0,0.0,0.0,0.0,0.0,0.0,0.0,0.0,0.0,9.0865,9.0831,9.1271,9.1155,9.129,9.173,9.2474,9.2895,9.2895,9.3383,9.3586,9.3586,9.3586,9.3586,9.3586,9.3586,9.3586,9.3654,9.4417,9.5127,9.5872,9.6597,9.7071,9.7428,9.8341,9.8104,9.7477,9.8341,9.8645,9.8578,9.8123,9.8596,9.9306,9.9153,9.9931,10.0996,10.13,10.1893,10.2486,10.2486,10.2486,10.2486,10.2486,10.2214,10.1792,10.1792,10.1487,10.1318,10.169,10.1792,10.1792,10.1792,10.1605,10.1296,10.1011,10.0516,9.964,9.8496,9.7553,9.6637,9.5753,9.5772,9.5642,9.5254,9.5585,9.5668,9.5247,9.4997,9.4961,9.5051,9.5129,9.5143,9.5051,9.5143,9.5143,9.5051,9.5051,9.5051,9.5051,9.5051,9.4919,0.0,0.0,0.0,0.0,0.0,0.0,0.0,0.0,0.0,0.0,0.0,0.0,0.0,0.0,0.0,0.0,0.0,0.0,0.0,0.0,0.0,0.0,0.0,0.0,0.0,0.0,0.0,0.0,0.0,0.0,0.0,9.144,9.144,9.1508,9.2102,9.244,9.2508,9.3233,9.3586,9.3586,9.3586,9.3586,9.3586,9.3586,9.3586,9.3586,9.3586,9.3586,9.3654,9.4315,9.506,9.5872,9.6597,9.7308,9.7935,9.8138,9.8055,9.7935,9.8055,9.807,9.7987,9.7987,9.7987,9.8138,9.8781,9.9543,10.0405,10.1097,10.1909,10.2486,10.2486,10.2486,10.2486,10.2486,10.2486,10.2502,10.2384,10.2384,10.2384,10.2502,10.2384,10.2283,10.2401,10.1808,10.13,10.13,10.0116,9.8788,9.7703,9.7428,9.6831,9.5467,9.6388,9.6529,9.5125,9.5934,9.608,9.505,9.5014,9.4913,9.4662,9.479,9.475,9.45,9.4736,9.475,9.4485,9.4485,9.452,9.4602,9.4602,9.4608,0.0,0.0,0.0,0.0,0.0,0.0,0.0,0.0,0.0,0.0,0.0,0.0,0.0,0.0,0.0,0.0,0.0,0.0,0.0,0.0,0.0,0.0,0.0,0.0,0.0,0.0,0.0,0.0,0.0,0.0,9.3078,9.2522,9.2455,9.3078,9.2643,9.2711,9.3349,9.3518,9.3586,0.0,9.3586,9.3586,9.3586,9.3586,9.3586,9.3586,9.3586,9.3586,9.362,9.3789,9.4601,9.5872,9.6597,9.7003,9.7341,9.907,9.8645,9.7308,9.8442,9.8476,9.7987,9.7987,9.7987,9.8021,9.8206,9.9171,10.0204,10.0389,10.1403,10.2486,10.2486,10.2486,10.2486,10.2486,10.2486,10.2283,10.1808,10.1589,10.1792,10.2401,10.1505,10.0896,10.1487,10.098,10.0506,10.0506,10.0186,9.9676,9.8856,9.7719,9.6964,9.6899,9.6591,9.6242,9.5809,9.6312,9.642,9.5803,9.5837,9.5886,9.5847,9.5043,9.4557,9.4485,9.4557,9.4557,9.4485,9.4485,9.4807,9.5354,9.5354,9.5516,0.0,0.0,0.0,0.0,0.0,0.0,0.0,0.0,0.0,0.0,0.0,0.0,0.0,0.0,0.0,0.0,0.0,0.0,0.0,0.0,0.0,0.0,0.0,0.0,0.0,0.0,0.0,0.0,0.0,9.3165,9.3586,9.3199,9.3165,9.3586,9.3199,9.3165,9.3586,9.3586,9.3586,9.3586,9.3586,9.3586,9.3586,9.3586,9.3586,9.3586,9.3586,9.3586,9.362,9.3992,9.4789,9.5872,9.6597,9.7105,9.7563,9.8731,9.8442,9.7529,9.8307,9.8341,9.7987,9.7987,9.7987,9.7987,9.7987,9.9036,10.022,10.022,10.1302,10.2486,10.2486,10.2486,10.2384,10.2112,10.2215,10.2401,10.1995,10.1589,10.1503,10.1893,10.0998,10.0305,10.0777,10.0506,10.0084,9.9712,9.966,9.9424,9.8679,9.7901,9.7369,9.7163,9.7247,9.698,9.6164,9.6794,9.6896,9.6125,9.6159,9.6145,9.601,9.5461,9.5108,9.5108,9.5239,9.5254,9.5108,9.5108,9.5312,9.5686,9.5686,9.5801,0.0,0.0,0.0,0.0,0.0,0.0,0.0,0.0,0.0,0.0,0.0,0.0,0.0,0.0,0.0,0.0,0.0,0.0,0.0,0.0,0.0,0.0,0.0,0.0,0.0,0.0,0.0,0.0,0.0,9.3586,9.3586,9.3586,9.3586,9.3586,9.3586,9.3586,9.3586,9.3451,9.3451,9.3586,9.3586,9.3518,9.3417,9.3552,9.3586,9.3586,9.3586,9.3687,9.3857,9.4451,9.5229,9.6056,9.68,9.7461,9.8021,9.8123,9.8104,9.7987,9.7987,9.7987,9.7987,9.7987,9.7987,9.7987,9.7987,9.8934,10.0001,10.0186,10.1201,10.2283,10.2502,10.2486,10.2283,10.169,10.2112,10.2384,10.2198,10.1487,10.098,10.1199,10.059,9.9983,9.9848,9.9915,9.9746,9.9018,9.9018,9.8815,9.8104,9.7987,9.7766,9.7172,9.7891,9.7888,9.6525,9.7297,9.7429,9.6472,9.648,9.6398,9.6191,9.6176,9.6176,9.6176,9.6146,9.6025,9.5804,9.5804,9.5872,9.5988,9.5988,9.6041,0.0,0.0,0.0,0.0,0.0,0.0,0.0,0.0,0.0,0.0,0.0,0.0,0.0,0.0,0.0,0.0,0.0,0.0,0.0,0.0,0.0,0.0,0.0,0.0,0.0,0.0,0.0,0.0,9.3586,9.3586,9.3586,9.3586,9.3586,9.3586,9.3586,9.3586,9.3586,9.2928,9.2914,9.3586,9.3586,9.3233,9.2575,9.3267,9.3586,9.3586,9.3586,9.3958,9.4552,9.4639,9.5499,9.6834,9.7563,9.7901,9.807,9.8713,9.8544,9.7987,9.7987,9.7987,9.7987,9.7987,9.7987,9.7987,9.7987,9.8578,9.939,10.0001,10.0894,10.1706,10.2283,10.2486,10.2502,10.2401,10.2384,10.2114,10.0795,9.9931,9.9593,10.022,9.9762,9.9051,9.8393,9.8815,9.8984,9.8273,9.8679,9.8815,9.8104,9.7987,9.7953,9.7867,9.7966,9.7833,9.7273,9.7687,9.7743,9.7254,9.7574,9.7729,9.7698,9.7732,9.7732,9.7732,9.6492,9.5849,9.5804,9.5804,9.6123,9.6732,9.6732,9.7105,6.2271,6.932,0.0,0.0,0.0,0.0,0.0,0.0,0.0,0.0,0.0,0.0,0.0,0.0,0.0,0.0,0.0,0.0,0.0,0.0,0.0,0.0,0.0,0.0,0.0,0.0,0.0,0.0,9.3823,9.3789,9.418,9.3823,9.3586,9.3586,9.3586,9.3586,9.3586,9.2778,9.2373,9.2334,9.318,9.3165,9.244,9.3233,9.3823,9.4214,9.4214,9.462,9.5364,9.577,9.6326,9.6969,9.7698,9.7987,9.8037,9.8375,9.8273,9.7987,9.7987,9.7987,9.7987,9.7987,9.7987,9.7987,9.7987,9.851,9.9153,9.9491,10.0488,10.1503,10.1808,10.2198,10.2486,10.2486,10.2198,10.169,10.1014,10.0608,10.0387,10.022,9.9949,9.9611,9.9273,9.9153,9.8984,9.8679,9.8544,9.8375,9.8037,9.7987,9.7987,9.7987,9.7987,9.7914,9.7762,9.7911,9.7914,9.7762,9.7911,9.7987,9.7987,9.7987,9.7987,9.7987,9.736,9.7022,9.7022,9.7022,9.7191,9.7529,9.7529,9.7698,0.0,0.0,7.3645,7.6739,0.0,0.0,0.0,0.0,0.0,0.0,0.0,0.0,0.0,0.0,0.0,0.0,0.0,0.0,0.0,0.0,0.0,0.0,0.0,0.0,0.0,0.0,0.0,0.0,9.418,9.4112,9.4673,9.3992,9.3586,9.3586,9.3586,9.3586,9.3586,9.2778,9.1933,9.1034,9.2368,9.2692,9.2136,9.2928,9.3808,9.4706,9.4706,9.5229,9.6108,9.6665,9.7003,9.724,9.78,9.7987,9.7987,9.7987,9.7987,9.7987,9.7987,9.7987,9.7987,9.7987,9.7987,9.7987,9.7987,9.851,9.9135,9.9322,10.0387,10.1386,10.1589,10.2096,10.2486,10.2486,10.2096,10.1605,10.1199,10.1097,10.0912,10.0321,10.022,10.022,10.022,9.9746,9.939,9.939,9.8747,9.8273,9.8273,9.8138,9.7987,9.7987,9.7987,9.7987,9.7987,9.7987,9.7987,9.7987,9.7987,9.7987,9.7987,9.7987,9.7987,9.7987,9.7987,9.7987,9.7987,9.7987,9.7987,9.7987,9.7987,9.7987,0.0,6.275,0.0,6.9413,0.0,0.0,0.0,0.0,0.0,0.0,0.0,0.0,0.0,0.0,0.0,0.0,0.0,0.0,0.0,0.0,0.0,0.0,0.0,0.0,0.0,0.0,0.0,0.0,9.4673,9.4639,9.4706,9.3992,9.3586,9.3586,9.3586,9.3586,9.3586,9.2778,9.1696,9.0275,9.1034,9.1406,9.1372,9.2136,9.3286,9.4706,9.4706,9.5499,9.6834,9.6868,9.7308,9.7953,9.8003,9.7987,9.7987,9.7987,9.7987,9.7987,9.7987,9.7987,9.7987,9.7987,9.7987,9.7987,9.7987,9.851,9.9254,9.9949,10.0693,10.1621,10.2299,10.2502,10.2486,10.2486,10.2502,10.2012,10.0592,10.0287,10.0287,10.022,10.022,10.022,10.022,10.0186,10.0102,10.0102,9.9525,9.9051,9.9051,9.8442,9.7987,9.7987,9.7987,9.7987,9.7987,9.7987,9.7987,9.7987,9.7987,9.7987,9.7987,9.7987,9.7987,9.7987,9.7987,9.7987,9.7987,9.7987,9.7987,9.7987,9.7987,9.7987,0.0,0.0,0.0,6.8473,7.1367,7.4122,7.6753,7.9153,8.1448,8.3634,8.4434,0.0,0.0,0.0,0.0,0.0,0.0,0.0,0.0,0.0,0.0,0.0,0.0,0.0,0.0,0.0,0.0,0.0,0.0,9.4706,9.4706,9.3992,9.3586,9.3586,9.3586,9.3334,9.2812,9.2542,9.1662,9.0208,9.0966,9.1305,9.1338,9.2068,9.3489,9.5398,9.5398,9.6244,9.7597,9.7597,9.7766,9.7987,9.7987,9.7987,9.7987,9.7987,9.7987,9.7987,9.7987,9.8307,9.8713,9.8713,9.9051,9.9408,9.9408,9.9611,9.9848,10.0102,10.0811,10.1519,10.169,10.208,10.2486,10.2486,10.2486,10.2317,10.1809,10.169,10.169,10.169,10.169,10.169,10.169,10.1284,10.0303,9.8375,9.9085,9.8934,9.6582,9.7698,9.851,9.8055,9.7987,9.7987,9.7987,9.7987,9.7987,9.7987,9.7987,9.7987,9.7987,9.7987,9.7987,9.7987,9.7987,9.7987,9.7987,9.7987,9.7987,9.7987,9.7987,9.7987,5.7377,0.0,0.0,0.0,0.0,7.0151,7.4922,0.0,8.0015,8.3387,8.4649,8.5336,0.0,0.0,0.0,0.0,0.0,0.0,0.0,0.0,0.0,0.0,0.0,0.0,0.0,0.0,0.0,0.0,0.0,0.0,9.4706,9.3992,9.3586,9.3586,9.3586,9.3098,9.2034,9.2034,9.1425,9.0208,9.0459,9.0797,9.1338,9.2068,9.3523,9.5466,9.5939,9.6853,9.7987,9.7987,9.7987,9.7987,9.7987,9.7987,9.7987,9.7987,9.8172,9.8375,9.8375,9.8848,9.9457,9.9457,9.9814,10.022,10.022,10.0389,10.0592,10.0592,10.1183,10.1808,10.1808,10.208,10.2486,10.2486,10.2486,10.2486,10.2486,10.2486,10.2486,10.2486,10.2486,10.2486,10.2486,10.2096,10.1097,9.9101,9.9829,9.9728,9.7258,9.8206,9.8916,9.8409,9.8172,9.7987,9.7987,9.7987,9.7987,9.7987,9.7987,9.7987,9.7987,9.7987,9.7987,9.7987,9.7987,9.7987,9.7987,9.7987,9.7987,9.7987,9.7987,9.7987,0.0,0.0,0.0,0.0,0.0,0.0,7.1998,0.0,7.8107,8.2926,8.4495,8.5709,8.7995,8.8468,0.0,0.0,0.0,0.0,0.0,0.0,0.0,0.0,0.0,0.0,0.0,0.0,0.0,0.0,9.5161,9.4706,9.4673,9.3977,9.3586,9.3586,9.3586,9.2875,9.1372,9.1305,9.0966,9.0242,8.9492,8.9898,9.1372,9.2068,9.3252,9.4808,9.6259,9.7292,9.7987,9.7987,9.7987,9.7987,9.7987,9.7987,9.7987,9.8021,9.8476,9.9085,9.9119,9.9627,10.0204,10.0204,10.0287,10.0287,10.0287,10.0811,10.1402,10.1402,10.1893,10.2486,10.2486,10.2486,10.2486,10.2486,10.2486,10.2486,10.2486,10.2486,10.2486,10.2486,10.2486,10.2486,10.2486,10.2486,10.2502,10.2401,10.1808,10.13,10.1316,9.9947,9.9051,9.9085,9.8476,9.8021,9.7987,9.8021,9.8021,9.7987,9.8037,9.8055,9.7987,9.8021,9.8021,9.7987,9.7987,9.7987,9.7987,9.7987,9.7987,9.7987,9.7987,9.7987,5.3691,0.0,0.0,0.0,0.0,0.0,0.0,0.0,7.2768,7.8507,8.1417,8.4055,8.7711,9.005,9.1905,0.0,0.0,0.0,0.0,0.0,0.0,0.0,0.0,0.0,0.0,0.0,0.0,0.0,9.5601,9.5026,9.3958,9.3721,9.3586,9.3586,9.3586,9.3383,9.2977,9.1846,9.1474,9.1798,9.0478,9.0662,9.2102,9.2305,9.3523,9.5533,9.5939,9.6819,9.7987,9.7987,9.7987,9.7987,9.7987,9.7987,9.8055,9.8612,9.8916,9.9187,9.9712,10.0405,10.1097,10.1097,10.1419,10.1893,10.1893,10.2012,10.2198,10.2198,10.2283,10.2486,10.2486,10.2486,10.2486,10.2486,10.2486,10.2486,10.2486,10.2486,10.2486,10.2486,10.2486,10.2486,10.2486,10.2486,10.1792,9.9577,9.9085,9.8747,9.8221,9.7781,9.7917,9.8999,9.8916,9.8578,9.807,9.8476,9.8578,9.8021,9.9002,9.9103,9.8021,9.851,9.8544,9.8021,9.7987,9.7987,9.7987,9.7987,9.7987,9.7987,9.7987,9.7987,0.0,0.0,0.0,0.0,0.0,0.0,0.0,6.7087,7.0613,0.0,7.9738,8.263,8.7129,8.9095,9.106,9.4266,0.0,0.0,0.0,0.0,0.0,0.0,0.0,0.0,0.0,9.6902,9.6732,9.6293,9.5988,9.5432,9.4567,9.4533,9.4533,9.4533,9.4533,9.4229,9.362,9.2706,9.215,9.1933,9.1392,9.173,9.2914,9.3218,9.4233,9.5804,9.6123,9.6766,9.7597,9.8206,9.8273,9.7987,9.7987,9.7987,9.8104,9.8815,9.9288,9.966,10.0389,10.1216,10.1909,10.1909,10.2114,10.2486,10.2486,10.2486,10.2486,10.2486,10.2486,10.2486,10.2486,10.2486,10.2486,10.2486,10.2486,10.2486,10.2486,10.2486,10.2486,10.2486,10.2486,10.2486,10.2486,10.2486,10.1911,10.0118,9.9897,9.9728,9.9288,9.8966,9.9101,9.9981,9.9457,9.9051,9.8934,9.9018,9.9051,9.8934,9.9712,9.9814,9.8934,9.9051,9.8882,9.8476,9.8172,9.7987,9.7987,9.7987,9.7987,9.7987,9.7987,9.7987,5.3148,5.3783,0.0,0.0,0.0,0.0,6.4135,6.6919,6.9643,0.0,7.783,8.0372,8.5311,8.5921,8.7371,9.257,9.5038,0.0,0.0,0.0,0.0,0.0,0.0,0.0,9.6969,9.6902,9.6902,9.6902,9.6142,9.5669,9.5669,9.5669,9.5702,9.5804,9.5804,9.5161,9.3857,9.3755,9.3005,9.1561,9.23,9.2976,9.3634,9.4444,9.5139,9.5742,9.6638,9.6994,9.7025,9.8599,9.8781,9.8123,9.8123,9.8123,9.819,9.895,9.966,10.0321,10.1183,10.2011,10.2486,10.2486,10.2486,10.2486,10.2486,10.2486,10.2486,10.2486,10.2486,10.2486,10.2486,10.2384,10.2401,10.2401,10.2401,10.2401,10.2401,10.2384,10.2486,10.2486,10.2486,10.2486,10.2486,10.2486,10.2486,10.2486,10.2215,10.2114,10.2502,10.1589,10.1097,10.1183,9.9999,9.9424,9.9915,9.9491,9.9457,10.0001,10.0321,10.0389,10.022,9.966,9.9254,9.9085,9.8375,9.7987,9.7987,9.7987,9.7987,9.7987,9.7987,9.7987,5.3722,5.4472,5.5438,0.0,0.0,0.0,0.0,6.0653,6.3502,0.0,6.9782,7.2836,7.8525,8.0403,8.1916,8.4408,8.9086,9.3706,0.0,0.0,0.0,0.0,0.0,0.0,9.6868,9.6902,9.6902,9.6902,9.5669,9.4909,9.4909,9.4909,9.5195,9.577,9.5804,9.5669,9.5364,9.4789,9.4045,9.3183,9.3892,9.4015,9.3647,9.4981,9.5326,9.5026,9.6964,9.7463,9.7071,9.9135,9.9559,9.8882,9.8882,9.8882,9.8984,9.9712,10.0084,10.0389,10.1792,10.2401,10.2486,10.2486,10.2486,10.2486,10.2486,10.2486,10.2486,10.2486,10.2486,10.2486,10.2486,10.2112,10.1605,10.1605,10.1605,10.1605,10.1605,10.2096,10.2486,10.2486,10.2486,10.2486,10.2486,10.2486,10.2486,10.2486,10.0389,9.9762,10.2198,10.0303,9.9119,10.0287,10.0202,9.9577,9.8528,9.9374,9.978,9.9322,10.0998,10.1505,10.0287,10.0691,10.0387,9.9119,9.8375,9.7987,9.7987,9.7987,9.7987,9.7987,9.7987,9.7987,5.4368,5.4676,5.5272,5.5653,0.0,0.0,0.0,0.0,6.2086,6.4826,6.6457,6.8851,7.3649,7.4839,7.6376,8.0188,8.547,9.0019,9.2658,0.0,0.0,0.0,0.0,0.0,9.6902,9.724,9.7308,9.6935,9.6225,9.5804,9.5804,9.5804,9.6142,9.6886,9.6886,9.6717,9.636,9.5973,9.5066,9.3618,9.5097,9.5219,9.4196,9.5681,9.6129,9.5875,9.7371,9.7783,9.7617,9.9849,10.0287,9.966,9.966,9.9424,9.9187,9.9915,10.022,10.0389,10.1505,10.2198,10.2486,10.2486,10.2486,10.2486,10.2486,10.2486,10.2384,10.2112,10.2011,10.1909,10.1487,10.1115,10.0811,10.0811,10.0811,10.0811,10.0811,10.1099,10.1487,10.1909,10.1606,10.1606,10.2401,10.2486,10.2486,10.2486,10.0912,10.0405,10.2299,10.0894,10.01,10.1201,10.0693,10.01,9.9728,9.9983,10.0186,10.0202,10.169,10.2198,10.1403,10.1402,10.0811,9.966,9.9273,9.8901,9.8544,9.8544,9.8375,9.7987,9.7987,9.7987,0.0,0.0,0.0,0.0,0.0,5.7143,0.0,0.0,0.0,0.0,0.0,0.0,0.0,0.0,0.0,0.0,0.0,0.0,0.0,0.0,0.0,0.0,0.0,0.0,9.6496,9.7022,9.7123,9.6529,9.6191,9.609,9.6259,9.6529,9.6969,9.7563,9.7698,9.7372,9.6484,9.6484,9.5498,9.3628,9.5697,9.5917,9.4551,9.6311,9.6795,9.6329,9.782,9.8253,9.8185,10.0494,10.1014,10.0389,10.0287,9.9746,9.9153,9.978,10.0084,10.0321,10.1081,10.1909,10.2486,10.2486,10.2486,10.2486,10.2486,10.2384,10.2198,10.1605,10.13,10.1014,10.0405,10.0084,9.9983,9.9983,9.9983,10.0001,10.0186,10.022,10.0423,10.1183,10.0777,10.0693,10.2215,10.2401,10.2283,10.2502,10.1909,10.1605,10.2198,10.1589,10.1318,10.1792,10.0693,10.0186,10.0691,10.0303,10.0303,10.0894,10.1606,10.2114,10.2299,10.169,10.1097,10.0423,10.0102,9.9678,9.9085,9.895,9.8578,9.7987,9.7987,9.7987,0.0,0.0,0.0,0.0,5.851,0.0,0.0,0.0,0.0,0.0,0.0,0.0,0.0,0.0,0.0,0.0,0.0,0.0,7.7096,8.2293,0.0,0.0,0.0,0.0,0.0,9.5026,9.5045,9.4958,9.3692,9.3218,9.3924,9.521,9.5939,9.6041,9.6699,9.6366,9.4951,9.4935,9.4502,9.3638,9.5161,9.5128,9.382,9.6607,9.6463,9.4207,9.8207,9.9214,9.8172,10.0482,10.1284,10.1199,10.0506,9.9746,9.9119,9.9187,9.966,10.0321,10.1081,10.1909,10.2486,10.2486,10.2486,10.2486,10.2486,10.1978,10.1503,10.1402,10.0878,10.0321,10.0204,9.9712,9.9221,9.9221,9.9221,9.939,10.01,10.022,10.0423,10.1183,10.0777,10.0693,10.2215,10.2011,10.169,10.2384,10.1909,10.1402,10.1503,10.0795,10.0084,9.9559,9.9322,9.8984,9.8442,9.8916,9.9254,9.9372,10.01,10.0811,10.1503,10.1386,10.1418,10.1316,9.9913,9.9187,9.9085,9.8442,9.807,9.7987,9.7987,9.7987,0.0,0.0,0.0,0.0,0.0,0.0,0.0,0.0,5.7338,0.0,0.0,0.0,0.0,0.0,0.0,0.0,0.0,0.0,0.0,0.0,0.0,0.0,0.0,0.0,0.0,0.0,0.0,0.0,9.1643,9.2286,9.3518,9.4586,9.5364,9.577,9.5725,9.5167,9.4112,9.3302,9.2936,9.3043,9.3637,9.4251,9.4928,9.6161,9.6749,9.6875,9.8267,9.8536,9.8089,9.9452,9.9532,9.8844,9.9361,9.9356,9.9085,9.9085,9.9559,10.0204,10.0608,10.1487,10.2486,10.2486,10.2486,10.2486,10.2486,10.2011,10.13,10.0795,10.0217,9.9457,9.9036,9.8698,9.8476,9.8476,9.8476,9.8544,9.8867,9.8934,9.9153,9.9913,9.9457,9.9408,10.0896,10.1284,10.1503,10.1792,10.1216,10.0709,10.0709,9.9983,9.9627,9.9712,9.9356,9.895,9.8645,9.8916,9.9085,9.9085,10.0202,10.1201,10.1995,10.1978,10.1792,10.1402,10.0808,9.9981,9.9085,9.8781,9.8409,9.7987,9.7987,9.7987,6.0899,0.0,0.0,0.0,0.0,0.0,0.0,0.0,0.0,0.0,0.0,0.0,0.0,0.0,0.0,0.0,0.0,0.0,0.0,0.0,0.0,0.0,0.0,0.0,0.0,0.0,0.0,0.0,0.0,9.0493,9.2841,9.3876,9.4557,9.4868,9.4421,9.3659,9.2532,9.1308,9.1139,9.1991,9.2402,9.3504,9.5211,9.6048,9.6932,9.786,9.789,9.7705,9.7435,9.8351,9.7755,9.6448,9.8155,9.8562,9.8246,9.8656,9.939,10.022,10.022,10.1201,10.2486,10.2486,10.2486,10.2502,10.2299,10.1706,10.0912,10.0084,9.939,9.8679,9.8123,9.7987,9.7987,9.7987,9.7987,9.807,9.8273,9.8123,9.824,9.895,9.851,9.8393,9.9678,10.0405,10.0811,10.1014,10.0405,9.9881,9.9881,9.9254,9.9018,9.9543,9.9119,9.8815,9.8815,9.8815,9.8815,9.8815,9.9999,10.098,10.1505,10.1792,10.1606,10.1097,10.0894,10.0217,9.9085,9.8882,9.8612,9.8307,9.8307,9.8307,0.0,0.0,0.0,6.2364,0.0,0.0,0.0,0.0,6.0073,0.0,0.0,0.0,0.0,0.0,0.0,0.0,0.0,0.0,0.0,0.0,0.0,0.0,0.0,0.0,0.0,0.0,0.0,0.0,8.5642,0.0,9.1135,9.2808,9.3343,9.2619,9.2654,9.1632,8.9463,8.8746,8.9094,9.0476,9.1905,9.2996,9.3779,9.6612,9.6771,9.4865,9.6987,9.7079,9.5886,9.7333,9.6685,9.4993,9.7169,9.7157,9.6081,9.7521,9.8934,10.022,10.022,10.1201,10.2486,10.2486,10.2486,10.2401,10.1722,10.0878,10.0084,9.9322,9.8612,9.8021,9.8003,9.7987,9.7987,9.7987,9.7987,9.8206,9.8916,9.851,9.824,9.895,9.851,9.824,9.8984,9.9169,9.9424,10.0102,9.9627,9.9135,9.9135,9.8476,9.8021,9.8055,9.8055,9.8037,9.8037,9.8037,9.8037,9.8037,9.8747,9.9187,9.9202,9.9881,10.0287,10.0204,9.9525,9.9153,9.9085,9.8375,9.8375,9.9051,9.9051,9.9051,0.0,0.0,6.7227,6.4518,0.0,0.0,0.0,0.0,0.0,0.0,0.0,0.0,0.0,0.0,0.0,0.0,0.0,0.0,0.0,0.0,0.0,0.0,0.0,0.0,0.0,0.0,0.0,0.0,8.0925,0.0,8.8117,8.9542,9.0699,9.1747,9.1875,9.0864,8.8658,8.7445,8.7824,8.974,8.9694,9.1056,9.3608,9.3625,9.4255,9.5319,9.5032,9.5232,9.5745,9.6168,9.5983,9.5506,9.6261,9.682,9.738,9.8339,9.934,10.0305,10.1419,10.2096,10.2486,10.2486,10.2486,10.2401,10.1605,10.0795,10.0001,9.9322,9.8578,9.7987,9.7987,9.7987,9.7987,9.7987,9.7987,9.8055,9.8307,9.8172,9.8055,9.8341,9.8172,9.807,9.8341,9.7572,9.752,9.9215,9.9254,9.8916,9.8442,9.8172,9.7987,9.7987,9.7987,9.7987,9.7987,9.7987,9.8206,9.8713,9.8047,9.7865,9.8349,9.8616,9.8499,9.8016,9.8731,9.8848,9.8375,9.8123,9.8375,9.9119,9.9593,9.9814,7.2552,7.1937,0.0,6.8982,6.695,0.0,6.2328,0.0,0.0,0.0,0.0,0.0,0.0,0.0,0.0,0.0,0.0,0.0,0.0,0.0,0.0,0.0,0.0,0.0,0.0,0.0,7.5922,7.6267,7.6799,0.0,0.0,0.0,8.7652,8.9136,8.9747,8.9361,8.7923,8.6713,8.6966,8.8635,8.8881,9.0346,9.2809,9.2928,9.3981,9.5657,9.4622,9.4767,9.5692,9.5625,9.5389,9.5111,9.6177,9.6836,9.7319,9.804,9.9284,10.0795,10.2096,10.2283,10.2096,10.2096,10.1893,10.1505,10.0777,10.0202,9.9645,9.8916,9.8375,9.7987,9.7987,9.7987,9.7987,9.7987,9.7597,9.7218,9.7218,9.6804,9.6435,9.6435,9.6435,9.6435,9.6435,9.5656,9.587,9.8347,9.8273,9.7755,9.7285,9.7675,9.7817,9.7265,9.7218,9.7029,9.6483,9.6435,9.6651,9.7118,9.6234,9.5949,9.6426,9.6426,9.6212,9.5735,9.6662,9.6918,9.6435,9.6686,9.7052,9.7568,9.9074,9.9804]},{"header":{"parameterUnit":"m.s-1","parameterCategory":1,"la1":30.6,"la2":29.2853,"lo1":-89.7004,"lo2":-87.6739,"dy":0.0162,"dx":0.0183,"nx":112,"ny":82,"refTime":"2026-03-25T00:00:00:Z","depth":0,"parameterNumber":3,"parameterNumberName":"V-component_of_WINDS"},"data":[0.0,0.0,0.0,0.0,0.0,0.0,0.0,0.0,0.0,0.0,0.0,0.0,0.0,0.0,0.0,0.0,0.0,0.0,0.0,0.0,0.0,0.0,0.0,0.0,0.0,0.0,0.0,0.0,0.0,0.0,0.0,0.0,0.0,0.0,0.0,0.0,0.0,0.0,0.0,0.0,0.0,0.0,0.0,0.0,0.0,0.0,0.0,0.0,0.0,0.0,0.0,0.0,0.0,0.0,0.0,0.0,0.0,0.0,0.0,0.0,0.0,0.0,0.0,0.0,0.0,0.0,0.0,0.0,0.0,0.0,0.0,0.0,0.0,0.0,0.0,0.0,0.0,0.0,0.0,0.0,0.0,0.0,0.0,0.0,0.0,0.0,0.0,0.0,0.0,0.0,0.0,2.124,2.2261,2.2893,2.2893,2.2592,2.2028,2.1162,0.0,0.0,0.0,0.0,0.0,0.0,0.0,0.0,0.0,0.0,0.0,0.0,0.0,0.0,0.0,0.0,0.0,0.0,0.0,0.0,0.0,0.0,0.0,0.0,0.0,0.0,0.0,0.0,0.0,0.0,0.0,0.0,0.0,0.0,0.0,0.0,0.0,0.0,0.0,0.0,0.0,0.0,0.0,0.0,0.0,0.0,0.0,0.0,0.0,0.0,0.0,0.0,0.0,0.0,0.0,0.0,0.0,0.0,0.0,0.0,0.0,0.0,0.0,0.0,0.0,0.0,0.0,0.0,0.0,0.0,0.0,0.0,0.0,0.0,0.0,0.0,0.0,0.0,0.0,0.0,0.0,0.0,0.0,0.0,0.0,0.0,0.0,0.0,0.0,0.0,0.0,0.0,0.0,0.0,0.0,0.0,0.0,0.0,0.0,0.0,0.0,0.0,0.0,0.0,2.0757,2.2068,2.2622,2.2893,2.2893,2.2592,2.2028,2.1162,0.0,0.0,0.0,0.0,0.0,0.0,0.0,0.0,0.0,0.0,0.0,0.0,0.0,0.0,0.0,0.0,0.0,0.0,0.0,0.0,0.0,0.0,0.0,0.0,0.0,0.0,0.0,0.0,0.0,0.0,0.0,0.0,0.0,0.0,0.0,0.0,0.0,0.0,0.0,0.0,0.0,0.0,0.0,0.0,0.0,0.0,0.0,0.0,0.0,0.0,0.0,0.0,0.0,0.0,0.0,0.0,0.0,0.0,0.0,0.0,0.0,0.0,0.0,0.0,0.0,0.0,0.0,0.0,0.0,0.0,0.0,0.0,0.0,0.0,0.0,0.0,0.0,0.0,0.0,0.0,0.0,0.0,0.0,0.0,0.0,0.0,0.0,0.0,0.0,0.0,0.0,0.0,0.0,0.0,0.0,0.0,0.0,0.0,0.0,0.0,0.0,0.0,0.0,2.0481,2.0975,2.2268,2.2702,2.2893,2.2893,2.2592,2.2028,2.1162,2.0857,0.0,0.0,0.0,0.0,0.0,0.0,0.0,0.0,0.0,0.0,0.0,0.0,0.0,0.0,0.0,0.0,0.0,0.0,0.0,0.0,0.0,0.0,0.0,0.0,0.0,0.0,0.0,0.0,0.0,0.0,0.0,0.0,0.0,0.0,0.0,0.0,0.0,0.0,0.0,0.0,0.0,0.0,0.0,0.0,0.0,0.0,0.0,0.0,0.0,0.0,0.0,0.0,0.0,0.0,0.0,0.0,0.0,0.0,0.0,0.0,0.0,0.0,0.0,0.0,0.0,0.0,0.0,0.0,0.0,0.0,0.0,0.0,0.0,0.0,0.0,0.0,0.0,0.0,0.0,0.0,0.0,0.0,0.0,0.0,0.0,0.0,0.0,0.0,0.0,0.0,0.0,0.0,0.0,0.0,0.0,0.0,0.0,0.0,0.0,0.0,0.0,0.0,2.0964,2.1392,2.2418,2.2743,2.2893,2.2893,2.2525,2.1961,2.1147,2.0775,0.0,0.0,0.0,0.0,0.0,0.0,0.0,0.0,0.0,0.0,0.0,0.0,0.0,0.0,0.0,0.0,0.0,0.0,0.0,0.0,0.0,0.0,0.0,0.0,0.0,0.0,0.0,0.0,0.0,0.0,0.0,0.0,0.0,0.0,0.0,0.0,0.0,0.0,0.0,0.0,0.0,0.0,0.0,0.0,0.0,0.0,0.0,0.0,0.0,0.0,0.0,0.0,0.0,0.0,0.0,0.0,0.0,0.0,0.0,0.0,0.0,0.0,0.0,0.0,0.0,0.0,0.0,0.0,0.0,0.0,0.0,0.0,0.0,0.0,0.0,0.0,0.0,0.0,0.0,0.0,0.0,0.0,0.0,0.0,0.0,0.0,0.0,0.0,0.0,0.0,0.0,0.0,0.0,0.0,0.0,0.0,0.0,0.0,0.0,0.0,0.0,0.0,2.1229,2.2154,2.28,2.288,2.2893,2.2893,2.2355,2.175,2.1133,2.0559,0.0,0.0,0.0,0.0,0.0,0.0,0.0,0.0,0.0,0.0,0.0,0.0,0.0,0.0,0.0,0.0,0.0,0.0,0.0,0.0,0.0,0.0,0.0,0.0,0.0,0.0,0.0,0.0,0.0,0.0,0.0,0.0,0.0,0.0,0.0,0.0,0.0,0.0,0.0,0.0,0.0,0.0,0.0,0.0,0.0,0.0,0.0,0.0,0.0,0.0,0.0,0.0,0.0,0.0,0.0,0.0,0.0,0.0,0.0,0.0,0.0,0.0,0.0,0.0,0.0,0.0,0.0,0.0,0.0,0.0,0.0,0.0,0.0,0.0,0.0,0.0,0.0,0.0,0.0,0.0,0.0,0.0,0.0,0.0,0.0,0.0,0.0,0.0,0.0,0.0,0.0,0.0,0.0,0.0,0.0,0.0,0.0,0.0,0.0,0.0,0.0,0.0,2.1056,2.1804,0.0,2.2893,2.2893,2.2893,2.2502,2.1844,2.0911,0.0,0.0,0.0,0.0,0.0,0.0,0.0,0.0,0.0,0.0,0.0,0.0,0.0,0.0,0.0,0.0,0.0,0.0,0.0,0.0,0.0,0.0,0.0,0.0,0.0,0.0,0.0,0.0,0.0,0.0,0.0,0.0,0.0,0.0,0.0,0.0,0.0,0.0,0.0,0.0,0.0,0.0,0.0,0.0,0.0,0.0,0.0,0.0,0.0,0.0,0.0,0.0,0.0,0.0,0.0,0.0,0.0,0.0,0.0,0.0,0.0,0.0,0.0,0.0,0.0,0.0,0.0,0.0,0.0,0.0,0.0,0.0,0.0,0.0,0.0,0.0,0.0,0.0,0.0,0.0,0.0,0.0,0.0,0.0,0.0,0.0,0.0,0.0,0.0,0.0,0.0,0.0,0.0,0.0,0.0,0.0,0.0,0.0,0.0,0.0,0.0,0.0,2.0414,2.1029,2.186,0.0,2.3188,2.3237,2.3424,2.2979,2.2205,2.106,0.0,0.0,0.0,0.0,0.0,0.0,0.0,0.0,0.0,0.0,0.0,0.0,0.0,0.0,0.0,0.0,0.0,0.0,0.0,0.0,0.0,0.0,0.0,0.0,0.0,0.0,0.0,0.0,0.0,0.0,0.0,0.0,0.0,0.0,0.0,0.0,0.0,0.0,0.0,0.0,0.0,0.0,0.0,0.0,0.0,0.0,0.0,0.0,0.0,0.0,0.0,0.0,0.0,0.0,0.0,0.0,0.0,0.0,0.0,0.0,0.0,0.0,0.0,0.0,0.0,0.0,0.0,0.0,0.0,0.0,0.0,0.0,0.0,0.0,0.0,0.0,0.0,0.0,0.0,0.0,0.0,0.0,0.0,0.0,0.0,0.0,0.0,0.0,0.0,0.0,0.0,0.0,0.0,0.0,0.0,0.0,0.0,0.0,0.0,0.0,0.0,0.0,2.017,2.1269,2.2475,2.3679,2.3817,2.4008,2.4546,2.3799,2.2819,0.0,0.0,0.0,0.0,0.0,0.0,0.0,0.0,0.0,0.0,0.0,0.0,0.0,0.0,0.0,0.0,0.0,0.0,0.0,0.0,0.0,0.0,0.0,0.0,0.0,0.0,0.0,0.0,0.0,0.0,0.0,0.0,0.0,0.0,0.0,0.0,0.0,0.0,0.0,0.0,0.0,0.0,0.0,0.0,0.0,0.0,0.0,0.0,0.0,0.0,0.0,0.0,0.0,0.0,0.0,0.0,0.0,0.0,0.0,0.0,0.0,0.0,0.0,0.0,0.0,0.0,0.0,0.0,0.0,0.0,0.0,0.0,0.0,0.0,0.0,0.0,0.0,0.0,0.0,0.0,0.0,0.0,0.0,0.0,0.0,0.0,0.0,0.0,0.0,0.0,0.0,0.0,0.0,0.0,0.0,0.0,0.0,0.0,0.0,0.0,0.0,0.0,0.0,0.0,2.2261,2.3558,2.4284,2.4364,2.4431,2.4586,2.3799,2.2709,2.1323,0.0,0.0,0.0,0.0,0.0,0.0,0.0,0.0,0.0,0.0,0.0,0.0,0.0,0.0,0.0,0.0,0.0,0.0,0.0,0.0,0.0,0.0,0.0,0.0,0.0,0.0,0.0,0.0,0.0,0.0,0.0,0.0,0.0,0.0,0.0,0.0,0.0,0.0,0.0,0.0,0.0,0.0,0.0,0.0,0.0,0.0,0.0,0.0,0.0,0.0,0.0,0.0,0.0,0.0,0.0,0.0,0.0,0.0,0.0,0.0,0.0,0.0,0.0,0.0,0.0,0.0,0.0,0.0,0.0,0.0,0.0,0.0,0.0,0.0,0.0,0.0,0.0,0.0,0.0,0.0,0.0,0.0,0.0,0.0,0.0,0.0,0.0,0.0,0.0,0.0,0.0,0.0,0.0,0.0,0.0,0.0,0.0,0.0,0.0,0.0,0.0,0.0,2.1,2.2689,2.4106,2.4885,2.4965,2.5058,2.5298,2.4618,2.3443,2.1721,0.0,0.0,0.0,0.0,0.0,0.0,0.0,0.0,0.0,0.0,0.0,0.0,0.0,0.0,0.0,0.0,0.0,0.0,0.0,0.0,0.0,0.0,0.0,0.0,0.0,0.0,0.0,0.0,0.0,0.0,0.0,0.0,0.0,0.0,0.0,0.0,0.0,0.0,0.0,0.0,0.0,0.0,0.0,0.0,0.0,0.0,0.0,0.0,0.0,0.0,0.0,0.0,0.0,0.0,0.0,0.0,0.0,0.0,0.0,0.0,0.0,0.0,0.0,0.0,0.0,0.0,0.0,0.0,0.0,0.0,0.0,0.0,0.0,0.0,0.0,0.0,0.0,0.0,0.0,0.0,0.0,0.0,0.0,0.0,0.0,0.0,0.0,0.0,0.0,0.0,0.0,0.0,0.0,0.0,0.0,0.0,0.0,0.0,0.0,0.0,0.0,0.0,2.1093,2.2809,2.4374,2.5478,2.5579,2.5812,2.6346,2.5825,2.4591,2.2575,0.0,0.0,0.0,0.0,0.0,0.0,0.0,0.0,0.0,0.0,0.0,0.0,0.0,0.0,0.0,0.0,0.0,0.0,0.0,0.0,0.0,0.0,0.0,0.0,0.0,0.0,0.0,0.0,0.0,0.0,0.0,0.0,0.0,0.0,0.0,0.0,0.0,0.0,0.0,0.0,0.0,0.0,0.0,0.0,0.0,0.0,0.0,0.0,0.0,0.0,0.0,0.0,0.0,0.0,0.0,0.0,0.0,0.0,0.0,0.0,2.8586,0.0,0.0,0.0,0.0,0.0,0.0,0.0,0.0,0.0,0.0,0.0,0.0,0.0,0.0,0.0,0.0,0.0,0.0,0.0,0.0,0.0,0.0,0.0,0.0,0.0,0.0,0.0,0.0,0.0,0.0,0.0,0.0,0.0,0.0,0.0,0.0,0.0,0.0,0.0,0.0,0.0,2.1697,2.3754,2.5411,2.6132,2.6199,2.6253,2.6393,2.5657,2.4507,2.289,0.0,0.0,0.0,0.0,0.0,0.0,0.0,0.0,0.0,0.0,0.0,0.0,0.0,0.0,0.0,0.0,0.0,0.0,0.0,0.0,0.0,0.0,0.0,0.0,0.0,0.0,0.0,0.0,0.0,0.0,0.0,0.0,0.0,0.0,0.0,0.0,0.0,0.0,0.0,0.0,0.0,0.0,0.0,0.0,0.0,0.0,0.0,0.0,0.0,0.0,0.0,0.0,0.0,0.0,0.0,0.0,0.0,0.0,0.0,0.0,0.0,2.9284,0.0,0.0,0.0,0.0,0.0,0.0,0.0,0.0,0.0,0.0,0.0,0.0,0.0,0.0,0.0,0.0,0.0,0.0,0.0,0.0,0.0,0.0,0.0,0.0,0.0,0.0,0.0,0.0,0.0,0.0,0.0,0.0,0.0,0.0,0.0,0.0,0.0,0.0,0.0,0.0,2.2305,2.436,2.5965,2.6533,2.66,2.6547,2.6419,2.5858,2.4949,2.3612,2.2275,0.0,0.0,0.0,0.0,0.0,0.0,0.0,0.0,0.0,0.0,0.0,0.0,0.0,0.0,0.0,0.0,0.0,0.0,0.0,0.0,0.0,0.0,0.0,0.0,0.0,0.0,0.0,0.0,0.0,0.0,0.0,0.0,0.0,0.0,0.0,0.0,0.0,0.0,0.0,0.0,0.0,0.0,0.0,0.0,0.0,0.0,0.0,0.0,0.0,0.0,0.0,0.0,0.0,3.2864,3.3193,3.3468,3.4202,3.4349,3.3964,3.2716,3.1451,3.0329,0.0,0.0,0.0,0.0,0.0,0.0,0.0,0.0,0.0,0.0,0.0,0.0,0.0,0.0,0.0,0.0,0.0,0.0,0.0,0.0,0.0,0.0,0.0,0.0,0.0,3.301,3.2463,0.0,0.0,0.0,0.0,0.0,0.0,0.0,0.0,0.0,0.0,0.0,0.0,2.2827,2.474,2.6198,2.6694,2.6767,2.6687,2.6413,2.6139,2.5497,2.4342,2.3033,2.1646,0.0,0.0,0.0,0.0,0.0,0.0,0.0,0.0,0.0,0.0,0.0,0.0,0.0,0.0,0.0,0.0,0.0,0.0,0.0,0.0,0.0,0.0,0.0,0.0,0.0,0.0,0.0,0.0,0.0,0.0,0.0,0.0,2.8421,2.772,0.0,0.0,0.0,0.0,0.0,0.0,0.0,0.0,0.0,0.0,0.0,0.0,0.0,3.1744,3.1836,3.3634,3.4551,3.4642,3.6365,3.7043,3.6787,3.7227,3.741,3.7373,3.7501,0.0,3.3248,3.3248,0.0,0.0,0.0,0.0,0.0,0.0,0.0,0.0,0.0,0.0,0.0,0.0,0.0,0.0,0.0,0.0,0.0,0.0,0.0,0.0,0.0,0.0,3.5137,3.5485,3.5705,3.5413,0.0,3.1416,2.8802,2.6852,0.0,0.0,0.0,0.0,0.0,0.0,0.0,0.0,2.3096,2.4855,2.6118,2.6413,2.6647,2.6687,2.6413,2.6139,2.5577,2.4618,2.3915,2.2907,2.1422,2.0441,0.0,0.0,0.0,0.0,0.0,0.0,0.0,0.0,0.0,0.0,0.0,0.0,0.0,0.0,0.0,0.0,0.0,0.0,0.0,0.0,0.0,0.0,0.0,0.0,0.0,0.0,0.0,0.0,0.0,2.8311,2.895,2.7922,2.8917,2.9027,0.0,0.0,0.0,0.0,0.0,0.0,0.0,0.0,0.0,3.279,3.3598,3.4349,3.5027,3.6365,3.7134,3.7373,3.8234,3.8731,3.8806,3.899,3.9192,3.941,3.9593,3.886,3.7448,3.5815,3.4294,3.2901,0.0,0.0,0.0,0.0,3.1469,3.1818,3.3175,3.3358,0.0,3.3304,0.0,0.0,0.0,0.0,0.0,0.0,0.0,0.0,0.0,0.0,0.0,3.7062,3.7557,3.7667,3.686,3.5082,3.2669,0.0,2.8406,2.6829,2.2561,0.0,0.0,0.0,0.0,0.0,2.3879,2.5317,2.6326,2.66,2.6727,2.6687,2.6413,2.6299,2.5978,2.5411,2.4676,2.3821,2.288,2.1793,2.0668,0.0,0.0,0.0,0.0,0.0,0.0,0.0,0.0,0.0,0.0,0.0,0.0,0.0,0.0,0.0,0.0,0.0,0.0,0.0,0.0,0.0,0.0,0.0,0.0,0.0,0.0,0.0,0.0,2.899,2.9776,2.8564,2.9834,3.0094,0.0,0.0,0.0,0.0,0.0,0.0,3.2128,3.2936,3.3928,3.5137,3.6054,3.6952,3.785,3.8583,3.9078,3.9392,3.9481,3.9703,4.0058,4.0168,4.0368,4.0641,4.0641,4.0641,4.0458,3.7979,3.62,3.4954,3.4129,3.389,3.3982,3.3964,3.4111,3.4532,3.6218,3.6402,3.5907,3.5907,0.0,3.3524,3.1911,0.0,0.0,0.0,0.0,3.2736,3.455,3.6054,3.7355,3.8273,3.8951,3.9135,3.8198,3.7447,3.5831,0.0,3.1024,2.9309,2.4563,0.0,0.0,0.0,0.0,2.3518,2.4591,2.5705,2.6466,2.6694,2.6754,2.6687,2.6413,2.6406,2.6286,2.6011,2.5331,2.4716,2.4165,2.313,2.2031,0.0,0.0,0.0,0.0,0.0,0.0,0.0,0.0,0.0,0.0,0.0,0.0,0.0,0.0,0.0,0.0,0.0,0.0,0.0,0.0,0.0,0.0,0.0,0.0,0.0,0.0,0.0,0.0,0.0,0.0,3.0222,3.1488,0.0,0.0,0.0,0.0,3.1155,3.2716,3.3799,3.422,3.6072,3.7172,3.7245,3.8418,3.906,3.9095,3.9595,3.9836,3.9875,4.0258,4.046,4.0476,4.0864,4.1047,4.1066,4.1066,4.1066,4.0953,3.9612,3.8765,3.8289,3.7483,3.7392,3.7593,3.6457,3.653,3.7134,3.6878,3.6768,3.6933,3.805,3.7079,3.5394,3.4917,3.3928,0.0,0.0,3.3892,3.5101,3.6347,3.7318,3.8255,3.9505,3.9838,3.9524,3.8273,3.7667,3.697,0.0,3.4388,3.2448,2.8795,0.0,2.6097,2.3202,2.3335,2.4066,2.4962,2.5858,2.6419,2.6413,2.6653,2.6687,2.6413,2.6406,2.6286,2.6011,2.5957,2.5663,2.5056,2.4441,2.3661,2.2786,2.1368,0.0,0.0,0.0,0.0,0.0,0.0,0.0,0.0,0.0,0.0,0.0,0.0,0.0,0.0,0.0,0.0,0.0,0.0,0.0,0.0,0.0,0.0,0.0,0.0,0.0,0.0,0.0,0.0,3.1371,3.344,0.0,3.2498,3.2551,3.288,3.3285,3.4826,3.6017,3.6677,3.7887,3.8693,3.899,3.9687,4.0033,4.0033,4.046,4.0662,4.0662,4.0827,4.0901,4.0901,4.1029,4.1102,4.1102,4.1102,4.1102,4.1066,4.0604,4.0201,3.9758,3.921,3.9101,3.9175,3.8753,3.8916,3.9373,3.9226,3.9171,3.9116,3.873,3.794,3.697,3.6054,3.565,3.5559,3.5834,3.6402,3.7153,3.8087,3.8968,3.965,3.9836,4.0315,4.0405,3.9432,3.8878,3.829,3.7337,3.576,3.3675,3.0856,2.957,2.8097,2.5719,2.5093,2.5077,2.5623,2.6099,2.6406,2.6406,2.648,2.6507,2.6419,2.6406,2.6366,2.6259,2.6105,2.5904,2.569,2.5096,2.4454,2.3759,2.2662,2.1245,0.0,0.0,0.0,0.0,0.0,0.0,0.0,0.0,0.0,0.0,0.0,0.0,0.0,0.0,0.0,0.0,0.0,0.0,0.0,0.0,0.0,0.0,0.0,0.0,0.0,0.0,3.344,3.3569,3.5258,3.5981,3.4948,3.5062,3.5376,3.5779,3.6934,3.7905,3.8585,3.9281,3.9777,4.0093,4.0497,4.0717,4.0717,4.11,4.1228,4.1102,4.1249,4.1231,4.1102,4.1102,4.1102,4.1121,4.1228,4.1231,4.1121,4.1249,4.1084,4.068,4.0405,4.0387,4.0497,4.035,4.057,4.088,4.0733,4.0604,4.0366,3.952,3.897,3.8475,3.7687,3.7631,3.7906,3.8163,3.8458,3.8806,3.9445,4.0072,4.0478,4.0352,4.0717,4.0882,4.0077,3.976,3.9261,3.8033,3.6622,3.4721,3.1912,3.0727,2.9218,2.6409,2.5822,2.5684,2.5703,2.6112,2.6406,2.6406,2.6406,2.6406,2.6406,2.6139,2.6058,2.6246,2.5804,2.5577,2.569,2.5122,2.4574,2.4062,2.2813,2.1549,2.0301,0.0,0.0,0.0,0.0,0.0,0.0,0.0,0.0,0.0,0.0,0.0,0.0,0.0,0.0,0.0,0.0,0.0,0.0,0.0,0.0,0.0,0.0,0.0,3.2476,3.3989,3.5535,3.6812,3.6924,3.7233,3.8118,3.7421,3.7411,3.8585,3.9043,3.9467,3.9893,4.0315,4.0533,4.0531,4.0901,4.1102,4.1121,4.1485,4.1485,4.1102,4.1503,4.1467,4.1102,4.1102,4.1102,4.1121,4.1522,4.1467,4.1139,4.154,4.1467,4.1102,4.1102,4.1338,4.1629,4.1228,4.1359,4.1632,4.1249,4.0845,4.0533,4.0533,4.0258,3.9948,3.9948,3.9948,3.9948,3.9948,3.9948,4.004,4.0423,4.0533,4.0625,4.1011,4.1102,4.0882,4.0113,4.024,3.9907,3.785,3.7116,3.575,3.2244,3.1238,2.9522,2.5441,2.5501,0.0,2.5216,2.5885,2.6386,2.636,2.636,2.636,2.636,2.559,2.535,2.5957,2.513,2.4764,2.5096,2.4516,2.4062,2.3817,2.1829,2.0993,2.139,0.0,0.0,0.0,0.0,0.0,0.0,0.0,0.0,0.0,0.0,0.0,0.0,0.0,0.0,0.0,0.0,0.0,0.0,0.0,0.0,0.0,0.0,3.4166,3.3402,3.5084,3.692,3.8382,3.8846,3.9493,4.0668,3.9988,3.9754,4.0432,4.0865,4.0985,4.0787,4.1156,4.1381,4.1357,4.1191,4.1249,4.154,4.1378,4.1213,4.1102,4.1213,4.1213,4.1102,4.1102,4.1102,4.1121,4.1522,4.1467,4.1139,4.154,4.1467,4.1102,4.1102,4.1176,4.1268,4.1139,4.1176,4.1268,4.1139,4.1029,4.0937,4.0937,4.0864,4.0772,4.0772,4.0772,4.0772,4.0772,4.0772,4.079,4.0919,4.0937,4.0974,4.1066,4.1102,4.1047,4.0809,4.0625,4.0146,3.895,3.838,3.7413,3.5296,3.2854,3.0795,2.9621,2.7655,0.0,2.6052,2.6259,2.6226,2.5798,2.5758,2.5758,2.5758,2.5344,2.535,0.0,2.535,2.509,2.5384,2.4623,2.4062,2.3817,2.3337,2.3079,0.0,0.0,0.0,0.0,0.0,0.0,0.0,0.0,0.0,0.0,0.0,0.0,0.0,0.0,0.0,0.0,0.0,0.0,0.0,0.0,0.0,0.0,3.5351,3.6864,3.6536,3.7446,3.8823,4.0608,4.0751,4.1138,4.2233,4.1712,4.1415,4.1682,4.1911,4.1858,4.1381,4.1565,4.17,4.1706,4.1315,4.1297,4.1706,4.1647,4.1525,4.1378,4.1708,4.1763,4.1616,4.1616,4.1616,0.0,4.2017,4.1962,4.1613,4.1852,4.1705,0.0,0.0,0.0,0.0,0.0,4.1102,4.1102,4.1102,4.1102,4.1102,4.1102,4.1102,4.1102,4.1102,4.1102,4.1102,4.1102,4.1102,4.1102,4.1102,4.1102,4.1102,4.1102,4.1102,4.1102,4.1102,4.0919,4.0494,3.9669,3.93,0.0,3.7209,3.3948,3.1187,3.0079,2.7919,2.6306,2.6052,2.6239,2.6306,2.6059,2.5939,2.5932,2.6033,2.5451,0.0,0.0,0.0,2.473,2.4802,2.4066,0.0,0.0,0.0,0.0,0.0,0.0,0.0,0.0,2.805,2.8311,0.0,0.0,0.0,0.0,0.0,0.0,0.0,0.0,0.0,0.0,0.0,0.0,0.0,0.0,0.0,0.0,3.7441,3.9687,4.0664,4.0492,4.0995,4.2948,4.2409,4.2231,4.3169,4.2832,4.2582,4.2624,4.2662,4.2493,4.2034,0.0,0.0,0.0,0.0,4.1566,4.19,4.2223,4.217,4.1779,4.2494,4.2663,4.2292,4.2292,4.2292,4.2329,4.2736,4.2659,4.2311,4.2347,4.2127,4.1702,4.1265,4.1102,4.1102,4.1158,4.1139,4.1102,4.1158,0.0,0.0,4.1102,4.1102,4.1102,4.1102,4.1102,4.1102,4.1102,4.1102,4.1102,4.1102,4.1102,4.1102,4.1102,4.1102,4.1102,4.1102,4.1102,4.0882,4.0132,3.993,3.9524,3.8346,3.472,3.1179,2.8851,2.7334,2.6266,2.5772,2.6172,2.656,2.6727,0.0,0.0,2.6727,2.5758,2.5283,2.5585,2.4823,2.4209,2.3906,2.3415,2.2983,2.2655,2.429,2.576,2.6997,2.8648,3.0446,3.2203,2.921,2.899,0.0,0.0,0.0,0.0,0.0,0.0,0.0,0.0,0.0,0.0,0.0,0.0,0.0,0.0,0.0,3.6504,3.875,4.0781,4.2383,4.2538,4.2751,4.3496,4.2809,4.2773,4.4031,4.3715,4.361,4.3965,4.4296,4.43,4.3815,4.3794,4.3816,4.3814,4.3426,4.3214,4.3249,4.2994,4.2645,4.2182,0.0,0.0,4.2292,4.2292,4.2292,4.2329,4.2736,4.2659,4.2329,4.2641,4.2549,4.2109,4.1375,4.1102,4.1139,4.1467,4.1375,4.1158,4.1467,4.1357,4.1102,4.1102,4.1102,4.1102,4.1102,4.1102,0.0,4.1102,4.1102,4.1102,4.1102,4.1102,4.1102,4.1102,4.1102,4.1102,4.1102,4.1102,4.0956,4.0478,4.0111,3.9707,3.9078,3.5322,3.2189,3.1626,2.8784,2.6787,2.6927,2.7048,2.6954,2.652,2.6426,2.6413,2.6466,2.5825,2.5651,2.6186,2.5611,2.5005,2.4471,2.4583,2.4516,2.4172,2.6596,2.8128,2.8712,3.12,3.2918,3.3908,3.2294,3.1983,0.0,0.0,0.0,0.0,0.0,0.0,0.0,0.0,0.0,0.0,0.0,3.1191,3.23,0.0,3.6057,3.8242,3.9863,4.1367,4.2891,4.3477,4.3849,4.4023,4.3666,4.3736,4.4626,4.4496,4.4434,4.4686,4.4881,4.4807,4.432,4.4299,4.4181,4.3957,4.3789,4.3663,4.3611,4.3413,4.3174,4.2935,4.2916,4.2916,4.2916,4.2916,4.2916,4.2916,4.3118,4.31,4.2916,4.2898,4.2659,4.2256,4.1852,4.1687,4.1724,4.1925,4.187,4.1724,4.1925,4.187,4.1687,4.1687,4.1687,4.165,4.1448,4.154,4.1635,4.1213,4.1228,4.1338,4.1158,4.1102,4.1102,4.1102,4.1102,4.1102,4.1102,4.1102,4.0992,4.0588,4.035,3.9981,3.9316,3.5782,3.2986,3.273,2.9491,2.7041,2.7041,2.7195,2.7168,2.6874,2.6847,2.6901,2.7028,2.6373,2.6012,2.6179,2.5625,2.5224,2.5058,2.5077,2.549,2.6285,2.8383,2.9948,3.0958,3.3074,3.4312,3.4679,3.4293,3.4092,0.0,0.0,0.0,0.0,0.0,0.0,0.0,0.0,3.0346,3.0854,3.1719,3.2909,3.4701,3.5984,3.7569,4.0041,4.115,4.2071,4.3204,4.4023,4.4551,4.4629,4.457,4.4627,4.4979,4.5076,4.5135,4.5135,4.5213,4.5102,4.4699,4.4678,4.4506,4.414,4.4181,4.4138,4.3989,4.3983,4.3934,4.3843,4.38,4.3771,4.3767,4.3678,4.3655,4.3633,4.3544,4.3499,4.3463,4.3155,4.2824,4.2531,4.2531,4.2531,4.2531,4.2439,4.2366,4.2311,4.2384,4.2366,4.2292,4.2292,4.2292,4.2237,4.1925,4.2054,4.2164,4.1525,4.1558,4.1742,4.1433,4.1341,4.1341,4.1341,4.1341,4.1323,4.1231,4.1231,4.1063,4.0586,4.0442,4.0164,3.9465,3.612,3.3444,3.3117,2.983,2.7302,2.7094,2.7315,2.7483,2.7483,2.7483,2.7529,2.7682,2.7021,2.646,2.6165,2.5644,2.5457,2.5678,2.5417,2.6187,2.8138,2.9644,3.1246,3.2916,3.4467,3.5229,3.5247,3.5577,3.5504,2.8015,2.7897,2.8236,2.8236,2.9135,3.0195,0.0,0.0,3.2656,3.3492,3.4648,3.6087,3.8008,3.8957,4.0117,4.2067,4.2981,4.3613,4.418,4.4668,4.5098,4.551,4.5195,4.4959,4.4998,4.5371,4.5627,4.5627,4.5937,4.613,4.6065,4.6065,4.6043,4.6,4.6,4.5803,4.5365,4.5379,4.5178,4.476,4.475,4.4747,4.4725,4.4304,4.4126,4.4104,4.3678,4.3499,4.3499,4.3444,4.3408,4.3375,4.3375,4.3375,4.3316,4.2953,4.2604,4.2347,4.2696,4.2586,4.2292,4.2292,4.2292,4.2292,4.2237,4.2256,4.2274,4.2182,4.2201,4.2219,4.2182,4.2164,4.2164,4.2164,4.2164,4.2072,4.1724,4.1629,4.1412,4.0641,4.0203,3.9948,3.9836,3.6249,3.3401,3.337,3.0102,2.7756,2.8005,2.8093,2.8106,2.8106,2.8106,2.7991,2.7722,2.7395,2.7061,2.6727,2.6426,2.6272,2.6293,2.6032,2.6807,2.8759,3.0128,3.1773,3.3669,3.5275,3.6072,3.6072,3.6109,3.5907,2.9272,0.0,0.0,0.0,3.2107,3.2828,3.4264,3.4616,3.509,3.6591,3.7513,3.8438,3.9757,4.0466,4.1135,0.0,4.2605,4.328,4.4258,4.4766,4.5154,4.5646,4.5529,4.5508,4.572,4.5937,4.6035,4.6035,4.6211,4.6308,4.6308,4.6308,4.6177,4.5914,4.6155,4.6068,4.5607,4.5607,4.5497,4.5299,4.5034,4.4902,4.4902,4.4703,4.4459,4.4171,4.3682,4.3499,4.3499,4.3499,4.3499,4.3499,4.3499,4.3499,4.3481,4.332,4.3155,4.3026,4.3191,4.3155,4.3008,4.3008,4.3008,4.2953,4.2714,4.2806,4.2916,4.2439,4.2457,4.2586,4.2366,4.2292,4.2292,4.2292,4.2292,4.2256,4.2091,4.2054,4.1742,4.0696,4.0368,3.9999,3.9263,3.68,3.4579,3.356,3.0304,2.7957,2.7917,2.8072,2.82,2.82,2.82,2.8058,2.7722,2.7609,2.7409,2.7115,2.6981,2.6914,2.6914,2.778,2.9117,3.0915,3.2475,3.415,3.591,3.6812,3.7264,3.7245,3.7483,3.752,2.9955,0.0,0.0,3.352,3.4606,3.5585,3.7052,3.7158,3.7527,3.9469,3.9878,4.0212,4.1392,4.1599,4.1768,4.2306,4.28,4.3456,4.4433,4.5018,4.541,4.551,4.5529,4.5625,4.5918,4.6172,4.6308,4.6308,4.6308,4.6308,4.6308,4.6308,4.6155,4.5804,4.6133,4.6155,4.5804,4.5804,4.5804,4.5804,4.5453,4.5299,4.5299,4.5259,4.5006,4.4539,4.4205,4.4048,4.4048,4.3937,4.39,4.3878,4.3878,4.3792,4.3696,4.3805,4.3683,4.3499,4.3499,4.3499,4.3499,4.3499,4.3499,4.3467,4.3155,4.3283,4.3371,4.2784,4.2843,4.299,4.2714,4.2641,4.2641,4.2641,4.2641,4.2604,4.2494,4.2457,4.2127,4.1045,4.0825,4.0513,3.9463,3.7314,3.5311,3.4033,3.0738,2.8278,2.789,2.8045,2.82,2.82,2.82,2.8098,2.7863,2.7749,2.7623,2.7422,2.7349,2.7309,2.7309,2.8969,3.0751,3.2527,3.4269,3.6022,3.7721,3.8033,3.8162,3.818,3.8343,3.849,0.0,0.0,3.3981,3.3519,3.5723,3.8137,3.871,3.9133,3.995,4.1889,4.148,4.1348,4.3272,4.2594,4.2269,4.3693,4.4498,4.494,4.4979,4.572,4.5957,4.5115,4.5018,4.5037,0.0,4.5799,4.6308,4.6308,4.6308,4.6308,4.6308,4.6308,4.6308,4.6287,4.6308,4.6308,4.6287,4.6287,4.6287,4.6287,4.6265,4.6265,4.6262,4.6188,4.5891,4.5466,4.5444,4.5444,4.5406,4.5028,4.4857,4.4851,4.4778,4.4525,4.4219,4.4525,4.4182,4.3499,4.3499,4.3499,4.3499,4.3499,4.3499,4.3499,4.3481,4.3481,4.3481,4.3463,4.3463,4.3481,4.3463,4.3463,4.3463,4.3463,4.3463,4.3375,4.2953,4.2879,4.2623,4.1834,4.1647,4.154,4.1102,3.7704,3.5013,3.4949,3.1527,2.8783,2.8245,2.82,2.82,2.82,2.82,2.82,2.82,2.789,2.7696,2.7682,2.7436,2.7309,2.7309,2.8969,3.0876,3.2937,3.4694,3.6568,3.8563,3.8582,3.8582,3.8582,3.8198,3.8235,0.0,0.0,3.7693,3.9032,4.0187,4.125,4.2348,4.2481,4.2744,4.4039,4.3746,4.3238,4.3237,4.2785,4.2334,4.2159,4.3274,4.4334,4.492,4.5527,4.5664,4.5076,4.5273,0.0,0.0,0.0,0.0,4.6269,4.6308,4.6308,4.6308,4.6308,4.6426,4.6677,4.6697,4.6855,4.7171,4.7148,4.7148,4.7148,4.7148,4.7148,4.7148,4.6835,4.6578,4.6379,4.5756,4.5508,4.5489,4.5356,4.5299,4.5315,4.5638,4.5645,4.5529,4.5652,4.5532,4.516,4.4224,4.3907,4.3915,4.3952,4.3933,4.3897,4.3952,4.3911,4.3907,4.3907,4.3907,4.3907,4.3907,4.3701,4.3499,4.3499,4.3499,4.3463,4.3338,4.3302,4.3063,4.2256,4.2109,4.1889,4.1213,3.9966,3.8125,3.5392,3.1591,2.8876,2.8497,2.8478,2.8398,2.8226,2.82,2.82,2.82,2.8098,2.8031,2.8031,2.7938,2.7905,2.7905,3.0677,3.2562,3.3242,3.612,3.7919,3.86,3.8875,3.8985,3.9003,3.9192,3.932,0.0,3.7898,4.0386,4.1998,4.2777,4.3477,4.4793,4.4674,4.4725,4.6088,4.4968,4.368,4.35,4.211,4.1116,4.1562,4.2525,4.3651,4.4842,4.5391,4.5471,4.4862,4.5058,0.0,0.0,0.0,0.0,4.623,4.6445,4.6501,4.6501,4.668,4.6875,4.7126,4.7168,4.7285,4.76,4.76,4.76,4.76,4.76,4.76,4.7578,4.7441,4.7341,4.7341,4.6712,4.6462,4.6462,4.6309,4.6251,4.629,4.6553,4.6583,4.6465,4.6588,4.6443,4.6027,4.4948,4.456,4.4546,4.4423,4.4357,4.4319,4.4378,4.4357,4.4311,4.4311,4.4311,4.4311,4.4311,4.4127,4.3944,4.3944,4.3834,4.3701,4.3701,4.3591,4.3334,4.2843,4.2733,4.2568,4.2035,4.07,3.8496,3.505,3.1736,2.9424,2.8823,2.8743,2.8644,2.8358,2.8353,2.8312,2.8213,2.8286,2.8299,2.8213,2.8864,2.9222,2.9125,3.2494,3.44,3.4552,3.7364,3.8913,3.908,3.9318,3.9447,3.9447,3.9595,3.965,3.8194,4.0586,4.2141,4.2532,4.3647,4.4919,4.5955,4.5799,4.5989,4.7877,4.5191,4.2853,0.0,0.0,3.9087,4.1924,4.2502,4.3147,4.4764,4.543,4.5412,0.0,0.0,0.0,0.0,0.0,0.0,4.6308,0.0,4.6911,4.6911,4.7344,4.762,4.764,4.764,4.764,4.7659,4.7659,4.7659,4.7659,4.7659,4.7659,4.7679,4.8066,4.8242,4.8242,4.8223,4.8203,4.8183,4.7796,4.764,4.7634,4.7608,4.7329,4.7053,4.7353,4.6982,4.6258,4.5711,4.551,4.54,4.4948,4.4829,4.4806,4.481,4.4783,4.4779,4.4779,4.4756,4.4733,4.4733,4.4714,4.4696,4.4696,4.4402,4.4146,4.4146,4.3811,4.3518,4.3518,4.3518,4.3499,4.3499,4.0021,3.6502,3.4229,3.2207,3.0508,2.921,2.9041,2.8943,2.8636,2.8631,2.8511,2.8259,2.8457,2.8497,2.8245,3.0113,3.1133,3.0867,3.4201,3.6234,3.6631,3.8318,3.9428,3.9875,3.9875,3.9875,3.9836,3.9428,3.9243,4.054,4.3222,4.5474,4.5587,4.6161,4.6822,4.7084,4.7362,4.7582,4.7695,4.5616,4.3837,0.0,0.0,0.0,4.2039,4.3837,0.0,4.5011,4.5664,0.0,0.0,0.0,4.6035,4.5432,4.5994,0.0,0.0,4.7051,4.6911,4.6911,4.7344,4.7737,4.8027,4.8047,4.8203,4.8581,4.8581,4.8581,4.8581,4.8581,4.8581,4.8558,4.8656,4.8714,4.8695,4.834,4.8203,4.8203,4.8086,4.8047,4.8086,4.8401,4.8495,4.8394,4.8489,4.8408,4.8145,4.7592,4.699,4.6416,4.6364,4.6318,4.6278,4.6318,4.604,4.5663,4.5663,4.5409,4.5132,4.5132,4.4934,4.4696,4.4696,4.4623,4.4549,4.4549,4.4237,4.3962,4.3962,4.3701,4.3499,4.3499,4.1344,3.8863,3.6586,3.4572,3.2463,2.9985,2.9677,2.9477,2.8956,2.8903,2.8876,2.8796,2.8863,2.8876,2.8796,3.0574,3.1621,3.1554,3.499,3.6926,3.705,3.8464,3.9261,3.9392,3.9392,3.9392,3.9371,3.9614,3.9726,4.2995,4.4833,4.5941,4.6828,4.7281,4.7377,4.6904,4.6856,4.668,4.595,4.3801,0.0,0.0,0.0,0.0,0.0,0.0,0.0,4.5206,4.5879,4.6191,0.0,4.6462,0.0,4.6269,4.6836,4.7324,0.0,4.7363,4.7263,4.7458,4.7933,4.8265,4.8499,4.8519,4.8636,4.8913,4.8913,4.8913,4.8913,4.8913,4.8913,4.8913,4.8913,4.8913,4.8894,0.0,4.8519,4.8519,4.8519,4.8519,4.8538,4.8815,4.8913,4.8933,4.9105,4.916,4.9137,4.8811,4.854,4.8153,4.7397,4.6925,4.673,4.6781,4.6529,4.6276,4.6276,4.6229,4.616,4.5927,4.5695,4.5483,4.5274,4.51,4.4948,4.4948,4.4659,4.4366,4.4366,4.4054,4.3756,4.3756,4.196,3.9789,3.7625,3.5638,3.3432,3.082,3.0274,2.994,2.945,2.929,2.9157,2.9001,2.913,2.9515,3.0189,3.2064,3.3456,3.415,3.6875,3.838,3.838,3.9125,3.9522,3.9522,3.9685,3.9777,3.9795,4.0219,4.0444,4.4949,4.5724,4.5412,4.7158,4.7617,4.7305,4.6158,4.5493,4.4772,4.3719,0.0,0.0,4.2556,0.0,3.8748,4.2851,0.0,4.3277,4.5476,4.6074,4.6484,4.6931,4.7048,4.7067,4.7067,4.7441,4.7718,4.7757,4.7718,4.7832,4.8183,4.8636,4.8933,4.8968,4.8933,4.8972,4.907,4.8972,4.8933,4.8968,4.8933,4.8913,4.8913,4.8972,4.8952,4.8913,0.0,0.0,4.8913,4.8913,4.8913,4.8913,4.8972,4.8968,4.9027,4.9453,4.9586,4.9586,4.9586,4.9863,4.9921,4.8235,4.7421,4.7084,4.7084,4.7037,4.6967,4.6967,4.7272,4.7459,4.692,4.676,4.6643,4.6166,4.5792,4.5517,4.548,4.5118,4.4769,4.4696,4.4421,4.4182,4.4182,4.2452,4.0288,3.8023,3.6181,3.4157,3.1598,3.0808,3.0364,3.0007,2.978,2.9526,2.9148,2.9702,3.0602,3.1922,3.4213,3.6119,3.745,3.9237,4.0205,4.0129,4.0095,4.004,3.9985,4.0387,4.0568,4.0586,4.1047,4.1268,4.4463,4.6224,4.7724,4.8072,4.8147,4.7762,4.6255,4.5493,0.0,0.0,0.0,4.0985,4.3549,4.3092,0.0,4.4794,0.0,0.0,0.0,0.0,4.6582,0.0,0.0,0.0,0.0,0.0,0.0,0.0,0.0,4.8125,4.8203,4.8636,4.9046,4.9394,4.9066,4.9265,4.9965,4.9265,4.9066,4.9391,4.9066,4.8913,4.8913,4.9238,4.9199,4.8933,4.9258,0.0,4.8913,4.8913,4.8913,4.891,4.9258,4.9414,4.9449,4.9902,5.0082,5.0082,5.0082,5.0141,5.0074,4.9379,4.9343,4.9563,4.9563,4.9279,4.8904,4.8904,4.8691,4.8353,4.7809,4.7665,4.7545,4.7012,4.6837,4.6709,4.6366,4.57,4.5095,4.4769,4.4641,4.4586,4.4586,4.4257,4.2639,3.8704,3.7795,3.6129,3.2144,3.1289,3.0875,3.0364,3.0471,3.0354,2.9784,3.1733,3.2983,3.3043,3.6595,3.8819,3.9078,4.0887,4.1724,4.1393,4.1066,4.0735,4.0405,4.0809,4.0992,4.1011,4.1742,4.2091,4.6069,4.661,4.6721,4.8318,4.7882,4.6624,4.5023,0.0,0.0,0.0,0.0,3.9705,4.1504,0.0,0.0,0.0,0.0,0.0,0.0,0.0,0.0,0.0,0.0,0.0,0.0,0.0,0.0,0.0,0.0,4.8789,4.8578,4.8988,4.9297,4.9488,4.9316,4.9414,4.9844,4.9203,4.9011,4.9203,4.8988,4.9007,4.9219,4.941,4.9531,4.9574,4.9766,0.0,4.9574,4.9574,4.9574,4.9594,4.9785,4.9863,4.9922,5.0351,5.0508,5.0508,5.0508,5.0644,5.0762,5.0332,4.9986,4.9777,4.9777,4.9586,4.9396,4.9396,4.9444,4.9348,4.8824,4.847,4.8134,4.7648,4.7287,4.7057,4.6855,4.6342,4.587,4.5668,4.5301,4.5026,4.5026,4.4843,4.3641,4.049,4.0015,3.8501,3.4317,3.3628,3.2825,3.1004,3.0795,3.102,3.1514,3.2693,3.4112,3.5786,3.7972,3.9526,4.0285,4.1401,4.1907,4.1702,4.1503,4.1412,4.143,4.1855,4.2039,4.2057,4.2861,4.3246,4.646,4.6398,4.572,4.815,4.7734,4.6228,4.4124,4.3107,0.0,0.0,0.0,3.8152,3.9344,0.0,0.0,0.0,0.0,0.0,0.0,0.0,0.0,0.0,0.0,0.0,0.0,0.0,0.0,0.0,0.0,0.0,4.9206,4.9473,4.9683,4.9781,4.9683,4.9683,4.9781,4.9379,4.9187,4.9187,4.9187,4.934,4.9644,4.9742,4.9941,5.0199,5.0297,0.0,0.0,5.0199,5.0199,5.0219,5.0297,5.0336,5.0395,5.0781,5.0937,5.0937,5.0937,5.1128,5.1343,5.1011,5.0415,4.9833,4.9833,4.9833,4.9833,4.9833,5.012,5.0354,4.9809,4.9378,4.8903,4.83,4.7761,4.7362,4.7265,4.691,4.6641,4.6641,4.6103,4.5682,4.5682,4.5407,4.4487,4.23,4.1961,4.0439,3.6235,3.6077,3.5104,3.1854,3.1634,3.2144,3.3125,3.412,3.5822,3.8514,3.9444,4.04,4.1571,4.1925,4.2091,4.2091,4.2091,4.2256,4.2568,4.2953,4.3177,4.3173,4.3889,4.4237,4.274,4.4949,4.7286,4.7571,4.8592,4.8594,4.5029,0.0,0.0,0.0,3.675,3.7576,3.914,0.0,0.0,0.0,0.0,0.0,0.0,0.0,0.0,0.0,0.0,0.0,0.0,0.0,0.0,0.0,0.0,0.0,5.0082,5.0121,5.0293,5.0683,5.0312,5.0293,5.0683,5.0297,5.0082,5.0082,5.0082,5.0102,5.016,5.0508,5.0508,5.0219,5.0586,0.0,0.0,5.0199,5.0199,5.0238,5.0605,5.0742,5.0801,5.1206,5.1343,5.1343,5.1343,5.1382,5.1401,5.1362,5.1299,5.1212,5.1212,5.1212,5.1212,5.1212,5.1236,5.1163,5.0701,5.0531,5.0238,4.9235,4.8679,4.8229,4.7742,4.7332,4.7057,4.7057,4.6984,4.6947,4.6947,4.691,4.5952,4.3188,4.2799,4.1073,3.6319,3.7342,3.6954,3.291,3.381,3.442,3.3723,3.7453,3.9847,3.9936,4.1907,4.3142,4.3279,4.3316,4.3334,4.3334,4.3334,4.3353,4.3389,4.3774,4.3999,4.3999,4.4439,4.4641,4.4558,4.5505,4.6419,4.8679,4.7606,4.5604,4.411,0.0,0.0,3.7234,3.709,3.7618,3.8258,3.8121,0.0,0.0,0.0,0.0,0.0,0.0,0.0,0.0,0.0,0.0,0.0,0.0,0.0,0.0,0.0,0.0,5.0918,5.0683,5.0625,5.0801,5.0644,5.0644,5.0801,5.0391,5.0199,5.0199,5.0199,5.0336,5.0566,5.0723,5.0859,5.0937,5.1089,0.0,0.0,5.0937,5.0937,5.0957,5.1089,5.1148,5.1187,5.1343,5.1577,5.1816,5.1816,5.1992,5.2182,5.2182,5.2182,5.2085,5.1558,5.1597,5.1816,5.1816,5.2012,5.2074,5.1649,5.0883,5.0029,4.9292,4.8743,4.8318,4.8097,4.7736,4.7461,4.7461,4.7277,4.7112,4.7112,4.7112,4.6718,4.5604,4.543,4.4189,4.0787,4.1058,4.0293,3.6925,3.7024,3.7038,3.6352,3.9093,4.1226,4.2085,4.3229,4.3738,4.3499,4.3719,4.387,4.387,4.387,4.398,4.4219,4.4384,4.4457,4.4476,4.4879,4.5058,4.486,4.5678,4.6094,4.8372,4.671,4.4228,0.0,0.0,3.8673,3.7024,3.7071,3.7396,3.7396,3.7366,3.7213,0.0,0.0,3.6569,0.0,0.0,0.0,0.0,0.0,0.0,0.0,0.0,0.0,0.0,0.0,0.0,5.1382,5.1128,5.0972,5.0972,5.0972,5.0937,5.0801,5.0644,5.0512,5.0395,5.0488,5.0703,5.0972,5.0972,5.1128,5.1401,0.0,0.0,0.0,5.1401,5.1401,5.1421,5.1558,5.1597,5.1616,5.1733,5.1987,5.2266,5.2266,5.2461,5.2715,5.2715,5.2715,5.2598,5.1968,5.2031,5.2266,5.2266,5.248,5.2637,5.2344,5.1509,5.0519,4.9721,4.9238,4.8829,4.8378,4.809,4.7864,4.7864,4.7644,4.7461,4.7461,4.7461,4.7424,4.7295,4.7277,4.6386,4.3904,4.4119,4.3231,3.9876,4.0466,4.0545,3.9203,4.098,4.2655,4.378,4.4127,4.4146,4.387,4.4127,4.4347,4.4435,4.4435,4.4659,4.5045,4.5045,4.5045,4.5063,4.5462,4.5718,4.2013,4.4859,4.7084,4.5853,4.6358,4.6178,0.0,3.9246,3.6897,3.6091,3.6333,3.6706,3.6706,3.8065,3.8477,3.6363,3.7047,0.0,0.0,0.0,0.0,0.0,0.0,0.0,0.0,0.0,0.0,0.0,0.0,0.0,5.1401,5.1401,5.1401,5.1401,5.1401,5.1206,5.0801,5.1187,5.1187,5.0801,5.1206,5.1401,5.1401,5.1401,5.1401,0.0,0.0,0.0,0.0,5.1401,5.1401,5.144,5.1914,5.2095,5.2153,5.2539,5.2695,5.2695,5.2695,5.2695,5.2715,5.2715,5.2715,5.2715,5.2695,5.2695,5.2695,5.2695,5.2695,5.2715,5.2695,5.267,5.228,5.0832,5.0488,5.0077,4.8625,4.8311,4.8311,4.8311,4.8292,4.8292,4.8292,4.8292,4.8139,4.7754,4.7681,4.6783,4.4301,4.5773,4.5321,4.0779,4.3976,4.5135,4.1923,4.3516,4.4655,4.4678,4.4678,4.4696,4.4678,4.4678,4.4879,4.5278,4.5297,4.548,4.5883,4.5883,4.5883,4.5907,4.6311,4.6714,3.927,4.1443,4.3138,4.3006,4.2608,4.1644,3.9517,3.8087,3.708,3.6554,3.748,3.8414,3.8414,3.8126,3.8204,3.9083,3.801,0.0,0.0,0.0,0.0,0.0,0.0,0.0,0.0,0.0,0.0,0.0,0.0,0.0,5.1401,5.1401,5.1401,5.1401,5.1401,5.1343,5.1206,5.1343,5.1343,5.1206,5.1343,5.1401,5.1401,5.1401,5.1401,0.0,0.0,0.0,0.0,5.1875,5.2051,5.2299,5.2461,5.2519,5.2519,5.2656,5.2891,5.317,5.317,5.3359,5.3588,5.3588,5.3588,5.3588,5.3588,5.3398,5.3248,5.351,5.3398,5.317,5.317,5.2674,5.2047,5.1562,5.1199,5.0736,4.9852,4.9683,4.9557,4.9187,4.9111,4.9111,4.9111,4.8891,4.8671,4.8543,4.8286,4.7734,4.6678,4.7107,4.6846,4.5127,4.6103,4.5718,4.2698,4.4339,4.5522,4.5522,4.5778,4.5925,4.5925,4.6177,4.6397,4.6525,4.6525,4.6599,4.6727,4.6727,4.6727,4.6727,4.6855,4.6819,0.0,3.9841,4.1137,4.1106,4.0235,3.9157,3.8333,3.7346,3.6645,3.6872,3.8155,3.8906,3.7955,3.791,3.8069,3.8188,3.8038,0.0,0.0,0.0,0.0,0.0,0.0,0.0,0.0,0.0,0.0,0.0,0.0,0.0,5.1401,5.1401,5.1401,5.1401,5.1401,5.1401,5.1401,5.1401,5.1401,5.1401,5.1401,5.1401,5.1421,5.1577,5.1655,0.0,0.0,0.0,0.0,5.2324,5.248,5.2734,5.2891,5.2949,5.2969,5.3119,5.3379,5.3638,5.3638,5.3789,5.3998,5.3998,5.4115,5.4252,5.4252,5.3965,5.3672,5.392,5.3828,5.3638,5.3638,5.3165,5.2605,5.2255,5.194,5.1523,5.0817,5.0654,5.0477,4.992,4.9819,4.9724,4.9522,4.9294,4.9129,4.9129,4.8909,4.8598,4.8212,4.8157,4.7937,4.7387,4.7332,4.6531,4.4591,4.5609,4.6342,4.6342,4.658,4.6733,4.6733,4.6965,4.7112,4.7112,4.7112,4.7112,4.7112,4.7112,4.7112,4.7112,4.7259,4.7112,0.0,3.9528,4.0533,3.9662,3.8919,3.839,3.8317,3.6864,0.0,3.711,3.835,3.8491,3.6108,3.7535,3.8027,3.4888,0.0,0.0,0.0,0.0,0.0,0.0,0.0,0.0,0.0,0.0,0.0,0.0,0.0,0.0,5.1401,5.1401,5.1401,5.1401,5.1401,5.1401,5.1401,5.1401,5.1401,5.1401,5.144,5.146,5.146,5.1933,0.0,0.0,0.0,0.0,0.0,5.2754,5.2773,5.2851,5.3267,5.3443,5.3482,5.3842,5.3998,5.3998,5.3998,5.3998,5.4017,5.4037,5.4375,5.4752,5.4752,5.4433,5.4095,5.4095,5.4076,5.4056,5.4056,5.4037,5.3773,5.2908,5.2684,5.2462,5.153,5.1334,5.1132,5.052,5.0393,5.0222,4.9664,4.9569,4.9551,4.9551,4.9514,4.9368,4.8976,4.8939,4.8653,4.7864,4.7791,4.7626,4.7259,4.7149,4.7112,4.7112,4.713,4.7149,4.7149,4.7185,4.7185,4.7185,4.7185,4.7185,4.7185,4.7185,4.7185,4.7204,4.7607,4.7552,3.5569,0.0,3.6827,3.5307,3.6271,3.7171,0.0,3.6029,3.7054,0.0,0.0,0.0,0.0,0.0,0.0,0.0,0.0,0.0,0.0,0.0,0.0,0.0,0.0,0.0,0.0,0.0,0.0,0.0,0.0,5.1777,5.1421,5.1401,5.1401,5.1401,5.1401,5.1401,5.1401,5.1401,5.1401,5.1421,5.1777,5.1933,5.1953,5.2363,0.0,0.0,0.0,0.0,5.3228,5.3228,5.3418,5.3705,5.3803,5.3842,5.3861,5.3959,5.3998,5.3998,5.3998,5.3998,5.4056,5.4414,5.4824,5.5156,5.5156,5.5098,5.4974,5.4974,5.4785,5.4531,5.4531,5.4277,5.3953,5.3728,5.3683,5.3491,5.2865,5.2744,5.2437,5.1419,5.1213,5.1058,5.0509,5.0149,4.9966,4.9966,4.9716,4.9478,4.9368,4.9368,4.9184,4.8689,4.8634,4.8598,4.8506,4.7644,4.7112,4.7112,4.7387,4.7552,4.7552,4.7846,4.8035,4.8035,4.8035,4.8035,4.8035,4.8035,4.8035,4.8035,4.8432,4.8249,3.5144,3.527,3.511,3.4991,3.5393,3.5899,3.6151,0.0,0.0,0.0,0.0,0.0,0.0,0.0,0.0,0.0,0.0,0.0,0.0,0.0,0.0,0.0,0.0,0.0,0.0,0.0,0.0,0.0,0.0,5.168,5.1421,5.1401,5.1401,5.1401,5.1401,5.1323,5.1128,5.1304,5.1304,5.1128,5.1777,5.2114,5.2134,5.274,5.3033,0.0,0.0,0.0,5.3672,5.3672,5.3926,5.4316,5.4076,5.4232,5.4564,5.4394,5.4453,5.4583,5.4583,5.4583,5.4622,5.4883,5.5254,5.556,5.556,5.5742,5.582,5.541,5.5137,5.4961,5.4961,5.4785,5.4583,5.4583,5.4473,5.4298,5.4209,5.386,5.3429,5.2985,5.235,5.18,5.1441,5.0826,5.0369,5.0369,5.0186,4.9966,4.9808,4.979,4.9617,4.9221,4.9184,4.9184,4.9184,4.8579,4.8212,4.8212,4.8414,4.8524,4.8524,4.8726,4.8836,4.8836,4.8836,4.8836,4.8836,4.8836,4.8744,4.8579,4.8983,4.8744,3.6024,3.5466,3.51,3.6392,3.5913,3.5758,3.8149,0.0,0.0,0.0,0.0,0.0,0.0,0.0,0.0,0.0,0.0,0.0,0.0,0.0,0.0,0.0,0.0,0.0,0.0,0.0,0.0,0.0,0.0,5.1479,5.1421,5.1401,5.1401,5.1401,5.1401,5.1206,5.0801,5.1206,5.1226,5.0898,5.1699,5.2134,5.2232,5.3033,5.3424,5.3502,0.0,0.0,5.3998,5.3998,5.4277,5.4674,5.4277,5.4583,5.5254,5.4902,5.5,5.5312,5.5312,5.5351,5.5384,5.5384,5.5657,5.6009,5.6009,5.6289,5.6452,5.5703,5.5449,5.5384,5.5384,5.5351,5.5312,5.5312,5.5039,5.4883,5.5234,5.472,5.4253,5.4477,5.3462,5.2529,5.2346,5.1521,5.0882,5.0882,5.0882,5.0735,5.0332,5.0277,5.0112,4.9643,4.9588,4.9588,4.9588,4.9588,4.9624,4.968,4.9569,4.9496,4.9496,4.9496,4.9496,4.9496,4.9496,4.9496,4.9496,4.9496,4.9331,4.8994,4.9404,4.9184,3.8867,3.8664,3.7718,3.6572,3.8052,3.9589,0.0,0.0,0.0,0.0,0.0,0.0,0.0,0.0,0.0,0.0,0.0,0.0,0.0,0.0,0.0,0.0,0.0,0.0,0.0,0.0,0.0,0.0,0.0,5.1816,5.1421,5.1401,5.1401,5.1401,5.1401,5.1206,5.0801,5.1206,5.1382,5.1323,5.1836,5.2266,5.2637,5.315,5.3599,5.39,0.0,5.3998,5.3998,5.3998,5.4277,5.4694,5.4609,5.4883,5.5293,5.5234,5.5254,5.5312,5.5312,5.5521,5.5813,5.5813,5.6133,5.6484,5.6484,5.6523,5.6589,5.6426,5.6113,5.5813,5.5813,5.554,5.5312,5.5312,5.5254,5.5234,5.5293,5.5195,5.498,5.4574,5.392,5.3285,5.2806,5.216,5.1725,5.1725,5.1725,5.1579,5.1183,5.1128,5.0827,5.0094,5.0002,5.0002,5.0002,5.0002,5.0149,5.0479,4.9881,4.9496,4.9496,4.9496,4.9496,4.9496,4.9496,4.9496,4.9496,4.9496,4.9478,4.9423,4.9819,4.9746,3.9328,3.9712,3.9926,4.0316,4.0253,4.0121,0.0,0.0,0.0,0.0,0.0,0.0,0.0,0.0,0.0,0.0,0.0,0.0,0.0,0.0,0.0,0.0,0.0,0.0,0.0,0.0,0.0,0.0,0.0,0.0,5.1777,5.1538,5.1519,5.1777,5.1538,5.1323,5.1128,5.1304,5.1284,5.1069,5.1758,5.2305,5.2734,5.3418,5.3828,5.4017,0.0,5.4375,5.4375,5.4375,5.4765,5.5332,5.5117,5.541,5.5996,5.5996,5.5996,5.5996,5.5996,5.6133,5.6289,5.6289,5.6426,5.6609,5.6609,5.6738,5.6875,5.664,5.6445,5.6289,5.6289,5.6133,5.5996,5.5996,5.582,5.5677,5.5937,5.5625,5.537,5.5581,5.4597,5.3693,5.3613,5.2543,5.1646,5.1595,5.1395,5.1175,5.0992,5.1,5.0827,5.0461,5.0241,5.0186,5.0406,5.0021,5.0039,5.0662,5.0332,5.0156,5.0156,5.0156,5.0156,5.0156,5.0156,5.0156,5.0156,5.0156,5.0156,5.0131,5.0332,5.0204,4.0005,4.0638,4.1707,4.3592,0.0,0.0,0.0,0.0,0.0,0.0,0.0,0.0,0.0,0.0,0.0,0.0,0.0,0.0,0.0,0.0,0.0,0.0,0.0,0.0,0.0,0.0,0.0,0.0,0.0,0.0,5.1914,5.1597,5.1558,5.1914,5.1577,5.1401,5.1401,5.1401,5.1245,5.0957,5.1621,5.2148,5.2598,5.3334,5.3705,5.3724,5.4297,5.4473,5.4401,5.4518,5.5019,5.5735,5.543,5.582,5.6609,5.6609,5.6609,5.6609,5.6609,5.6609,5.6609,5.6609,5.6609,5.6628,5.6699,5.6953,5.7168,5.6953,5.6921,5.6882,5.6758,5.6738,5.6738,5.6738,5.6406,5.6145,5.6504,5.6074,5.5801,5.6465,5.5333,5.4305,5.4463,5.3055,5.1902,5.1814,5.1335,5.0974,5.0974,5.0882,5.079,5.0699,5.0424,5.0369,5.0662,5.0156,5.0046,5.0662,5.0516,5.0461,5.0552,5.0552,5.0589,5.0699,5.0699,5.0699,5.0699,5.0699,5.0699,5.0699,5.0699,5.0534,4.2406,4.2598,4.2919,4.4024,0.0,0.0,0.0,0.0,0.0,0.0,0.0,0.0,0.0,0.0,0.0,0.0,0.0,0.0,0.0,0.0,0.0,0.0,0.0,0.0,0.0,0.0,0.0,0.0,0.0,0.0,5.146,5.1421,5.1421,5.146,5.1421,5.1401,5.1401,5.1401,5.1382,5.1362,5.1421,5.1675,5.2173,5.2598,5.2787,5.2851,5.3685,5.3848,5.3502,5.3906,5.4564,5.5351,5.5312,5.582,5.6609,5.6609,5.6609,5.6609,5.6609,5.6609,5.6609,5.6609,5.6609,5.666,5.7051,5.7187,5.7285,5.7683,5.7808,5.7703,5.7265,5.7168,5.7168,5.7168,5.6855,5.6543,5.6582,5.6543,5.6504,5.6609,5.6049,5.5448,5.5094,5.4056,5.3252,5.3262,5.2421,5.1817,5.1817,5.1487,5.1102,5.0735,5.0662,5.0662,5.0699,5.0644,5.0625,5.068,5.001,4.9746,5.0131,5.0149,5.0314,5.068,5.0699,5.0699,5.0699,5.0699,5.0699,5.0699,5.0699,5.068,4.2164,4.2564,4.3439,4.6126,0.0,0.0,0.0,0.0,0.0,0.0,0.0,0.0,0.0,0.0,0.0,0.0,0.0,0.0,0.0,0.0,0.0,0.0,0.0,0.0,0.0,0.0,0.0,0.0,0.0,0.0,5.1816,5.1558,5.1538,5.1836,5.1558,5.1401,5.1401,5.1699,5.1836,5.1836,5.1836,5.2207,5.2915,5.332,5.351,5.3529,5.418,5.4336,5.4225,5.4355,5.4922,5.5696,5.5996,5.6308,5.6609,5.6609,5.6609,5.6609,5.6609,5.6758,5.6933,5.668,5.698,5.739,5.7246,5.757,5.798,5.791,5.8289,5.8524,5.782,5.7644,5.7644,5.7644,5.7285,5.6973,5.6973,5.6777,5.666,5.6933,5.657,5.6193,5.594,5.5107,5.4211,5.3516,5.286,5.2334,5.1962,5.1542,5.1257,5.1092,5.0845,5.0479,5.001,5.0186,5.0222,4.9973,5.0156,5.0314,5.0461,5.0461,5.0534,5.068,5.0699,5.0699,5.0699,5.0699,5.0699,5.0699,5.0699,5.0552,4.1899,4.226,4.3223,0.0,0.0,0.0,0.0,0.0,0.0,0.0,0.0,0.0,0.0,0.0,0.0,0.0,0.0,0.0,0.0,0.0,0.0,0.0,0.0,0.0,0.0,0.0,0.0,0.0,0.0,0.0,0.0,5.1558,5.1538,5.1875,5.1719,5.1616,5.1616,5.207,5.2368,5.2505,5.2505,5.274,5.3189,5.3613,5.375,5.3627,5.4219,5.442,5.4303,5.4414,5.498,5.5774,5.6367,5.6609,5.6609,5.6609,5.6609,5.6609,5.6609,5.6777,5.6973,5.668,5.6999,5.7488,5.7422,5.7851,5.832,5.8317,5.8758,5.9062,5.8465,5.8203,5.8086,5.8086,5.7734,5.7422,5.7422,5.7187,5.7097,5.7363,5.7214,5.6923,5.6693,5.5897,5.5061,5.424,5.3361,5.277,5.2661,5.2012,5.1493,5.139,5.0976,5.0486,4.9936,5.0131,5.0167,4.99,5.0387,5.0644,5.0516,5.0516,5.057,5.0699,5.0699,5.0699,5.0699,5.0699,5.0699,5.0699,5.0699,5.0552,4.1995,4.2019,0.0,0.0,0.0,0.0,0.0,0.0,0.0,0.0,0.0,0.0,0.0,0.0,0.0,0.0,0.0,0.0,0.0,0.0,0.0,0.0,0.0,0.0,0.0,0.0,0.0,0.0,0.0,0.0,0.0,5.1421,5.1421,5.1421,5.1855,5.2114,5.2114,5.25,5.293,5.341,5.3384,5.317,5.2734,5.3189,5.315,5.2773,5.3627,5.3769,5.3449,5.3848,5.4525,5.539,5.625,5.6582,5.6582,5.6582,5.6609,5.6582,5.6582,5.6628,5.6628,5.6609,5.6628,5.6784,5.7625,5.7898,5.8102,5.8945,5.9207,5.9207,5.9207,5.8859,5.8507,5.8507,5.8203,5.7926,5.7926,5.7898,5.7898,5.7898,5.7926,5.7762,5.7305,5.6437,5.5817,5.5717,5.4074,5.32,5.4181,5.3017,5.195,5.1548,5.1018,5.0725,5.0699,5.0699,5.0699,5.0699,5.0699,5.0516,5.0131,5.0112,5.0296,5.068,5.0699,5.0699,5.0699,5.0699,5.0699,5.0699,5.0699,5.0699,4.1995,0.0,0.0,0.0,0.0,0.0,0.0,0.0,0.0,0.0,0.0,0.0,0.0,0.0,0.0,0.0,0.0,0.0,0.0,0.0,0.0,0.0,0.0,0.0,0.0,0.0,0.0,0.0,0.0,0.0,0.0,5.2051,5.2031,5.2324,5.2168,5.2251,5.2519,5.2974,5.3248,5.3384,5.3672,5.3744,5.3627,5.3769,5.375,5.3627,5.3881,5.392,5.3867,5.4316,5.4805,5.5345,5.5918,5.6106,5.6165,5.6797,5.6614,5.6211,5.6816,5.7031,5.6973,5.668,5.7019,5.7507,5.7422,5.7851,5.8379,5.8625,5.8945,5.9207,5.9207,5.909,5.9004,5.9004,5.8652,5.832,5.832,5.8113,5.7969,5.8262,5.832,5.8273,5.8128,5.7863,5.7449,5.6702,5.6126,5.5502,5.4803,5.3821,5.286,5.2081,5.1549,5.1122,5.0725,5.0699,5.0699,5.0699,5.1044,5.1041,5.0541,5.0516,5.057,5.0699,5.0699,5.0699,5.0699,5.0699,5.0699,5.0699,5.0699,5.0888,4.312,0.0,0.0,0.0,0.0,0.0,0.0,0.0,0.0,0.0,0.0,0.0,0.0,0.0,0.0,0.0,0.0,0.0,0.0,0.0,0.0,0.0,0.0,0.0,0.0,0.0,0.0,0.0,0.0,0.0,0.0,5.2461,5.2441,5.2695,5.2661,5.274,5.2994,5.3424,5.3633,5.3633,5.3881,5.3998,5.3998,5.3998,5.3998,5.3998,5.3998,5.3998,5.4037,5.4512,5.4922,5.5351,5.5735,5.6009,5.625,5.6777,5.664,5.6243,5.6777,5.6953,5.6914,5.6687,5.696,5.7371,5.7246,5.7695,5.8273,5.8449,5.8828,5.9207,5.9207,5.9207,5.9207,5.9207,5.8976,5.8769,5.8769,5.8594,5.8496,5.8711,5.8769,5.8769,5.8769,5.8625,5.8299,5.7696,5.7304,5.6553,5.5161,5.4527,5.3843,5.294,5.2339,5.1761,5.1081,5.0957,5.0968,5.1011,5.1311,5.1459,5.1374,5.1148,5.1122,5.1374,5.1122,5.1122,5.1374,5.1374,5.1374,5.1374,5.1374,5.1537,0.0,0.0,0.0,0.0,0.0,0.0,0.0,0.0,0.0,0.0,0.0,0.0,0.0,0.0,0.0,0.0,0.0,0.0,0.0,0.0,0.0,0.0,0.0,0.0,0.0,0.0,0.0,0.0,0.0,0.0,0.0,5.2793,5.2793,5.2832,5.3209,5.3404,5.3443,5.3828,5.3998,5.3998,5.3998,5.3998,5.3998,5.3998,5.3998,5.3998,5.3998,5.3998,5.4037,5.4453,5.4883,5.5351,5.5735,5.6145,5.6543,5.666,5.6648,5.6543,5.6648,5.6621,5.6609,5.6609,5.6609,5.666,5.7031,5.7507,5.7969,5.8332,5.88,5.9207,5.9207,5.9207,5.9207,5.9207,5.9207,5.918,5.9149,5.9149,5.9149,5.918,5.9149,5.909,5.9121,5.8742,5.8449,5.8449,5.7766,5.6784,5.5454,5.5227,5.4854,5.4013,5.3326,5.2582,5.1649,5.1547,5.1524,5.1541,5.1689,5.2037,5.2573,5.1936,5.1847,5.2382,5.1873,5.1847,5.2408,5.2408,5.2427,5.2439,5.2439,5.2509,0.0,0.0,0.0,0.0,0.0,0.0,0.0,0.0,0.0,0.0,0.0,0.0,0.0,0.0,0.0,0.0,0.0,0.0,0.0,0.0,0.0,0.0,0.0,0.0,0.0,0.0,0.0,0.0,0.0,0.0,5.3705,5.3418,5.3379,5.3705,5.3521,5.356,5.3861,5.3959,5.3998,0.0,5.3998,5.3998,5.3998,5.3998,5.3998,5.3998,5.3998,5.3998,5.4017,5.4115,5.4583,5.5351,5.5735,5.597,5.6165,5.7234,5.6953,5.6145,5.6836,5.6855,5.6609,5.6609,5.6609,5.6628,5.6699,5.7293,5.7926,5.7996,5.8582,5.9207,5.9207,5.9207,5.9207,5.9207,5.9207,5.909,5.8742,5.8652,5.8769,5.9121,5.8641,5.8289,5.8594,5.8301,5.8027,5.8027,5.7879,5.7512,5.6823,5.6134,5.5489,5.4893,5.4405,5.3589,5.2189,5.2736,5.2864,5.2118,5.3192,5.3905,5.4055,5.2853,5.2279,5.2408,5.2279,5.2279,5.2408,5.2408,5.2552,5.2855,5.2855,5.3287,0.0,0.0,0.0,0.0,0.0,0.0,0.0,0.0,0.0,0.0,0.0,0.0,0.0,0.0,0.0,0.0,0.0,0.0,0.0,0.0,0.0,0.0,0.0,0.0,0.0,0.0,0.0,0.0,0.0,5.3789,5.3998,5.3808,5.3789,5.3998,5.3808,5.3789,5.3998,5.3998,5.3998,5.3998,5.3998,5.3998,5.3998,5.3998,5.3998,5.3998,5.3998,5.3998,5.4017,5.4232,5.4726,5.5351,5.5735,5.6028,5.6328,5.7039,5.6836,5.6308,5.6758,5.6777,5.6609,5.6609,5.6609,5.6609,5.6609,5.7214,5.7898,5.7898,5.8524,5.9207,5.9207,5.9207,5.9149,5.8917,5.9051,5.9121,5.8887,5.8652,5.8566,5.8828,5.8348,5.7984,5.8183,5.8027,5.782,5.7605,5.7539,5.7402,5.6973,5.6523,5.6039,5.5533,5.523,5.459,5.3408,5.3723,5.3779,5.3317,5.4058,5.4639,5.4874,5.4181,5.3775,5.3775,5.3541,5.3515,5.3775,5.3775,5.389,5.4102,5.4102,5.4374,0.0,0.0,0.0,0.0,0.0,0.0,0.0,0.0,0.0,0.0,0.0,0.0,0.0,0.0,0.0,0.0,0.0,0.0,0.0,0.0,0.0,0.0,0.0,0.0,0.0,0.0,0.0,0.0,0.0,5.3998,5.3998,5.3998,5.3998,5.3998,5.3998,5.3998,5.3998,5.392,5.392,5.3998,5.3998,5.3959,5.39,5.3978,5.3998,5.3998,5.3998,5.4056,5.4154,5.4531,5.498,5.5423,5.5852,5.6269,5.6628,5.6687,5.664,5.6609,5.6609,5.6609,5.6609,5.6609,5.6609,5.6609,5.6609,5.7156,5.7808,5.7879,5.8465,5.909,5.918,5.9207,5.909,5.8711,5.8917,5.9149,5.9004,5.8594,5.8301,5.839,5.8039,5.7762,5.7683,5.7722,5.7625,5.7168,5.7168,5.7051,5.664,5.6609,5.6445,5.6067,5.5914,5.5524,5.4681,5.4663,5.4668,5.4616,5.476,5.5061,5.5501,5.5527,5.5527,5.5527,5.4952,5.4848,5.5312,5.5312,5.5351,5.5384,5.5384,5.5449,0.0,0.0,0.0,0.0,0.0,0.0,0.0,0.0,0.0,0.0,0.0,0.0,0.0,0.0,0.0,0.0,0.0,0.0,0.0,0.0,0.0,0.0,0.0,0.0,0.0,0.0,0.0,0.0,5.3998,5.3998,5.3998,5.3998,5.3998,5.3998,5.3998,5.3998,5.3998,5.3652,5.3678,5.3998,5.3998,5.3828,5.3482,5.3848,5.3998,5.3998,5.3998,5.4213,5.459,5.4674,5.5137,5.5872,5.6328,5.6523,5.6621,5.6992,5.6894,5.6609,5.6609,5.6609,5.6609,5.6609,5.6609,5.6609,5.6609,5.6914,5.7383,5.7808,5.8215,5.8683,5.909,5.9207,5.918,5.9121,5.9149,5.8993,5.823,5.7695,5.75,5.7898,5.7598,5.7187,5.6843,5.7051,5.7148,5.6738,5.6973,5.7051,5.664,5.6609,5.6589,5.6504,5.6489,5.6093,5.5104,5.5798,5.5936,5.5059,5.5839,5.6353,5.6406,5.6426,5.6426,5.6426,5.5605,5.5234,5.5312,5.5312,5.5462,5.5813,5.5813,5.6028,4.8652,5.4159,0.0,0.0,0.0,0.0,0.0,0.0,0.0,0.0,0.0,0.0,0.0,0.0,0.0,0.0,0.0,0.0,0.0,0.0,0.0,0.0,0.0,0.0,0.0,0.0,0.0,0.0,5.4134,5.4115,5.4375,5.4134,5.3998,5.3998,5.3998,5.3998,5.3998,5.3599,5.3365,5.3275,5.3764,5.3789,5.3404,5.3828,5.4134,5.4394,5.4394,5.4629,5.5058,5.5293,5.5579,5.595,5.6406,5.6609,5.6601,5.6797,5.6738,5.6609,5.6609,5.6609,5.6609,5.6609,5.6609,5.6609,5.6609,5.6875,5.7246,5.7441,5.798,5.8566,5.8742,5.9004,5.9207,5.9207,5.9004,5.8711,5.832,5.8086,5.7922,5.7898,5.7742,5.7547,5.7351,5.7246,5.7148,5.6973,5.6894,5.6797,5.6601,5.6609,5.6609,5.6609,5.6609,5.6424,5.5982,5.6351,5.6424,5.5982,5.6351,5.6609,5.6609,5.6609,5.6609,5.6609,5.6211,5.6015,5.6015,5.6015,5.6113,5.6308,5.6308,5.6406,0.0,0.0,5.757,5.9955,0.0,0.0,0.0,0.0,0.0,0.0,0.0,0.0,0.0,0.0,0.0,0.0,0.0,0.0,0.0,0.0,0.0,0.0,0.0,0.0,0.0,0.0,0.0,0.0,5.4375,5.4336,5.4694,5.4232,5.3998,5.3998,5.3998,5.3998,5.3998,5.3599,5.3111,5.2558,5.3295,5.3516,5.3228,5.3652,5.416,5.4713,5.4713,5.498,5.5488,5.5774,5.597,5.6106,5.6465,5.6609,5.6609,5.6609,5.6609,5.6609,5.6609,5.6609,5.6609,5.6609,5.6609,5.6609,5.6609,5.6875,5.7199,5.7344,5.7922,5.8535,5.8652,5.8945,5.9207,5.9207,5.8945,5.8625,5.839,5.8332,5.8262,5.7957,5.7898,5.7898,5.7898,5.7625,5.7383,5.7383,5.7012,5.6738,5.6738,5.666,5.6609,5.6609,5.6609,5.6609,5.6609,5.6609,5.6609,5.6609,5.6609,5.6609,5.6609,5.6609,5.6609,5.6609,5.6609,5.6609,5.6609,5.6609,5.6609,5.6609,5.6609,5.6609,0.0,4.9053,0.0,5.4231,0.0,0.0,0.0,0.0,0.0,0.0,0.0,0.0,0.0,0.0,0.0,0.0,0.0,0.0,0.0,0.0,0.0,0.0,0.0,0.0,0.0,0.0,0.0,0.0,5.4694,5.4674,5.4713,5.4232,5.3998,5.3998,5.3998,5.3998,5.3998,5.3599,5.2974,5.2153,5.2558,5.2773,5.2754,5.3228,5.3893,5.4713,5.4713,5.5137,5.5872,5.5891,5.6145,5.6589,5.6582,5.6609,5.6609,5.6609,5.6609,5.6609,5.6609,5.6609,5.6609,5.6609,5.6609,5.6609,5.6609,5.6875,5.7305,5.7742,5.8172,5.8597,5.9062,5.918,5.9207,5.9207,5.918,5.8934,5.8113,5.7937,5.7937,5.7898,5.7898,5.7898,5.7898,5.7879,5.7867,5.7867,5.7461,5.7187,5.7187,5.6836,5.6609,5.6609,5.6609,5.6609,5.6609,5.6609,5.6609,5.6609,5.6609,5.6609,5.6609,5.6609,5.6609,5.6609,5.6609,5.6609,5.6609,5.6609,5.6609,5.6609,5.6609,5.6609,0.0,0.0,0.0,5.3467,5.5727,5.7911,6.0,6.1876,6.3634,6.5342,6.5967,0.0,0.0,0.0,0.0,0.0,0.0,0.0,0.0,0.0,0.0,0.0,0.0,0.0,0.0,0.0,0.0,0.0,0.0,5.4713,5.4713,5.4232,5.3998,5.3998,5.3998,5.3887,5.3619,5.3463,5.2955,5.2114,5.2519,5.2715,5.2734,5.3189,5.401,5.5078,5.5078,5.5566,5.6348,5.6348,5.6445,5.6609,5.6609,5.6609,5.6609,5.6609,5.6609,5.6609,5.6609,5.6758,5.6992,5.6992,5.7187,5.7429,5.7429,5.7547,5.7683,5.7867,5.8203,5.8538,5.8711,5.8973,5.9207,5.9207,5.9207,5.911,5.8817,5.8711,5.8711,5.8711,5.8711,5.8711,5.8711,5.8476,5.791,5.6797,5.7207,5.7156,5.5762,5.6406,5.6875,5.6648,5.6609,5.6609,5.6609,5.6609,5.6609,5.6609,5.6609,5.6609,5.6609,5.6609,5.6609,5.6609,5.6609,5.6609,5.6609,5.6609,5.6609,5.6609,5.6609,5.6609,4.4828,0.0,0.0,0.0,0.0,5.4808,5.8536,0.0,6.255,6.5149,6.6135,6.6335,0.0,0.0,0.0,0.0,0.0,0.0,0.0,0.0,0.0,0.0,0.0,0.0,0.0,0.0,0.0,0.0,0.0,0.0,5.4713,5.4232,5.3998,5.3998,5.3998,5.375,5.317,5.317,5.2818,5.2114,5.2226,5.2422,5.2734,5.3189,5.4029,5.5117,5.539,5.5918,5.6609,5.6609,5.6609,5.6609,5.6609,5.6609,5.6609,5.6609,5.668,5.6797,5.6797,5.707,5.7422,5.7422,5.7664,5.7898,5.7898,5.7996,5.8113,5.8113,5.8418,5.8742,5.8742,5.8973,5.9207,5.9207,5.9207,5.9207,5.9207,5.9207,5.9207,5.9207,5.9207,5.9207,5.9207,5.8945,5.8332,5.718,5.7637,5.7578,5.6152,5.6699,5.7109,5.6816,5.668,5.6609,5.6609,5.6609,5.6609,5.6609,5.6609,5.6609,5.6609,5.6609,5.6609,5.6609,5.6609,5.6609,5.6609,5.6609,5.6609,5.6609,5.6609,5.6609,0.0,0.0,0.0,0.0,0.0,0.0,5.6251,0.0,6.1058,6.4789,6.6015,6.5916,6.4299,6.3981,0.0,0.0,0.0,0.0,0.0,0.0,0.0,0.0,0.0,0.0,0.0,0.0,0.0,0.0,5.4941,5.4713,5.4694,5.4258,5.3998,5.3998,5.3998,5.3588,5.2754,5.2715,5.2519,5.2134,5.1636,5.187,5.2754,5.3189,5.3873,5.4772,5.554,5.6172,5.6609,5.6609,5.6609,5.6609,5.6609,5.6609,5.6609,5.6628,5.6855,5.7207,5.7226,5.7519,5.7926,5.7926,5.7937,5.7937,5.7937,5.8203,5.8507,5.8507,5.8828,5.9207,5.9207,5.9207,5.9207,5.9207,5.9207,5.9207,5.9207,5.9207,5.9207,5.9207,5.9207,5.9207,5.9207,5.9207,5.918,5.9121,5.8742,5.8449,5.8421,5.7668,5.7187,5.7207,5.6855,5.6628,5.6609,5.6628,5.6628,5.6609,5.6601,5.6648,5.6609,5.6628,5.6628,5.6609,5.6609,5.6609,5.6609,5.6609,5.6609,5.6609,5.6609,5.6609,4.1995,0.0,0.0,0.0,0.0,0.0,0.0,0.0,5.6852,6.1371,6.361,6.4607,6.4092,6.331,6.2064,0.0,0.0,0.0,0.0,0.0,0.0,0.0,0.0,0.0,0.0,0.0,0.0,0.0,5.5195,5.4863,5.4213,5.4076,5.3998,5.3998,5.3998,5.3881,5.3646,5.3027,5.2812,5.3033,5.2271,5.2344,5.3209,5.3326,5.4029,5.5156,5.539,5.5898,5.6609,5.6609,5.6609,5.6609,5.6609,5.6609,5.6648,5.6933,5.7109,5.7265,5.7605,5.7969,5.8332,5.8332,5.8555,5.8828,5.8828,5.8934,5.9004,5.9004,5.909,5.9207,5.9207,5.9207,5.9207,5.9207,5.9207,5.9207,5.9207,5.9207,5.9207,5.9207,5.9207,5.9207,5.9207,5.9207,5.8769,5.7527,5.7207,5.7012,5.6672,5.6419,5.6497,5.7121,5.7109,5.6914,5.6621,5.6855,5.6914,5.6628,5.7195,5.7253,5.6628,5.6875,5.6894,5.6628,5.6609,5.6609,5.6609,5.6609,5.6609,5.6609,5.6609,5.6609,0.0,0.0,0.0,0.0,0.0,0.0,0.0,5.2385,5.5169,0.0,6.2333,6.3512,6.363,6.188,6.0093,5.9226,0.0,0.0,0.0,0.0,0.0,0.0,0.0,0.0,0.0,5.5911,5.5813,5.556,5.5384,5.5098,5.4564,5.4544,5.4544,5.4544,5.4544,5.4369,5.4017,5.349,5.3203,5.3111,5.2798,5.2994,5.3678,5.3853,5.444,5.5312,5.5462,5.5833,5.6348,5.6699,5.6738,5.6609,5.6609,5.6609,5.664,5.7051,5.7324,5.7539,5.7996,5.8437,5.88,5.88,5.8993,5.9207,5.9207,5.9207,5.9207,5.9207,5.9207,5.9207,5.9207,5.9207,5.9207,5.9207,5.9207,5.9207,5.9207,5.9207,5.9207,5.9207,5.9207,5.9207,5.9207,5.9207,5.8875,5.784,5.7676,5.7578,5.7324,5.7102,5.718,5.7687,5.7422,5.7187,5.7156,5.7168,5.7187,5.7156,5.7605,5.7664,5.7156,5.7187,5.709,5.6855,5.668,5.6609,5.6609,5.6609,5.6609,5.6609,5.6609,5.6609,4.1548,4.2067,0.0,0.0,0.0,0.0,5.0136,5.2283,5.438,0.0,6.0842,6.1706,6.1947,5.9397,5.7385,5.7739,5.6542,0.0,0.0,0.0,0.0,0.0,0.0,0.0,5.595,5.5911,5.5911,5.5911,5.5508,5.5234,5.5234,5.5234,5.5254,5.5312,5.5312,5.4941,5.4154,5.4095,5.3832,5.3363,5.3491,5.3883,5.4537,5.4699,5.5136,5.573,5.5899,5.6141,5.6477,5.7034,5.7031,5.6687,5.6687,5.6687,5.6726,5.7129,5.7539,5.7957,5.8418,5.8859,5.9207,5.9207,5.9207,5.9207,5.9207,5.9207,5.9207,5.9207,5.9207,5.9207,5.9207,5.9149,5.9121,5.9121,5.9121,5.9121,5.9121,5.9149,5.9207,5.9207,5.9207,5.9207,5.9207,5.9207,5.9207,5.9207,5.9051,5.8993,5.918,5.8652,5.8332,5.8418,5.7734,5.7402,5.7722,5.7441,5.7422,5.7808,5.7957,5.7996,5.7898,5.7539,5.7305,5.7207,5.6797,5.6609,5.6609,5.6609,5.6609,5.6609,5.6609,5.6609,4.2019,4.2582,4.3313,0.0,0.0,0.0,0.0,4.736,4.9614,0.0,5.452,5.5292,5.457,5.4456,5.3451,5.0343,5.1791,5.4101,0.0,0.0,0.0,0.0,0.0,0.0,5.5891,5.5911,5.5911,5.5911,5.5234,5.483,5.483,5.483,5.4961,5.5293,5.5312,5.5234,5.5058,5.4726,5.5535,5.7418,5.541,5.5586,5.7633,5.5948,5.6362,5.8374,5.7045,5.7661,5.9522,5.8286,5.748,5.709,5.709,5.709,5.7148,5.7605,5.782,5.7996,5.8769,5.9121,5.9207,5.9207,5.9207,5.9207,5.9207,5.9207,5.9207,5.9207,5.9207,5.9207,5.9207,5.8917,5.8625,5.8625,5.8625,5.8625,5.8625,5.8945,5.9207,5.9207,5.9207,5.9207,5.9207,5.9207,5.9207,5.9207,5.7996,5.7598,5.9004,5.791,5.7226,5.7937,5.7851,5.7527,5.6921,5.741,5.7644,5.7344,5.8348,5.8641,5.7937,5.8097,5.7922,5.7226,5.6797,5.6609,5.6609,5.6609,5.6609,5.6609,5.6609,5.6609,4.2525,4.2765,4.3207,4.3481,0.0,0.0,0.0,0.0,4.8507,5.0648,5.1922,5.2593,5.2473,5.1315,5.0074,4.9019,5.0314,5.1973,5.3496,0.0,0.0,0.0,0.0,0.0,5.5911,5.6106,5.6145,5.593,5.5521,5.5312,5.5312,5.5312,5.5508,5.5937,5.5937,5.584,5.5599,5.541,5.6418,5.857,5.6366,5.6544,5.8824,5.6607,5.6307,5.7501,5.6892,5.7348,5.8546,5.8303,5.7937,5.7539,5.7539,5.7402,5.7265,5.7722,5.7898,5.7996,5.8641,5.9004,5.9207,5.9207,5.9207,5.9207,5.9207,5.9207,5.9149,5.8917,5.8859,5.88,5.8594,5.8379,5.8203,5.8203,5.8203,5.8203,5.8203,5.8406,5.8594,5.88,5.8699,5.8699,5.9121,5.9207,5.9207,5.9207,5.8262,5.7969,5.9062,5.8215,5.7793,5.8465,5.8172,5.7793,5.7578,5.7762,5.7879,5.7851,5.8711,5.9004,5.8582,5.8507,5.8203,5.7539,5.7351,5.7136,5.6894,5.6894,5.6797,5.6609,5.6609,5.6609,0.0,0.0,0.0,0.0,0.0,4.462,0.0,0.0,0.0,0.0,0.0,0.0,0.0,0.0,0.0,0.0,0.0,0.0,0.0,0.0,0.0,0.0,0.0,0.0,5.5677,5.6015,5.6074,5.5696,5.5501,5.5442,5.554,5.5696,5.595,5.6328,5.6406,5.6501,5.6551,5.6551,5.7523,5.9432,5.7571,5.7811,5.9874,5.7228,5.6484,5.7274,5.6975,5.7084,5.7511,5.8203,5.832,5.7996,5.7937,5.7625,5.7246,5.7644,5.782,5.7957,5.8359,5.88,5.9207,5.9207,5.9207,5.9207,5.9207,5.9149,5.9004,5.8625,5.8449,5.832,5.7969,5.782,5.7762,5.7762,5.7762,5.7808,5.7879,5.7898,5.8016,5.8418,5.8183,5.8172,5.9051,5.9121,5.909,5.918,5.88,5.8625,5.9004,5.8652,5.8496,5.8769,5.8172,5.7879,5.8097,5.791,5.791,5.8215,5.8699,5.8993,5.9062,5.8711,5.8332,5.8016,5.7867,5.7586,5.7207,5.7129,5.6914,5.6609,5.6609,5.6609,0.0,0.0,0.0,0.0,4.5662,0.0,0.0,0.0,0.0,0.0,0.0,0.0,0.0,0.0,0.0,0.0,0.0,0.0,4.4512,4.7542,0.0,0.0,0.0,0.0,0.0,5.4863,5.4909,5.4824,5.4127,5.3853,5.4193,5.4935,5.539,5.5449,5.5794,5.6906,5.8793,5.8819,6.0096,6.2567,6.0442,6.0567,6.2504,5.8407,5.8643,6.2133,5.9082,5.8843,6.0492,5.9078,5.8476,5.839,5.8027,5.7625,5.7226,5.7265,5.7539,5.7957,5.8359,5.88,5.9207,5.9207,5.9207,5.9207,5.9207,5.8914,5.8566,5.8507,5.8242,5.7957,5.7926,5.7605,5.7285,5.7285,5.7285,5.7383,5.7793,5.7898,5.8016,5.8418,5.8183,5.8172,5.9051,5.8859,5.8711,5.9149,5.88,5.8507,5.8566,5.823,5.782,5.748,5.7344,5.7148,5.6836,5.7109,5.7305,5.7336,5.7793,5.8203,5.8566,5.8535,5.848,5.8421,5.7648,5.7265,5.7207,5.6836,5.6621,5.6609,5.6609,5.6609,0.0,0.0,0.0,0.0,0.0,0.0,0.0,0.0,4.4496,0.0,0.0,0.0,0.0,0.0,0.0,0.0,0.0,0.0,0.0,0.0,0.0,0.0,0.0,0.0,0.0,0.0,0.0,0.0,5.291,5.3281,5.3959,5.4609,5.5058,5.5293,5.6915,5.8069,5.8736,5.9942,6.1222,6.2611,6.172,6.1281,6.117,5.9361,5.8926,5.9692,5.9813,6.0346,6.107,6.0646,6.0138,5.9538,5.8055,5.7363,5.7207,5.7207,5.748,5.7926,5.8086,5.8594,5.9207,5.9207,5.9207,5.9207,5.9207,5.8859,5.8449,5.823,5.7824,5.7422,5.7214,5.7019,5.6855,5.6855,5.6855,5.6894,5.7117,5.7156,5.7246,5.7648,5.7422,5.7429,5.8289,5.8476,5.8566,5.8769,5.8437,5.8144,5.8144,5.7762,5.7519,5.7605,5.7363,5.7129,5.6953,5.7109,5.7207,5.7207,5.7851,5.8465,5.8887,5.8914,5.8769,5.8507,5.8128,5.7687,5.7207,5.7031,5.6816,5.6609,5.6609,5.6609,4.7553,0.0,0.0,0.0,0.0,0.0,0.0,0.0,0.0,0.0,0.0,0.0,0.0,0.0,0.0,0.0,0.0,0.0,0.0,0.0,0.0,0.0,0.0,0.0,0.0,0.0,0.0,0.0,0.0,5.2246,5.3568,5.4199,5.4971,5.5986,5.7791,5.9237,6.0199,6.1552,6.2565,6.3187,6.2583,6.1779,6.0729,5.9545,5.9001,5.9128,6.065,6.161,6.2036,6.183,6.1604,6.1112,5.8179,5.7408,5.7871,5.7246,5.7383,5.7898,5.7898,5.8465,5.9207,5.9207,5.9207,5.918,5.9062,5.8683,5.8262,5.782,5.7383,5.6973,5.6687,5.6609,5.6609,5.6609,5.6609,5.6621,5.6738,5.6687,5.6719,5.7129,5.6875,5.6843,5.7586,5.7969,5.8203,5.832,5.7969,5.7703,5.7703,5.7305,5.7168,5.7507,5.7226,5.7051,5.7051,5.7051,5.7051,5.7051,5.7734,5.8301,5.8641,5.8769,5.8699,5.8332,5.8215,5.7824,5.7207,5.709,5.6933,5.6758,5.6758,5.6758,0.0,0.0,0.0,4.8724,0.0,0.0,0.0,0.0,4.5681,0.0,0.0,0.0,0.0,0.0,0.0,0.0,0.0,0.0,0.0,0.0,0.0,0.0,0.0,0.0,0.0,0.0,0.0,0.0,4.9476,0.0,5.2617,5.3549,5.5189,5.7735,5.7826,6.0077,6.4738,6.433,6.4582,6.5471,6.3312,6.2542,6.2846,5.8625,5.9265,6.3612,6.2011,6.2518,6.4334,6.2195,6.2265,6.321,5.8457,5.7946,5.9565,5.7408,5.7156,5.7898,5.7898,5.8465,5.9207,5.9207,5.9207,5.9121,5.8655,5.8242,5.782,5.7344,5.6933,5.6628,5.6582,5.6609,5.6609,5.6609,5.6609,5.6699,5.7109,5.6875,5.6719,5.7129,5.6875,5.6719,5.7148,5.7219,5.7402,5.7867,5.7519,5.7199,5.7199,5.6855,5.6628,5.6648,5.6648,5.6601,5.6601,5.6601,5.6601,5.6601,5.7012,5.7265,5.7238,5.7703,5.7937,5.7926,5.7461,5.7246,5.7207,5.6797,5.6797,5.7187,5.7187,5.7187,0.0,0.0,5.2524,5.0407,0.0,0.0,0.0,0.0,0.0,0.0,0.0,0.0,0.0,0.0,0.0,0.0,0.0,0.0,0.0,0.0,0.0,0.0,0.0,0.0,0.0,0.0,0.0,0.0,4.8175,0.0,5.097,5.3173,5.5342,5.7435,5.9344,6.165,6.4451,6.5633,6.5843,6.5088,6.6143,6.54,6.3102,6.3076,6.3539,6.4407,6.5314,6.5298,6.4543,6.3841,6.263,6.1064,5.9423,5.8355,5.7648,5.717,5.739,5.7984,5.8555,5.8945,5.9207,5.9207,5.9207,5.9121,5.8625,5.823,5.7808,5.7344,5.6914,5.6609,5.6609,5.6609,5.6609,5.6609,5.6609,5.6648,5.6758,5.668,5.6648,5.6777,5.668,5.6621,5.6777,5.8013,5.8632,5.7607,5.7305,5.7109,5.6836,5.668,5.6609,5.6609,5.6609,5.6609,5.6609,5.6609,5.6699,5.6992,5.8513,5.9496,5.9753,5.9915,5.9881,5.9624,5.8048,5.707,5.6797,5.6687,5.6797,5.7226,5.75,5.7664,5.6684,5.6203,0.0,5.3894,5.2307,0.0,4.8642,0.0,0.0,0.0,0.0,0.0,0.0,0.0,0.0,0.0,0.0,0.0,0.0,0.0,0.0,0.0,0.0,0.0,0.0,0.0,4.4973,4.5233,4.7669,0.0,0.0,0.0,5.638,5.8824,6.1071,6.3337,6.5581,6.6725,6.6845,6.5999,6.7167,6.651,6.4271,6.4167,6.429,6.4674,6.6178,6.5972,6.4621,6.4652,6.3249,6.0885,5.9335,5.8329,5.7827,5.8219,5.8264,5.823,5.8945,5.909,5.8945,5.8945,5.8828,5.8641,5.8183,5.7851,5.7566,5.7109,5.6797,5.6609,5.6609,5.6609,5.6609,5.6609,5.7202,5.7767,5.7767,5.8382,5.8915,5.8915,5.8915,5.8915,5.8915,6.0099,6.0125,5.739,5.7671,5.8086,5.7807,5.7069,5.6902,5.7687,5.7767,5.8085,5.8836,5.8915,5.9011,5.9296,6.0646,6.1532,6.1801,6.1801,6.17,6.1431,6.0035,5.9174,5.8915,5.9104,5.9328,5.9534,5.9383,5.9303]}]]